<?xml version="1.0" encoding="UTF-8" standalone="no" ?>
<gpx xmlns="http://www.topografix.com/GPX/1/1" xmlns:xsi="http://www.w3.org/2001/XMLSchema-instance" xsi:schemaLocation="http://www.topografix.com/GPX/1/1 http://www.topografix.com/GPX/1/1/gpx.xsd" version="1.1" creator="VisuGPX - https://www.visugpx.com">
  <metadata>
    <name>Balade Chapagnat le jeune-le rodel-Ste Catherine</name>
    <desc><![CDATA[Agréable sortie au terrain propice aux allures, rien de difficile pour les plus mauvais passages.]]></desc>
  </metadata>
  <trk>
    <name><![CDATA[Balade Chapagnat le jeune-le rodel-Ste Catherine_1]]></name>
    <trkseg>
      <trkpt lat="45.4525" lon="3.43268">
        <ele>717.442077</ele>
        <time>2015-09-27T09:38:22Z</time>
      </trkpt>
      <trkpt lat="45.45252" lon="3.4328">
        <ele>719.100463</ele>
        <time>2015-09-27T09:38:29Z</time>
      </trkpt>
      <trkpt lat="45.45254" lon="3.43291">
        <ele>719.084777</ele>
        <time>2015-09-27T09:38:35Z</time>
      </trkpt>
      <trkpt lat="45.45254" lon="3.43303">
        <ele>719.933288</ele>
        <time>2015-09-27T09:38:42Z</time>
      </trkpt>
      <trkpt lat="45.45255" lon="3.43314">
        <ele>719.868041</ele>
        <time>2015-09-27T09:38:49Z</time>
      </trkpt>
      <trkpt lat="45.45256" lon="3.43327">
        <ele>721.026367</ele>
        <time>2015-09-27T09:38:56Z</time>
      </trkpt>
      <trkpt lat="45.45258" lon="3.43339">
        <ele>721.261047</ele>
        <time>2015-09-27T09:39:03Z</time>
      </trkpt>
      <trkpt lat="45.45258" lon="3.4335">
        <ele>721.14685</ele>
        <time>2015-09-27T09:39:10Z</time>
      </trkpt>
      <trkpt lat="45.45258" lon="3.43352">
        <ele>721.207031</ele>
        <time>2015-09-27T09:39:11Z</time>
      </trkpt>
      <trkpt lat="45.4526" lon="3.43372">
        <ele>722.7</ele>
        <time>2015-09-27T09:39:23Z</time>
      </trkpt>
      <trkpt lat="45.45257" lon="3.43382">
        <ele>723.4</ele>
        <time>2015-09-27T09:39:28Z</time>
      </trkpt>
      <trkpt lat="45.45257" lon="3.43393">
        <ele>723.8</ele>
        <time>2015-09-27T09:39:35Z</time>
      </trkpt>
      <trkpt lat="45.45257" lon="3.43406">
        <ele>725.6</ele>
        <time>2015-09-27T09:39:42Z</time>
      </trkpt>
      <trkpt lat="45.45257" lon="3.43417">
        <ele>725.8</ele>
        <time>2015-09-27T09:39:48Z</time>
      </trkpt>
      <trkpt lat="45.45255" lon="3.43429">
        <ele>727.4</ele>
        <time>2015-09-27T09:39:56Z</time>
      </trkpt>
      <trkpt lat="45.45252" lon="3.43439">
        <ele>727.6</ele>
        <time>2015-09-27T09:40:04Z</time>
      </trkpt>
      <trkpt lat="45.45249" lon="3.4345">
        <ele>728.4</ele>
        <time>2015-09-27T09:40:11Z</time>
      </trkpt>
      <trkpt lat="45.45248" lon="3.43452">
        <ele>728.5</ele>
        <time>2015-09-27T09:40:12Z</time>
      </trkpt>
      <trkpt lat="45.45245" lon="3.43473">
        <ele>729.5</ele>
        <time>2015-09-27T09:40:24Z</time>
      </trkpt>
      <trkpt lat="45.45243" lon="3.43485">
        <ele>730.4</ele>
        <time>2015-09-27T09:40:31Z</time>
      </trkpt>
      <trkpt lat="45.45242" lon="3.43496">
        <ele>730.2</ele>
        <time>2015-09-27T09:40:38Z</time>
      </trkpt>
      <trkpt lat="45.45239" lon="3.43507">
        <ele>729.6</ele>
        <time>2015-09-27T09:40:44Z</time>
      </trkpt>
      <trkpt lat="45.45236" lon="3.43518">
        <ele>729.7</ele>
        <time>2015-09-27T09:40:50Z</time>
      </trkpt>
      <trkpt lat="45.45234" lon="3.43531">
        <ele>730.3</ele>
        <time>2015-09-27T09:40:57Z</time>
      </trkpt>
      <trkpt lat="45.45233" lon="3.43542">
        <ele>731.3</ele>
        <time>2015-09-27T09:41:03Z</time>
      </trkpt>
      <trkpt lat="45.45231" lon="3.43554">
        <ele>730</ele>
        <time>2015-09-27T09:41:09Z</time>
      </trkpt>
      <trkpt lat="45.45229" lon="3.43565">
        <ele>730.1</ele>
        <time>2015-09-27T09:41:14Z</time>
      </trkpt>
      <trkpt lat="45.45229" lon="3.43567">
        <ele>730.2</ele>
        <time>2015-09-27T09:41:15Z</time>
      </trkpt>
      <trkpt lat="45.45228" lon="3.4359">
        <ele>730.9</ele>
        <time>2015-09-27T09:41:26Z</time>
      </trkpt>
      <trkpt lat="45.45228" lon="3.43602">
        <ele>729.8</ele>
        <time>2015-09-27T09:41:31Z</time>
      </trkpt>
      <trkpt lat="45.45228" lon="3.43613">
        <ele>730.4</ele>
        <time>2015-09-27T09:41:36Z</time>
      </trkpt>
      <trkpt lat="45.45229" lon="3.43625">
        <ele>730.8</ele>
        <time>2015-09-27T09:41:41Z</time>
      </trkpt>
      <trkpt lat="45.4523" lon="3.43637">
        <ele>731.1</ele>
        <time>2015-09-27T09:41:47Z</time>
      </trkpt>
      <trkpt lat="45.45231" lon="3.43648">
        <ele>730.8</ele>
        <time>2015-09-27T09:41:53Z</time>
      </trkpt>
      <trkpt lat="45.45233" lon="3.4366">
        <ele>730.9</ele>
        <time>2015-09-27T09:42:00Z</time>
      </trkpt>
      <trkpt lat="45.45235" lon="3.43672">
        <ele>730.8</ele>
        <time>2015-09-27T09:42:07Z</time>
      </trkpt>
      <trkpt lat="45.45239" lon="3.43684">
        <ele>731.3</ele>
        <time>2015-09-27T09:42:14Z</time>
      </trkpt>
      <trkpt lat="45.45243" lon="3.43694">
        <ele>731.6</ele>
        <time>2015-09-27T09:42:20Z</time>
      </trkpt>
      <trkpt lat="45.45243" lon="3.43696">
        <ele>731.1</ele>
        <time>2015-09-27T09:42:21Z</time>
      </trkpt>
      <trkpt lat="45.45248" lon="3.43717">
        <ele>731.6</ele>
        <time>2015-09-27T09:42:32Z</time>
      </trkpt>
      <trkpt lat="45.45249" lon="3.43728">
        <ele>731.5</ele>
        <time>2015-09-27T09:42:38Z</time>
      </trkpt>
      <trkpt lat="45.45251" lon="3.4374">
        <ele>732.1</ele>
        <time>2015-09-27T09:42:44Z</time>
      </trkpt>
      <trkpt lat="45.45252" lon="3.43751">
        <ele>732.6</ele>
        <time>2015-09-27T09:42:50Z</time>
      </trkpt>
      <trkpt lat="45.45253" lon="3.43762">
        <ele>731.7</ele>
        <time>2015-09-27T09:42:56Z</time>
      </trkpt>
      <trkpt lat="45.45255" lon="3.43774">
        <ele>732.1</ele>
        <time>2015-09-27T09:43:02Z</time>
      </trkpt>
      <trkpt lat="45.45257" lon="3.43785">
        <ele>732.1</ele>
        <time>2015-09-27T09:43:08Z</time>
      </trkpt>
      <trkpt lat="45.45259" lon="3.43797">
        <ele>733.1</ele>
        <time>2015-09-27T09:43:15Z</time>
      </trkpt>
      <trkpt lat="45.45259" lon="3.43809">
        <ele>733.6</ele>
        <time>2015-09-27T09:43:22Z</time>
      </trkpt>
      <trkpt lat="45.4526" lon="3.43811">
        <ele>733.6</ele>
        <time>2015-09-27T09:43:23Z</time>
      </trkpt>
      <trkpt lat="45.45264" lon="3.4383">
        <ele>732.4</ele>
        <time>2015-09-27T09:43:32Z</time>
      </trkpt>
      <trkpt lat="45.45267" lon="3.43841">
        <ele>733.5</ele>
        <time>2015-09-27T09:43:37Z</time>
      </trkpt>
      <trkpt lat="45.45271" lon="3.43852">
        <ele>733.1</ele>
        <time>2015-09-27T09:43:42Z</time>
      </trkpt>
      <trkpt lat="45.45274" lon="3.43862">
        <ele>734.5</ele>
        <time>2015-09-27T09:43:47Z</time>
      </trkpt>
      <trkpt lat="45.45279" lon="3.43872">
        <ele>734.4</ele>
        <time>2015-09-27T09:43:53Z</time>
      </trkpt>
      <trkpt lat="45.45281" lon="3.43884">
        <ele>734.9</ele>
        <time>2015-09-27T09:43:58Z</time>
      </trkpt>
      <trkpt lat="45.45282" lon="3.43895">
        <ele>734.9</ele>
        <time>2015-09-27T09:44:03Z</time>
      </trkpt>
      <trkpt lat="45.45282" lon="3.43908">
        <ele>735.7</ele>
        <time>2015-09-27T09:44:09Z</time>
      </trkpt>
      <trkpt lat="45.45281" lon="3.4392">
        <ele>736.3</ele>
        <time>2015-09-27T09:44:15Z</time>
      </trkpt>
      <trkpt lat="45.4528" lon="3.43932">
        <ele>736.2</ele>
        <time>2015-09-27T09:44:22Z</time>
      </trkpt>
      <trkpt lat="45.4528" lon="3.43945">
        <ele>736</ele>
        <time>2015-09-27T09:44:29Z</time>
      </trkpt>
      <trkpt lat="45.4528" lon="3.43946">
        <ele>736.4</ele>
        <time>2015-09-27T09:44:30Z</time>
      </trkpt>
      <trkpt lat="45.45279" lon="3.4397">
        <ele>737.4</ele>
        <time>2015-09-27T09:44:45Z</time>
      </trkpt>
      <trkpt lat="45.45287" lon="3.43975">
        <ele>737.7</ele>
        <time>2015-09-27T09:45:47Z</time>
      </trkpt>
      <trkpt lat="45.45287" lon="3.43975">
        <ele>738.2</ele>
        <time>2015-09-27T09:45:48Z</time>
      </trkpt>
      <trkpt lat="45.45277" lon="3.43995">
        <ele>737.5</ele>
        <time>2015-09-27T09:46:53Z</time>
      </trkpt>
      <trkpt lat="45.45277" lon="3.43996">
        <ele>737.6</ele>
        <time>2015-09-27T09:46:54Z</time>
      </trkpt>
      <trkpt lat="45.45271" lon="3.44016">
        <ele>738</ele>
        <time>2015-09-27T09:47:30Z</time>
      </trkpt>
      <trkpt lat="45.45267" lon="3.44027">
        <ele>738</ele>
        <time>2015-09-27T09:47:35Z</time>
      </trkpt>
      <trkpt lat="45.45262" lon="3.44037">
        <ele>738.4</ele>
        <time>2015-09-27T09:47:39Z</time>
      </trkpt>
      <trkpt lat="45.45256" lon="3.44046">
        <ele>738.6</ele>
        <time>2015-09-27T09:47:43Z</time>
      </trkpt>
      <trkpt lat="45.4525" lon="3.44054">
        <ele>738.3</ele>
        <time>2015-09-27T09:47:47Z</time>
      </trkpt>
      <trkpt lat="45.45243" lon="3.44062">
        <ele>739</ele>
        <time>2015-09-27T09:47:52Z</time>
      </trkpt>
      <trkpt lat="45.45236" lon="3.44067">
        <ele>738.2</ele>
        <time>2015-09-27T09:47:57Z</time>
      </trkpt>
      <trkpt lat="45.45235" lon="3.44068">
        <ele>738.1</ele>
        <time>2015-09-27T09:47:58Z</time>
      </trkpt>
      <trkpt lat="45.45222" lon="3.44075">
        <ele>739.3</ele>
        <time>2015-09-27T09:48:08Z</time>
      </trkpt>
      <trkpt lat="45.45214" lon="3.44078">
        <ele>739.5</ele>
        <time>2015-09-27T09:48:13Z</time>
      </trkpt>
      <trkpt lat="45.45207" lon="3.44082">
        <ele>740.1</ele>
        <time>2015-09-27T09:48:18Z</time>
      </trkpt>
      <trkpt lat="45.452" lon="3.44085">
        <ele>740.6</ele>
        <time>2015-09-27T09:48:23Z</time>
      </trkpt>
      <trkpt lat="45.45192" lon="3.44092">
        <ele>741</ele>
        <time>2015-09-27T09:48:30Z</time>
      </trkpt>
      <trkpt lat="45.45188" lon="3.44101">
        <ele>741.1</ele>
        <time>2015-09-27T09:48:37Z</time>
      </trkpt>
      <trkpt lat="45.45186" lon="3.44113">
        <ele>740.8</ele>
        <time>2015-09-27T09:48:43Z</time>
      </trkpt>
      <trkpt lat="45.45186" lon="3.44125">
        <ele>740.1</ele>
        <time>2015-09-27T09:48:49Z</time>
      </trkpt>
      <trkpt lat="45.45186" lon="3.44136">
        <ele>739.7</ele>
        <time>2015-09-27T09:48:54Z</time>
      </trkpt>
      <trkpt lat="45.45186" lon="3.44147">
        <ele>738.7</ele>
        <time>2015-09-27T09:48:59Z</time>
      </trkpt>
      <trkpt lat="45.45186" lon="3.44149">
        <ele>738.5</ele>
        <time>2015-09-27T09:49:00Z</time>
      </trkpt>
      <trkpt lat="45.45188" lon="3.4417">
        <ele>737.9</ele>
        <time>2015-09-27T09:49:13Z</time>
      </trkpt>
      <trkpt lat="45.45188" lon="3.44182">
        <ele>737.6</ele>
        <time>2015-09-27T09:49:19Z</time>
      </trkpt>
      <trkpt lat="45.45189" lon="3.44194">
        <ele>736.7</ele>
        <time>2015-09-27T09:49:27Z</time>
      </trkpt>
      <trkpt lat="45.4519" lon="3.44206">
        <ele>735.9</ele>
        <time>2015-09-27T09:49:34Z</time>
      </trkpt>
      <trkpt lat="45.45191" lon="3.44217">
        <ele>736.4</ele>
        <time>2015-09-27T09:49:39Z</time>
      </trkpt>
      <trkpt lat="45.45193" lon="3.44229">
        <ele>735.1</ele>
        <time>2015-09-27T09:49:45Z</time>
      </trkpt>
      <trkpt lat="45.45196" lon="3.44241">
        <ele>735.9</ele>
        <time>2015-09-27T09:49:51Z</time>
      </trkpt>
      <trkpt lat="45.452" lon="3.44251">
        <ele>735.7</ele>
        <time>2015-09-27T09:49:57Z</time>
      </trkpt>
      <trkpt lat="45.45204" lon="3.44261">
        <ele>735.9</ele>
        <time>2015-09-27T09:50:03Z</time>
      </trkpt>
      <trkpt lat="45.45205" lon="3.44263">
        <ele>735.9</ele>
        <time>2015-09-27T09:50:04Z</time>
      </trkpt>
      <trkpt lat="45.45213" lon="3.4428">
        <ele>735.5</ele>
        <time>2015-09-27T09:50:15Z</time>
      </trkpt>
      <trkpt lat="45.45218" lon="3.4429">
        <ele>734.9</ele>
        <time>2015-09-27T09:50:21Z</time>
      </trkpt>
      <trkpt lat="45.45223" lon="3.443">
        <ele>735.4</ele>
        <time>2015-09-27T09:50:27Z</time>
      </trkpt>
      <trkpt lat="45.45227" lon="3.4431">
        <ele>734.5</ele>
        <time>2015-09-27T09:50:33Z</time>
      </trkpt>
      <trkpt lat="45.45231" lon="3.44322">
        <ele>734.1</ele>
        <time>2015-09-27T09:50:39Z</time>
      </trkpt>
      <trkpt lat="45.45233" lon="3.44332">
        <ele>733.1</ele>
        <time>2015-09-27T09:50:45Z</time>
      </trkpt>
      <trkpt lat="45.45236" lon="3.44343">
        <ele>732.6</ele>
        <time>2015-09-27T09:50:55Z</time>
      </trkpt>
      <trkpt lat="45.45236" lon="3.44355">
        <ele>731.9</ele>
        <time>2015-09-27T09:51:02Z</time>
      </trkpt>
      <trkpt lat="45.45237" lon="3.44367">
        <ele>730.7</ele>
        <time>2015-09-27T09:51:08Z</time>
      </trkpt>
      <trkpt lat="45.45238" lon="3.44368">
        <ele>730.3</ele>
        <time>2015-09-27T09:51:09Z</time>
      </trkpt>
      <trkpt lat="45.45246" lon="3.44385">
        <ele>728.3</ele>
        <time>2015-09-27T09:51:21Z</time>
      </trkpt>
      <trkpt lat="45.45253" lon="3.44392">
        <ele>728.3</ele>
        <time>2015-09-27T09:51:28Z</time>
      </trkpt>
      <trkpt lat="45.4526" lon="3.44399">
        <ele>727.9</ele>
        <time>2015-09-27T09:51:34Z</time>
      </trkpt>
      <trkpt lat="45.45264" lon="3.44408">
        <ele>728</ele>
        <time>2015-09-27T09:51:39Z</time>
      </trkpt>
      <trkpt lat="45.45267" lon="3.44419">
        <ele>727.4</ele>
        <time>2015-09-27T09:51:44Z</time>
      </trkpt>
      <trkpt lat="45.4527" lon="3.44429">
        <ele>727.4</ele>
        <time>2015-09-27T09:51:49Z</time>
      </trkpt>
      <trkpt lat="45.45272" lon="3.44441">
        <ele>727</ele>
        <time>2015-09-27T09:51:55Z</time>
      </trkpt>
      <trkpt lat="45.45273" lon="3.44452">
        <ele>728</ele>
        <time>2015-09-27T09:52:00Z</time>
      </trkpt>
      <trkpt lat="45.45276" lon="3.44464">
        <ele>727.9</ele>
        <time>2015-09-27T09:52:06Z</time>
      </trkpt>
      <trkpt lat="45.45278" lon="3.44476">
        <ele>727.6</ele>
        <time>2015-09-27T09:52:12Z</time>
      </trkpt>
      <trkpt lat="45.45279" lon="3.44478">
        <ele>727.6</ele>
        <time>2015-09-27T09:52:13Z</time>
      </trkpt>
      <trkpt lat="45.45284" lon="3.44498">
        <ele>727.4</ele>
        <time>2015-09-27T09:52:23Z</time>
      </trkpt>
      <trkpt lat="45.45287" lon="3.4451">
        <ele>726.5</ele>
        <time>2015-09-27T09:52:29Z</time>
      </trkpt>
      <trkpt lat="45.4529" lon="3.44521">
        <ele>726</ele>
        <time>2015-09-27T09:52:35Z</time>
      </trkpt>
      <trkpt lat="45.45291" lon="3.44532">
        <ele>725.4</ele>
        <time>2015-09-27T09:52:43Z</time>
      </trkpt>
      <trkpt lat="45.45295" lon="3.44543">
        <ele>724.4</ele>
        <time>2015-09-27T09:52:51Z</time>
      </trkpt>
      <trkpt lat="45.45298" lon="3.44555">
        <ele>723.3</ele>
        <time>2015-09-27T09:52:59Z</time>
      </trkpt>
      <trkpt lat="45.453" lon="3.44566">
        <ele>723.1</ele>
        <time>2015-09-27T09:53:06Z</time>
      </trkpt>
      <trkpt lat="45.45301" lon="3.44578">
        <ele>723.4</ele>
        <time>2015-09-27T09:53:12Z</time>
      </trkpt>
      <trkpt lat="45.45304" lon="3.44589">
        <ele>722.4</ele>
        <time>2015-09-27T09:53:18Z</time>
      </trkpt>
      <trkpt lat="45.45304" lon="3.4459">
        <ele>722.5</ele>
        <time>2015-09-27T09:53:19Z</time>
      </trkpt>
      <trkpt lat="45.45309" lon="3.4461">
        <ele>722.1</ele>
        <time>2015-09-27T09:53:29Z</time>
      </trkpt>
      <trkpt lat="45.45312" lon="3.44622">
        <ele>721.4</ele>
        <time>2015-09-27T09:53:36Z</time>
      </trkpt>
      <trkpt lat="45.45314" lon="3.44634">
        <ele>720.3</ele>
        <time>2015-09-27T09:53:43Z</time>
      </trkpt>
      <trkpt lat="45.45317" lon="3.44645">
        <ele>720.7</ele>
        <time>2015-09-27T09:53:50Z</time>
      </trkpt>
      <trkpt lat="45.45319" lon="3.44657">
        <ele>720</ele>
        <time>2015-09-27T09:53:58Z</time>
      </trkpt>
      <trkpt lat="45.45322" lon="3.44669">
        <ele>719.4</ele>
        <time>2015-09-27T09:54:05Z</time>
      </trkpt>
      <trkpt lat="45.45326" lon="3.44679">
        <ele>719.7</ele>
        <time>2015-09-27T09:54:11Z</time>
      </trkpt>
      <trkpt lat="45.45328" lon="3.4469">
        <ele>720.3</ele>
        <time>2015-09-27T09:54:17Z</time>
      </trkpt>
      <trkpt lat="45.4533" lon="3.44701">
        <ele>721.3</ele>
        <time>2015-09-27T09:54:22Z</time>
      </trkpt>
      <trkpt lat="45.45331" lon="3.44703">
        <ele>721.7</ele>
        <time>2015-09-27T09:54:23Z</time>
      </trkpt>
      <trkpt lat="45.45333" lon="3.44725">
        <ele>722.3</ele>
        <time>2015-09-27T09:54:33Z</time>
      </trkpt>
      <trkpt lat="45.45334" lon="3.44736">
        <ele>722</ele>
        <time>2015-09-27T09:54:38Z</time>
      </trkpt>
      <trkpt lat="45.45333" lon="3.44748">
        <ele>720.7</ele>
        <time>2015-09-27T09:54:43Z</time>
      </trkpt>
      <trkpt lat="45.45334" lon="3.44759">
        <ele>720.2</ele>
        <time>2015-09-27T09:54:48Z</time>
      </trkpt>
      <trkpt lat="45.45334" lon="3.44772">
        <ele>719.8</ele>
        <time>2015-09-27T09:54:54Z</time>
      </trkpt>
      <trkpt lat="45.45336" lon="3.44785">
        <ele>718.7</ele>
        <time>2015-09-27T09:55:01Z</time>
      </trkpt>
      <trkpt lat="45.45339" lon="3.44796">
        <ele>717.6</ele>
        <time>2015-09-27T09:55:08Z</time>
      </trkpt>
      <trkpt lat="45.45344" lon="3.44805">
        <ele>717.3</ele>
        <time>2015-09-27T09:55:15Z</time>
      </trkpt>
      <trkpt lat="45.45342" lon="3.44817">
        <ele>717.3</ele>
        <time>2015-09-27T09:55:23Z</time>
      </trkpt>
      <trkpt lat="45.45341" lon="3.44818">
        <ele>717.4</ele>
        <time>2015-09-27T09:55:24Z</time>
      </trkpt>
      <trkpt lat="45.45328" lon="3.44805">
        <ele>716.8</ele>
        <time>2015-09-27T09:55:46Z</time>
      </trkpt>
      <trkpt lat="45.45322" lon="3.44795">
        <ele>718.8</ele>
        <time>2015-09-27T09:55:56Z</time>
      </trkpt>
      <trkpt lat="45.45316" lon="3.44788">
        <ele>719.5</ele>
        <time>2015-09-27T09:56:06Z</time>
      </trkpt>
      <trkpt lat="45.45308" lon="3.44782">
        <ele>719.7</ele>
        <time>2015-09-27T09:56:14Z</time>
      </trkpt>
      <trkpt lat="45.45299" lon="3.4478">
        <ele>720.4</ele>
        <time>2015-09-27T09:56:20Z</time>
      </trkpt>
      <trkpt lat="45.45291" lon="3.44779">
        <ele>721.8</ele>
        <time>2015-09-27T09:56:25Z</time>
      </trkpt>
      <trkpt lat="45.45289" lon="3.44778">
        <ele>721.9</ele>
        <time>2015-09-27T09:56:26Z</time>
      </trkpt>
      <trkpt lat="45.45276" lon="3.44778">
        <ele>722.9</ele>
        <time>2015-09-27T09:56:34Z</time>
      </trkpt>
      <trkpt lat="45.45268" lon="3.44775">
        <ele>723.2</ele>
        <time>2015-09-27T09:56:38Z</time>
      </trkpt>
      <trkpt lat="45.4526" lon="3.44774">
        <ele>723.8</ele>
        <time>2015-09-27T09:56:42Z</time>
      </trkpt>
      <trkpt lat="45.45252" lon="3.44773">
        <ele>724.6</ele>
        <time>2015-09-27T09:56:47Z</time>
      </trkpt>
      <trkpt lat="45.45244" lon="3.44769">
        <ele>724.5</ele>
        <time>2015-09-27T09:56:53Z</time>
      </trkpt>
      <trkpt lat="45.45235" lon="3.44769">
        <ele>725</ele>
        <time>2015-09-27T09:56:59Z</time>
      </trkpt>
      <trkpt lat="45.45227" lon="3.44765">
        <ele>726.2</ele>
        <time>2015-09-27T09:57:05Z</time>
      </trkpt>
      <trkpt lat="45.45219" lon="3.4476">
        <ele>727.5</ele>
        <time>2015-09-27T09:57:10Z</time>
      </trkpt>
      <trkpt lat="45.45211" lon="3.44756">
        <ele>729.2</ele>
        <time>2015-09-27T09:57:15Z</time>
      </trkpt>
      <trkpt lat="45.45204" lon="3.44754">
        <ele>729.8</ele>
        <time>2015-09-27T09:57:20Z</time>
      </trkpt>
      <trkpt lat="45.45196" lon="3.44754">
        <ele>730.2</ele>
        <time>2015-09-27T09:57:25Z</time>
      </trkpt>
      <trkpt lat="45.45187" lon="3.44754">
        <ele>731.3</ele>
        <time>2015-09-27T09:57:30Z</time>
      </trkpt>
      <trkpt lat="45.45185" lon="3.44753">
        <ele>731.2</ele>
        <time>2015-09-27T09:57:31Z</time>
      </trkpt>
      <trkpt lat="45.45171" lon="3.44754">
        <ele>731.8</ele>
        <time>2015-09-27T09:57:40Z</time>
      </trkpt>
      <trkpt lat="45.45162" lon="3.44759">
        <ele>731.5</ele>
        <time>2015-09-27T09:57:47Z</time>
      </trkpt>
      <trkpt lat="45.45154" lon="3.4476">
        <ele>731.9</ele>
        <time>2015-09-27T09:57:52Z</time>
      </trkpt>
      <trkpt lat="45.45146" lon="3.44761">
        <ele>732.2</ele>
        <time>2015-09-27T09:57:57Z</time>
      </trkpt>
      <trkpt lat="45.45138" lon="3.4476">
        <ele>732.4</ele>
        <time>2015-09-27T09:58:02Z</time>
      </trkpt>
      <trkpt lat="45.45131" lon="3.44761">
        <ele>732.8</ele>
        <time>2015-09-27T09:58:06Z</time>
      </trkpt>
      <trkpt lat="45.45123" lon="3.44761">
        <ele>734.5</ele>
        <time>2015-09-27T09:58:10Z</time>
      </trkpt>
      <trkpt lat="45.45115" lon="3.4476">
        <ele>734.4</ele>
        <time>2015-09-27T09:58:15Z</time>
      </trkpt>
      <trkpt lat="45.45106" lon="3.4476">
        <ele>735.4</ele>
        <time>2015-09-27T09:58:22Z</time>
      </trkpt>
      <trkpt lat="45.45098" lon="3.4476">
        <ele>734.4</ele>
        <time>2015-09-27T09:58:28Z</time>
      </trkpt>
      <trkpt lat="45.45091" lon="3.4476">
        <ele>736</ele>
        <time>2015-09-27T09:58:31Z</time>
      </trkpt>
      <trkpt lat="45.45088" lon="3.4476">
        <ele>736.5</ele>
        <time>2015-09-27T09:58:32Z</time>
      </trkpt>
      <trkpt lat="45.45079" lon="3.44759">
        <ele>737</ele>
        <time>2015-09-27T09:58:35Z</time>
      </trkpt>
      <trkpt lat="45.45072" lon="3.44759">
        <ele>737.2</ele>
        <time>2015-09-27T09:58:37Z</time>
      </trkpt>
      <trkpt lat="45.45064" lon="3.44757">
        <ele>737.3</ele>
        <time>2015-09-27T09:58:39Z</time>
      </trkpt>
      <trkpt lat="45.45057" lon="3.44756">
        <ele>736.8</ele>
        <time>2015-09-27T09:58:41Z</time>
      </trkpt>
      <trkpt lat="45.45049" lon="3.44754">
        <ele>737.5</ele>
        <time>2015-09-27T09:58:43Z</time>
      </trkpt>
      <trkpt lat="45.45042" lon="3.44751">
        <ele>737.5</ele>
        <time>2015-09-27T09:58:45Z</time>
      </trkpt>
      <trkpt lat="45.45036" lon="3.44749">
        <ele>737.1</ele>
        <time>2015-09-27T09:58:47Z</time>
      </trkpt>
      <trkpt lat="45.4503" lon="3.44747">
        <ele>737.1</ele>
        <time>2015-09-27T09:58:49Z</time>
      </trkpt>
      <trkpt lat="45.45021" lon="3.44744">
        <ele>737.1</ele>
        <time>2015-09-27T09:58:52Z</time>
      </trkpt>
      <trkpt lat="45.45013" lon="3.44742">
        <ele>736.6</ele>
        <time>2015-09-27T09:58:54Z</time>
      </trkpt>
      <trkpt lat="45.45005" lon="3.44741">
        <ele>736.5</ele>
        <time>2015-09-27T09:58:56Z</time>
      </trkpt>
      <trkpt lat="45.44996" lon="3.44744">
        <ele>736.5</ele>
        <time>2015-09-27T09:58:59Z</time>
      </trkpt>
      <trkpt lat="45.44988" lon="3.44749">
        <ele>736.4</ele>
        <time>2015-09-27T09:59:02Z</time>
      </trkpt>
      <trkpt lat="45.44982" lon="3.44754">
        <ele>736.1</ele>
        <time>2015-09-27T09:59:04Z</time>
      </trkpt>
      <trkpt lat="45.44976" lon="3.44759">
        <ele>735.9</ele>
        <time>2015-09-27T09:59:06Z</time>
      </trkpt>
      <trkpt lat="45.4497" lon="3.44766">
        <ele>736</ele>
        <time>2015-09-27T09:59:08Z</time>
      </trkpt>
      <trkpt lat="45.44965" lon="3.44773">
        <ele>736.2</ele>
        <time>2015-09-27T09:59:10Z</time>
      </trkpt>
      <trkpt lat="45.44961" lon="3.4478">
        <ele>735.5</ele>
        <time>2015-09-27T09:59:12Z</time>
      </trkpt>
      <trkpt lat="45.44957" lon="3.44787">
        <ele>735.3</ele>
        <time>2015-09-27T09:59:14Z</time>
      </trkpt>
      <trkpt lat="45.44953" lon="3.44794">
        <ele>736.1</ele>
        <time>2015-09-27T09:59:16Z</time>
      </trkpt>
      <trkpt lat="45.4495" lon="3.44802">
        <ele>736.3</ele>
        <time>2015-09-27T09:59:18Z</time>
      </trkpt>
      <trkpt lat="45.44945" lon="3.44809">
        <ele>735.8</ele>
        <time>2015-09-27T09:59:20Z</time>
      </trkpt>
      <trkpt lat="45.44941" lon="3.44816">
        <ele>735.1</ele>
        <time>2015-09-27T09:59:22Z</time>
      </trkpt>
      <trkpt lat="45.44937" lon="3.44823">
        <ele>734.8</ele>
        <time>2015-09-27T09:59:24Z</time>
      </trkpt>
      <trkpt lat="45.44933" lon="3.44831">
        <ele>734.4</ele>
        <time>2015-09-27T09:59:26Z</time>
      </trkpt>
      <trkpt lat="45.44929" lon="3.44839">
        <ele>734.8</ele>
        <time>2015-09-27T09:59:28Z</time>
      </trkpt>
      <trkpt lat="45.44925" lon="3.44846">
        <ele>734.4</ele>
        <time>2015-09-27T09:59:30Z</time>
      </trkpt>
      <trkpt lat="45.44922" lon="3.44854">
        <ele>733.9</ele>
        <time>2015-09-27T09:59:32Z</time>
      </trkpt>
      <trkpt lat="45.4492" lon="3.44858">
        <ele>733.8</ele>
        <time>2015-09-27T09:59:33Z</time>
      </trkpt>
      <trkpt lat="45.44916" lon="3.44875">
        <ele>732.9</ele>
        <time>2015-09-27T09:59:38Z</time>
      </trkpt>
      <trkpt lat="45.44915" lon="3.44886">
        <ele>733.4</ele>
        <time>2015-09-27T09:59:41Z</time>
      </trkpt>
      <trkpt lat="45.44918" lon="3.44895">
        <ele>734</ele>
        <time>2015-09-27T09:59:44Z</time>
      </trkpt>
      <trkpt lat="45.44922" lon="3.44904">
        <ele>734.7</ele>
        <time>2015-09-27T09:59:47Z</time>
      </trkpt>
      <trkpt lat="45.44926" lon="3.4491">
        <ele>734.6</ele>
        <time>2015-09-27T09:59:49Z</time>
      </trkpt>
      <trkpt lat="45.44932" lon="3.44917">
        <ele>734.7</ele>
        <time>2015-09-27T09:59:51Z</time>
      </trkpt>
      <trkpt lat="45.44936" lon="3.44923">
        <ele>734.9</ele>
        <time>2015-09-27T09:59:53Z</time>
      </trkpt>
      <trkpt lat="45.44942" lon="3.44933">
        <ele>734.6</ele>
        <time>2015-09-27T09:59:56Z</time>
      </trkpt>
      <trkpt lat="45.44945" lon="3.44941">
        <ele>733.9</ele>
        <time>2015-09-27T09:59:58Z</time>
      </trkpt>
      <trkpt lat="45.44949" lon="3.44951">
        <ele>732.8</ele>
        <time>2015-09-27T10:00:01Z</time>
      </trkpt>
      <trkpt lat="45.44951" lon="3.44959">
        <ele>733.1</ele>
        <time>2015-09-27T10:00:03Z</time>
      </trkpt>
      <trkpt lat="45.44951" lon="3.44969">
        <ele>733.5</ele>
        <time>2015-09-27T10:00:05Z</time>
      </trkpt>
      <trkpt lat="45.44949" lon="3.44981">
        <ele>733.6</ele>
        <time>2015-09-27T10:00:07Z</time>
      </trkpt>
      <trkpt lat="45.44946" lon="3.44991">
        <ele>733.3</ele>
        <time>2015-09-27T10:00:09Z</time>
      </trkpt>
      <trkpt lat="45.44941" lon="3.45001">
        <ele>733.7</ele>
        <time>2015-09-27T10:00:11Z</time>
      </trkpt>
      <trkpt lat="45.44936" lon="3.45011">
        <ele>732.9</ele>
        <time>2015-09-27T10:00:13Z</time>
      </trkpt>
      <trkpt lat="45.44932" lon="3.45022">
        <ele>732.6</ele>
        <time>2015-09-27T10:00:15Z</time>
      </trkpt>
      <trkpt lat="45.44928" lon="3.45032">
        <ele>733.1</ele>
        <time>2015-09-27T10:00:17Z</time>
      </trkpt>
      <trkpt lat="45.44925" lon="3.45037">
        <ele>733.4</ele>
        <time>2015-09-27T10:00:18Z</time>
      </trkpt>
      <trkpt lat="45.4492" lon="3.45048">
        <ele>733.7</ele>
        <time>2015-09-27T10:00:20Z</time>
      </trkpt>
      <trkpt lat="45.44917" lon="3.45059">
        <ele>733.7</ele>
        <time>2015-09-27T10:00:22Z</time>
      </trkpt>
      <trkpt lat="45.44915" lon="3.45069">
        <ele>733.7</ele>
        <time>2015-09-27T10:00:24Z</time>
      </trkpt>
      <trkpt lat="45.44914" lon="3.45077">
        <ele>733.5</ele>
        <time>2015-09-27T10:00:26Z</time>
      </trkpt>
      <trkpt lat="45.44917" lon="3.45087">
        <ele>734.7</ele>
        <time>2015-09-27T10:00:28Z</time>
      </trkpt>
      <trkpt lat="45.4492" lon="3.45095">
        <ele>735.3</ele>
        <time>2015-09-27T10:00:30Z</time>
      </trkpt>
      <trkpt lat="45.44925" lon="3.45103">
        <ele>735.8</ele>
        <time>2015-09-27T10:00:32Z</time>
      </trkpt>
      <trkpt lat="45.44929" lon="3.45112">
        <ele>735.9</ele>
        <time>2015-09-27T10:00:34Z</time>
      </trkpt>
      <trkpt lat="45.44931" lon="3.45116">
        <ele>735.9</ele>
        <time>2015-09-27T10:00:35Z</time>
      </trkpt>
      <trkpt lat="45.44938" lon="3.45131">
        <ele>736</ele>
        <time>2015-09-27T10:00:38Z</time>
      </trkpt>
      <trkpt lat="45.44943" lon="3.45138">
        <ele>736.5</ele>
        <time>2015-09-27T10:00:40Z</time>
      </trkpt>
      <trkpt lat="45.44948" lon="3.45145">
        <ele>736.9</ele>
        <time>2015-09-27T10:00:42Z</time>
      </trkpt>
      <trkpt lat="45.44954" lon="3.45151">
        <ele>737</ele>
        <time>2015-09-27T10:00:44Z</time>
      </trkpt>
      <trkpt lat="45.4496" lon="3.45157">
        <ele>737.8</ele>
        <time>2015-09-27T10:00:46Z</time>
      </trkpt>
      <trkpt lat="45.44966" lon="3.45164">
        <ele>738.8</ele>
        <time>2015-09-27T10:00:49Z</time>
      </trkpt>
      <trkpt lat="45.44971" lon="3.45174">
        <ele>739.2</ele>
        <time>2015-09-27T10:00:52Z</time>
      </trkpt>
      <trkpt lat="45.44973" lon="3.45183">
        <ele>738.7</ele>
        <time>2015-09-27T10:00:54Z</time>
      </trkpt>
      <trkpt lat="45.44973" lon="3.45193">
        <ele>739</ele>
        <time>2015-09-27T10:00:56Z</time>
      </trkpt>
      <trkpt lat="45.44972" lon="3.45204">
        <ele>737.9</ele>
        <time>2015-09-27T10:00:58Z</time>
      </trkpt>
      <trkpt lat="45.44971" lon="3.45215">
        <ele>737.5</ele>
        <time>2015-09-27T10:01:00Z</time>
      </trkpt>
      <trkpt lat="45.44968" lon="3.45225">
        <ele>736.8</ele>
        <time>2015-09-27T10:01:02Z</time>
      </trkpt>
      <trkpt lat="45.44965" lon="3.45236">
        <ele>736</ele>
        <time>2015-09-27T10:01:04Z</time>
      </trkpt>
      <trkpt lat="45.44961" lon="3.45247">
        <ele>736.5</ele>
        <time>2015-09-27T10:01:07Z</time>
      </trkpt>
      <trkpt lat="45.44957" lon="3.45258">
        <ele>736.2</ele>
        <time>2015-09-27T10:01:11Z</time>
      </trkpt>
      <trkpt lat="45.44954" lon="3.4527">
        <ele>734.8</ele>
        <time>2015-09-27T10:01:17Z</time>
      </trkpt>
      <trkpt lat="45.44952" lon="3.45281">
        <ele>733.7</ele>
        <time>2015-09-27T10:01:23Z</time>
      </trkpt>
      <trkpt lat="45.44949" lon="3.45293">
        <ele>732.3</ele>
        <time>2015-09-27T10:01:29Z</time>
      </trkpt>
      <trkpt lat="45.44947" lon="3.45304">
        <ele>732.1</ele>
        <time>2015-09-27T10:01:34Z</time>
      </trkpt>
      <trkpt lat="45.44949" lon="3.45315">
        <ele>732.2</ele>
        <time>2015-09-27T10:01:39Z</time>
      </trkpt>
      <trkpt lat="45.44949" lon="3.45317">
        <ele>732.3</ele>
        <time>2015-09-27T10:01:40Z</time>
      </trkpt>
      <trkpt lat="45.44961" lon="3.4533">
        <ele>733.9</ele>
        <time>2015-09-27T10:01:49Z</time>
      </trkpt>
      <trkpt lat="45.44969" lon="3.45333">
        <ele>733.7</ele>
        <time>2015-09-27T10:01:54Z</time>
      </trkpt>
      <trkpt lat="45.44976" lon="3.45337">
        <ele>734.2</ele>
        <time>2015-09-27T10:01:59Z</time>
      </trkpt>
      <trkpt lat="45.44984" lon="3.45339">
        <ele>735.7</ele>
        <time>2015-09-27T10:02:04Z</time>
      </trkpt>
      <trkpt lat="45.44991" lon="3.4534">
        <ele>736.3</ele>
        <time>2015-09-27T10:02:08Z</time>
      </trkpt>
      <trkpt lat="45.44999" lon="3.45339">
        <ele>737.6</ele>
        <time>2015-09-27T10:02:11Z</time>
      </trkpt>
      <trkpt lat="45.45007" lon="3.45339">
        <ele>738.4</ele>
        <time>2015-09-27T10:02:14Z</time>
      </trkpt>
      <trkpt lat="45.45013" lon="3.45339">
        <ele>739.2</ele>
        <time>2015-09-27T10:02:16Z</time>
      </trkpt>
      <trkpt lat="45.4502" lon="3.45339">
        <ele>740.1</ele>
        <time>2015-09-27T10:02:18Z</time>
      </trkpt>
      <trkpt lat="45.45026" lon="3.45339">
        <ele>740.5</ele>
        <time>2015-09-27T10:02:20Z</time>
      </trkpt>
      <trkpt lat="45.45033" lon="3.45339">
        <ele>741.3</ele>
        <time>2015-09-27T10:02:22Z</time>
      </trkpt>
      <trkpt lat="45.4504" lon="3.45341">
        <ele>742</ele>
        <time>2015-09-27T10:02:24Z</time>
      </trkpt>
      <trkpt lat="45.45048" lon="3.45344">
        <ele>744.4</ele>
        <time>2015-09-27T10:02:27Z</time>
      </trkpt>
      <trkpt lat="45.45056" lon="3.45348">
        <ele>745.6</ele>
        <time>2015-09-27T10:02:30Z</time>
      </trkpt>
      <trkpt lat="45.45063" lon="3.45354">
        <ele>747.5</ele>
        <time>2015-09-27T10:02:33Z</time>
      </trkpt>
      <trkpt lat="45.45068" lon="3.4536">
        <ele>748.9</ele>
        <time>2015-09-27T10:02:36Z</time>
      </trkpt>
      <trkpt lat="45.45073" lon="3.45368">
        <ele>751</ele>
        <time>2015-09-27T10:02:39Z</time>
      </trkpt>
      <trkpt lat="45.4508" lon="3.45374">
        <ele>752.8</ele>
        <time>2015-09-27T10:02:42Z</time>
      </trkpt>
      <trkpt lat="45.45083" lon="3.45377">
        <ele>753.3</ele>
        <time>2015-09-27T10:02:43Z</time>
      </trkpt>
      <trkpt lat="45.45093" lon="3.45387">
        <ele>755.8</ele>
        <time>2015-09-27T10:02:47Z</time>
      </trkpt>
      <trkpt lat="45.45099" lon="3.45391">
        <ele>756.9</ele>
        <time>2015-09-27T10:02:49Z</time>
      </trkpt>
      <trkpt lat="45.45106" lon="3.45397">
        <ele>758.9</ele>
        <time>2015-09-27T10:02:52Z</time>
      </trkpt>
      <trkpt lat="45.45111" lon="3.45402">
        <ele>760.3</ele>
        <time>2015-09-27T10:02:54Z</time>
      </trkpt>
      <trkpt lat="45.45118" lon="3.45407">
        <ele>761.6</ele>
        <time>2015-09-27T10:02:56Z</time>
      </trkpt>
      <trkpt lat="45.45124" lon="3.45411">
        <ele>762.4</ele>
        <time>2015-09-27T10:02:58Z</time>
      </trkpt>
      <trkpt lat="45.45131" lon="3.45413">
        <ele>762.8</ele>
        <time>2015-09-27T10:03:00Z</time>
      </trkpt>
      <trkpt lat="45.45137" lon="3.45416">
        <ele>765.1</ele>
        <time>2015-09-27T10:03:02Z</time>
      </trkpt>
      <trkpt lat="45.45144" lon="3.45416">
        <ele>767.2</ele>
        <time>2015-09-27T10:03:04Z</time>
      </trkpt>
      <trkpt lat="45.45152" lon="3.45416">
        <ele>768</ele>
        <time>2015-09-27T10:03:07Z</time>
      </trkpt>
      <trkpt lat="45.45161" lon="3.45416">
        <ele>769.7</ele>
        <time>2015-09-27T10:03:10Z</time>
      </trkpt>
      <trkpt lat="45.45169" lon="3.45418">
        <ele>771.5</ele>
        <time>2015-09-27T10:03:14Z</time>
      </trkpt>
      <trkpt lat="45.45177" lon="3.45419">
        <ele>774.7</ele>
        <time>2015-09-27T10:03:18Z</time>
      </trkpt>
      <trkpt lat="45.45185" lon="3.45419">
        <ele>776.3</ele>
        <time>2015-09-27T10:03:22Z</time>
      </trkpt>
      <trkpt lat="45.45193" lon="3.45418">
        <ele>777.4</ele>
        <time>2015-09-27T10:03:27Z</time>
      </trkpt>
      <trkpt lat="45.45202" lon="3.45415">
        <ele>779.6</ele>
        <time>2015-09-27T10:03:33Z</time>
      </trkpt>
      <trkpt lat="45.4521" lon="3.45413">
        <ele>780.6</ele>
        <time>2015-09-27T10:03:38Z</time>
      </trkpt>
      <trkpt lat="45.45218" lon="3.45412">
        <ele>782</ele>
        <time>2015-09-27T10:03:43Z</time>
      </trkpt>
      <trkpt lat="45.4522" lon="3.45412">
        <ele>782.2</ele>
        <time>2015-09-27T10:03:44Z</time>
      </trkpt>
      <trkpt lat="45.45234" lon="3.45411">
        <ele>786.6</ele>
        <time>2015-09-27T10:03:55Z</time>
      </trkpt>
      <trkpt lat="45.45242" lon="3.45412">
        <ele>787</ele>
        <time>2015-09-27T10:04:00Z</time>
      </trkpt>
      <trkpt lat="45.45251" lon="3.45413">
        <ele>788.7</ele>
        <time>2015-09-27T10:04:06Z</time>
      </trkpt>
      <trkpt lat="45.45258" lon="3.45416">
        <ele>790.9</ele>
        <time>2015-09-27T10:04:10Z</time>
      </trkpt>
      <trkpt lat="45.45266" lon="3.45421">
        <ele>792.4</ele>
        <time>2015-09-27T10:04:14Z</time>
      </trkpt>
      <trkpt lat="45.45272" lon="3.45426">
        <ele>794.1</ele>
        <time>2015-09-27T10:04:17Z</time>
      </trkpt>
      <trkpt lat="45.45278" lon="3.45436">
        <ele>797.6</ele>
        <time>2015-09-27T10:04:21Z</time>
      </trkpt>
      <trkpt lat="45.45284" lon="3.45444">
        <ele>799.5</ele>
        <time>2015-09-27T10:04:26Z</time>
      </trkpt>
      <trkpt lat="45.45289" lon="3.45453">
        <ele>801.4</ele>
        <time>2015-09-27T10:04:32Z</time>
      </trkpt>
      <trkpt lat="45.45295" lon="3.4546">
        <ele>801.6</ele>
        <time>2015-09-27T10:04:37Z</time>
      </trkpt>
      <trkpt lat="45.45303" lon="3.45467">
        <ele>803.5</ele>
        <time>2015-09-27T10:04:42Z</time>
      </trkpt>
      <trkpt lat="45.45309" lon="3.45475">
        <ele>804</ele>
        <time>2015-09-27T10:04:47Z</time>
      </trkpt>
      <trkpt lat="45.4531" lon="3.45476">
        <ele>804.1</ele>
        <time>2015-09-27T10:04:48Z</time>
      </trkpt>
      <trkpt lat="45.45321" lon="3.45491">
        <ele>803.8</ele>
        <time>2015-09-27T10:04:58Z</time>
      </trkpt>
      <trkpt lat="45.45327" lon="3.45498">
        <ele>803.3</ele>
        <time>2015-09-27T10:05:03Z</time>
      </trkpt>
      <trkpt lat="45.45335" lon="3.45505">
        <ele>804.1</ele>
        <time>2015-09-27T10:05:08Z</time>
      </trkpt>
      <trkpt lat="45.45341" lon="3.45511">
        <ele>803.5</ele>
        <time>2015-09-27T10:05:13Z</time>
      </trkpt>
      <trkpt lat="45.4535" lon="3.45515">
        <ele>802.5</ele>
        <time>2015-09-27T10:05:19Z</time>
      </trkpt>
      <trkpt lat="45.45358" lon="3.4552">
        <ele>802.2</ele>
        <time>2015-09-27T10:05:25Z</time>
      </trkpt>
      <trkpt lat="45.45364" lon="3.45526">
        <ele>802.1</ele>
        <time>2015-09-27T10:05:30Z</time>
      </trkpt>
      <trkpt lat="45.45372" lon="3.45531">
        <ele>801.1</ele>
        <time>2015-09-27T10:05:36Z</time>
      </trkpt>
      <trkpt lat="45.4538" lon="3.45537">
        <ele>800</ele>
        <time>2015-09-27T10:05:43Z</time>
      </trkpt>
      <trkpt lat="45.45388" lon="3.45542">
        <ele>799</ele>
        <time>2015-09-27T10:05:49Z</time>
      </trkpt>
      <trkpt lat="45.45389" lon="3.45544">
        <ele>799</ele>
        <time>2015-09-27T10:05:50Z</time>
      </trkpt>
      <trkpt lat="45.45401" lon="3.45559">
        <ele>797.9</ele>
        <time>2015-09-27T10:06:01Z</time>
      </trkpt>
      <trkpt lat="45.45407" lon="3.45567">
        <ele>796.4</ele>
        <time>2015-09-27T10:06:06Z</time>
      </trkpt>
      <trkpt lat="45.45413" lon="3.45571">
        <ele>796.2</ele>
        <time>2015-09-27T10:06:08Z</time>
      </trkpt>
      <trkpt lat="45.4542" lon="3.45577">
        <ele>796.4</ele>
        <time>2015-09-27T10:06:11Z</time>
      </trkpt>
      <trkpt lat="45.45426" lon="3.45582">
        <ele>797.6</ele>
        <time>2015-09-27T10:06:14Z</time>
      </trkpt>
      <trkpt lat="45.45433" lon="3.45588">
        <ele>798</ele>
        <time>2015-09-27T10:06:17Z</time>
      </trkpt>
      <trkpt lat="45.45439" lon="3.45591">
        <ele>798.8</ele>
        <time>2015-09-27T10:06:19Z</time>
      </trkpt>
      <trkpt lat="45.45445" lon="3.45596">
        <ele>799</ele>
        <time>2015-09-27T10:06:21Z</time>
      </trkpt>
      <trkpt lat="45.45451" lon="3.45599">
        <ele>799.2</ele>
        <time>2015-09-27T10:06:23Z</time>
      </trkpt>
      <trkpt lat="45.45458" lon="3.45602">
        <ele>799.5</ele>
        <time>2015-09-27T10:06:25Z</time>
      </trkpt>
      <trkpt lat="45.45465" lon="3.45604">
        <ele>800.1</ele>
        <time>2015-09-27T10:06:27Z</time>
      </trkpt>
      <trkpt lat="45.45472" lon="3.45607">
        <ele>800.8</ele>
        <time>2015-09-27T10:06:29Z</time>
      </trkpt>
      <trkpt lat="45.45479" lon="3.45609">
        <ele>802.2</ele>
        <time>2015-09-27T10:06:31Z</time>
      </trkpt>
      <trkpt lat="45.45487" lon="3.45611">
        <ele>802.6</ele>
        <time>2015-09-27T10:06:33Z</time>
      </trkpt>
      <trkpt lat="45.45495" lon="3.45615">
        <ele>803.5</ele>
        <time>2015-09-27T10:06:35Z</time>
      </trkpt>
      <trkpt lat="45.45502" lon="3.45617">
        <ele>804.1</ele>
        <time>2015-09-27T10:06:37Z</time>
      </trkpt>
      <trkpt lat="45.4551" lon="3.45619">
        <ele>805.4</ele>
        <time>2015-09-27T10:06:39Z</time>
      </trkpt>
      <trkpt lat="45.45517" lon="3.4562">
        <ele>806.7</ele>
        <time>2015-09-27T10:06:41Z</time>
      </trkpt>
      <trkpt lat="45.45526" lon="3.45621">
        <ele>806.9</ele>
        <time>2015-09-27T10:06:43Z</time>
      </trkpt>
      <trkpt lat="45.45531" lon="3.45621">
        <ele>806.5</ele>
        <time>2015-09-27T10:06:44Z</time>
      </trkpt>
      <trkpt lat="45.45539" lon="3.45622">
        <ele>806.6</ele>
        <time>2015-09-27T10:06:46Z</time>
      </trkpt>
      <trkpt lat="45.45547" lon="3.45623">
        <ele>807.1</ele>
        <time>2015-09-27T10:06:48Z</time>
      </trkpt>
      <trkpt lat="45.45555" lon="3.45624">
        <ele>806.4</ele>
        <time>2015-09-27T10:06:50Z</time>
      </trkpt>
      <trkpt lat="45.45559" lon="3.45625">
        <ele>807.3</ele>
        <time>2015-09-27T10:06:51Z</time>
      </trkpt>
      <trkpt lat="45.45571" lon="3.45626">
        <ele>808.2</ele>
        <time>2015-09-27T10:06:54Z</time>
      </trkpt>
      <trkpt lat="45.45579" lon="3.45626">
        <ele>808.5</ele>
        <time>2015-09-27T10:06:56Z</time>
      </trkpt>
      <trkpt lat="45.45583" lon="3.45627">
        <ele>808.7</ele>
        <time>2015-09-27T10:06:57Z</time>
      </trkpt>
      <trkpt lat="45.45588" lon="3.45627">
        <ele>809.4</ele>
        <time>2015-09-27T10:06:58Z</time>
      </trkpt>
      <trkpt lat="45.45596" lon="3.45627">
        <ele>810.4</ele>
        <time>2015-09-27T10:07:00Z</time>
      </trkpt>
      <trkpt lat="45.45604" lon="3.45628">
        <ele>810.2</ele>
        <time>2015-09-27T10:07:02Z</time>
      </trkpt>
      <trkpt lat="45.45611" lon="3.45628">
        <ele>811.2</ele>
        <time>2015-09-27T10:07:04Z</time>
      </trkpt>
      <trkpt lat="45.45619" lon="3.45627">
        <ele>812.4</ele>
        <time>2015-09-27T10:07:06Z</time>
      </trkpt>
      <trkpt lat="45.45627" lon="3.45626">
        <ele>812.9</ele>
        <time>2015-09-27T10:07:08Z</time>
      </trkpt>
      <trkpt lat="45.45635" lon="3.45625">
        <ele>813.1</ele>
        <time>2015-09-27T10:07:10Z</time>
      </trkpt>
      <trkpt lat="45.45642" lon="3.45624">
        <ele>813.7</ele>
        <time>2015-09-27T10:07:12Z</time>
      </trkpt>
      <trkpt lat="45.4565" lon="3.45624">
        <ele>814.3</ele>
        <time>2015-09-27T10:07:14Z</time>
      </trkpt>
      <trkpt lat="45.45658" lon="3.45624">
        <ele>814.8</ele>
        <time>2015-09-27T10:07:16Z</time>
      </trkpt>
      <trkpt lat="45.45667" lon="3.45625">
        <ele>814.5</ele>
        <time>2015-09-27T10:07:18Z</time>
      </trkpt>
      <trkpt lat="45.45674" lon="3.45625">
        <ele>814.2</ele>
        <time>2015-09-27T10:07:20Z</time>
      </trkpt>
      <trkpt lat="45.45682" lon="3.45625">
        <ele>814.2</ele>
        <time>2015-09-27T10:07:22Z</time>
      </trkpt>
      <trkpt lat="45.4569" lon="3.45625">
        <ele>814.2</ele>
        <time>2015-09-27T10:07:24Z</time>
      </trkpt>
      <trkpt lat="45.45698" lon="3.45626">
        <ele>814.1</ele>
        <time>2015-09-27T10:07:26Z</time>
      </trkpt>
      <trkpt lat="45.45705" lon="3.45625">
        <ele>814.5</ele>
        <time>2015-09-27T10:07:28Z</time>
      </trkpt>
      <trkpt lat="45.45713" lon="3.45624">
        <ele>815</ele>
        <time>2015-09-27T10:07:30Z</time>
      </trkpt>
      <trkpt lat="45.45721" lon="3.45624">
        <ele>815</ele>
        <time>2015-09-27T10:07:32Z</time>
      </trkpt>
      <trkpt lat="45.45728" lon="3.45625">
        <ele>815.4</ele>
        <time>2015-09-27T10:07:34Z</time>
      </trkpt>
      <trkpt lat="45.45735" lon="3.45625">
        <ele>816.2</ele>
        <time>2015-09-27T10:07:36Z</time>
      </trkpt>
      <trkpt lat="45.45742" lon="3.45624">
        <ele>816.9</ele>
        <time>2015-09-27T10:07:38Z</time>
      </trkpt>
      <trkpt lat="45.45749" lon="3.45622">
        <ele>816.1</ele>
        <time>2015-09-27T10:07:40Z</time>
      </trkpt>
      <trkpt lat="45.45757" lon="3.45618">
        <ele>816.2</ele>
        <time>2015-09-27T10:07:42Z</time>
      </trkpt>
      <trkpt lat="45.45764" lon="3.45617">
        <ele>816.1</ele>
        <time>2015-09-27T10:07:44Z</time>
      </trkpt>
      <trkpt lat="45.45771" lon="3.45616">
        <ele>816.1</ele>
        <time>2015-09-27T10:07:46Z</time>
      </trkpt>
      <trkpt lat="45.45779" lon="3.45618">
        <ele>816.3</ele>
        <time>2015-09-27T10:07:48Z</time>
      </trkpt>
      <trkpt lat="45.45786" lon="3.45624">
        <ele>817.1</ele>
        <time>2015-09-27T10:07:50Z</time>
      </trkpt>
      <trkpt lat="45.4579" lon="3.45628">
        <ele>817.6</ele>
        <time>2015-09-27T10:07:51Z</time>
      </trkpt>
      <trkpt lat="45.45794" lon="3.45631">
        <ele>817.9</ele>
        <time>2015-09-27T10:07:52Z</time>
      </trkpt>
      <trkpt lat="45.45805" lon="3.45637">
        <ele>819.6</ele>
        <time>2015-09-27T10:07:55Z</time>
      </trkpt>
      <trkpt lat="45.45813" lon="3.45639">
        <ele>820.4</ele>
        <time>2015-09-27T10:07:57Z</time>
      </trkpt>
      <trkpt lat="45.4582" lon="3.45642">
        <ele>821.5</ele>
        <time>2015-09-27T10:07:59Z</time>
      </trkpt>
      <trkpt lat="45.45828" lon="3.45645">
        <ele>823.4</ele>
        <time>2015-09-27T10:08:01Z</time>
      </trkpt>
      <trkpt lat="45.45835" lon="3.45648">
        <ele>824.5</ele>
        <time>2015-09-27T10:08:03Z</time>
      </trkpt>
      <trkpt lat="45.45843" lon="3.45654">
        <ele>825</ele>
        <time>2015-09-27T10:08:05Z</time>
      </trkpt>
      <trkpt lat="45.4585" lon="3.45661">
        <ele>825.9</ele>
        <time>2015-09-27T10:08:07Z</time>
      </trkpt>
      <trkpt lat="45.45857" lon="3.45666">
        <ele>827.2</ele>
        <time>2015-09-27T10:08:09Z</time>
      </trkpt>
      <trkpt lat="45.45863" lon="3.45671">
        <ele>828.1</ele>
        <time>2015-09-27T10:08:11Z</time>
      </trkpt>
      <trkpt lat="45.45871" lon="3.45678">
        <ele>831.3</ele>
        <time>2015-09-27T10:08:15Z</time>
      </trkpt>
      <trkpt lat="45.45878" lon="3.45685">
        <ele>832.4</ele>
        <time>2015-09-27T10:08:21Z</time>
      </trkpt>
      <trkpt lat="45.45886" lon="3.4569">
        <ele>833.4</ele>
        <time>2015-09-27T10:08:27Z</time>
      </trkpt>
      <trkpt lat="45.45895" lon="3.45693">
        <ele>834</ele>
        <time>2015-09-27T10:08:33Z</time>
      </trkpt>
      <trkpt lat="45.45903" lon="3.45693">
        <ele>834.7</ele>
        <time>2015-09-27T10:08:39Z</time>
      </trkpt>
      <trkpt lat="45.45911" lon="3.45693">
        <ele>835.5</ele>
        <time>2015-09-27T10:08:45Z</time>
      </trkpt>
      <trkpt lat="45.45919" lon="3.45697">
        <ele>835.1</ele>
        <time>2015-09-27T10:08:52Z</time>
      </trkpt>
      <trkpt lat="45.4592" lon="3.45698">
        <ele>834.7</ele>
        <time>2015-09-27T10:08:53Z</time>
      </trkpt>
      <trkpt lat="45.45933" lon="3.45707">
        <ele>836.9</ele>
        <time>2015-09-27T10:09:04Z</time>
      </trkpt>
      <trkpt lat="45.45941" lon="3.45715">
        <ele>838.2</ele>
        <time>2015-09-27T10:09:10Z</time>
      </trkpt>
      <trkpt lat="45.45947" lon="3.45722">
        <ele>838.7</ele>
        <time>2015-09-27T10:09:16Z</time>
      </trkpt>
      <trkpt lat="45.45953" lon="3.4573">
        <ele>840.6</ele>
        <time>2015-09-27T10:09:23Z</time>
      </trkpt>
      <trkpt lat="45.45959" lon="3.45738">
        <ele>840.8</ele>
        <time>2015-09-27T10:09:29Z</time>
      </trkpt>
      <trkpt lat="45.45966" lon="3.45745">
        <ele>842.1</ele>
        <time>2015-09-27T10:09:37Z</time>
      </trkpt>
      <trkpt lat="45.45973" lon="3.45752">
        <ele>842.8</ele>
        <time>2015-09-27T10:09:44Z</time>
      </trkpt>
      <trkpt lat="45.45979" lon="3.4576">
        <ele>842.9</ele>
        <time>2015-09-27T10:09:51Z</time>
      </trkpt>
      <trkpt lat="45.45986" lon="3.45765">
        <ele>843</ele>
        <time>2015-09-27T10:09:57Z</time>
      </trkpt>
      <trkpt lat="45.45987" lon="3.45766">
        <ele>842.9</ele>
        <time>2015-09-27T10:09:58Z</time>
      </trkpt>
      <trkpt lat="45.46001" lon="3.45777">
        <ele>845.3</ele>
        <time>2015-09-27T10:10:12Z</time>
      </trkpt>
      <trkpt lat="45.46009" lon="3.45783">
        <ele>846.4</ele>
        <time>2015-09-27T10:10:20Z</time>
      </trkpt>
      <trkpt lat="45.46016" lon="3.45787">
        <ele>847.2</ele>
        <time>2015-09-27T10:10:26Z</time>
      </trkpt>
      <trkpt lat="45.46023" lon="3.45792">
        <ele>848.3</ele>
        <time>2015-09-27T10:10:31Z</time>
      </trkpt>
      <trkpt lat="45.4603" lon="3.45796">
        <ele>847.7</ele>
        <time>2015-09-27T10:10:36Z</time>
      </trkpt>
      <trkpt lat="45.46038" lon="3.45801">
        <ele>850.3</ele>
        <time>2015-09-27T10:10:42Z</time>
      </trkpt>
      <trkpt lat="45.46046" lon="3.45806">
        <ele>852</ele>
        <time>2015-09-27T10:10:48Z</time>
      </trkpt>
      <trkpt lat="45.46055" lon="3.4581">
        <ele>852.8</ele>
        <time>2015-09-27T10:10:54Z</time>
      </trkpt>
      <trkpt lat="45.46062" lon="3.45815">
        <ele>853.2</ele>
        <time>2015-09-27T10:11:00Z</time>
      </trkpt>
      <trkpt lat="45.46063" lon="3.45816">
        <ele>853.3</ele>
        <time>2015-09-27T10:11:01Z</time>
      </trkpt>
      <trkpt lat="45.46078" lon="3.45823">
        <ele>854.6</ele>
        <time>2015-09-27T10:11:12Z</time>
      </trkpt>
      <trkpt lat="45.46086" lon="3.45827">
        <ele>854.9</ele>
        <time>2015-09-27T10:11:18Z</time>
      </trkpt>
      <trkpt lat="45.46094" lon="3.45831">
        <ele>856.8</ele>
        <time>2015-09-27T10:11:24Z</time>
      </trkpt>
      <trkpt lat="45.46102" lon="3.45834">
        <ele>856.6</ele>
        <time>2015-09-27T10:11:30Z</time>
      </trkpt>
      <trkpt lat="45.4611" lon="3.45837">
        <ele>858.5</ele>
        <time>2015-09-27T10:11:37Z</time>
      </trkpt>
      <trkpt lat="45.46118" lon="3.45839">
        <ele>859.1</ele>
        <time>2015-09-27T10:11:44Z</time>
      </trkpt>
      <trkpt lat="45.46127" lon="3.45841">
        <ele>860</ele>
        <time>2015-09-27T10:11:51Z</time>
      </trkpt>
      <trkpt lat="45.46135" lon="3.45842">
        <ele>860.3</ele>
        <time>2015-09-27T10:11:58Z</time>
      </trkpt>
      <trkpt lat="45.46143" lon="3.45841">
        <ele>861.6</ele>
        <time>2015-09-27T10:12:06Z</time>
      </trkpt>
      <trkpt lat="45.46144" lon="3.45841">
        <ele>861.5</ele>
        <time>2015-09-27T10:12:07Z</time>
      </trkpt>
      <trkpt lat="45.4616" lon="3.45838">
        <ele>863.3</ele>
        <time>2015-09-27T10:12:21Z</time>
      </trkpt>
      <trkpt lat="45.46168" lon="3.45835">
        <ele>863.7</ele>
        <time>2015-09-27T10:12:28Z</time>
      </trkpt>
      <trkpt lat="45.46176" lon="3.4583">
        <ele>864.4</ele>
        <time>2015-09-27T10:12:35Z</time>
      </trkpt>
      <trkpt lat="45.46184" lon="3.45824">
        <ele>864.4</ele>
        <time>2015-09-27T10:12:42Z</time>
      </trkpt>
      <trkpt lat="45.46191" lon="3.45817">
        <ele>864.2</ele>
        <time>2015-09-27T10:12:49Z</time>
      </trkpt>
      <trkpt lat="45.46198" lon="3.45811">
        <ele>865.3</ele>
        <time>2015-09-27T10:12:56Z</time>
      </trkpt>
      <trkpt lat="45.46205" lon="3.45804">
        <ele>864.9</ele>
        <time>2015-09-27T10:13:05Z</time>
      </trkpt>
      <trkpt lat="45.46213" lon="3.45799">
        <ele>863.1</ele>
        <time>2015-09-27T10:13:15Z</time>
      </trkpt>
      <trkpt lat="45.46214" lon="3.45798">
        <ele>863</ele>
        <time>2015-09-27T10:13:16Z</time>
      </trkpt>
      <trkpt lat="45.46229" lon="3.45793">
        <ele>861.7</ele>
        <time>2015-09-27T10:13:33Z</time>
      </trkpt>
      <trkpt lat="45.46238" lon="3.45791">
        <ele>862.8</ele>
        <time>2015-09-27T10:13:42Z</time>
      </trkpt>
      <trkpt lat="45.46246" lon="3.45792">
        <ele>862.3</ele>
        <time>2015-09-27T10:13:51Z</time>
      </trkpt>
      <trkpt lat="45.46255" lon="3.45794">
        <ele>861.4</ele>
        <time>2015-09-27T10:14:05Z</time>
      </trkpt>
      <trkpt lat="45.46262" lon="3.45797">
        <ele>861.5</ele>
        <time>2015-09-27T10:14:12Z</time>
      </trkpt>
      <trkpt lat="45.46271" lon="3.45801">
        <ele>861.1</ele>
        <time>2015-09-27T10:14:19Z</time>
      </trkpt>
      <trkpt lat="45.46272" lon="3.45801">
        <ele>861.2</ele>
        <time>2015-09-27T10:14:20Z</time>
      </trkpt>
      <trkpt lat="45.46287" lon="3.45807">
        <ele>860.6</ele>
        <time>2015-09-27T10:14:32Z</time>
      </trkpt>
      <trkpt lat="45.46295" lon="3.45809">
        <ele>859.5</ele>
        <time>2015-09-27T10:15:21Z</time>
      </trkpt>
      <trkpt lat="45.46297" lon="3.4581">
        <ele>859.3</ele>
        <time>2015-09-27T10:15:22Z</time>
      </trkpt>
      <trkpt lat="45.46312" lon="3.45815">
        <ele>857.8</ele>
        <time>2015-09-27T10:15:35Z</time>
      </trkpt>
      <trkpt lat="45.46321" lon="3.45815">
        <ele>858</ele>
        <time>2015-09-27T10:15:41Z</time>
      </trkpt>
      <trkpt lat="45.46329" lon="3.45817">
        <ele>857.5</ele>
        <time>2015-09-27T10:15:47Z</time>
      </trkpt>
      <trkpt lat="45.46336" lon="3.45818">
        <ele>857.6</ele>
        <time>2015-09-27T10:15:53Z</time>
      </trkpt>
      <trkpt lat="45.46341" lon="3.45829">
        <ele>856.8</ele>
        <time>2015-09-27T10:16:04Z</time>
      </trkpt>
      <trkpt lat="45.46335" lon="3.45839">
        <ele>856.2</ele>
        <time>2015-09-27T10:16:11Z</time>
      </trkpt>
      <trkpt lat="45.46331" lon="3.45849">
        <ele>855</ele>
        <time>2015-09-27T10:16:18Z</time>
      </trkpt>
      <trkpt lat="45.46326" lon="3.45859">
        <ele>854.3</ele>
        <time>2015-09-27T10:16:25Z</time>
      </trkpt>
      <trkpt lat="45.46325" lon="3.4586">
        <ele>854.2</ele>
        <time>2015-09-27T10:16:26Z</time>
      </trkpt>
      <trkpt lat="45.46318" lon="3.45881">
        <ele>853.1</ele>
        <time>2015-09-27T10:16:38Z</time>
      </trkpt>
      <trkpt lat="45.46315" lon="3.45892">
        <ele>851.6</ele>
        <time>2015-09-27T10:16:44Z</time>
      </trkpt>
      <trkpt lat="45.46312" lon="3.45903">
        <ele>850.8</ele>
        <time>2015-09-27T10:16:50Z</time>
      </trkpt>
      <trkpt lat="45.4631" lon="3.45914">
        <ele>850.1</ele>
        <time>2015-09-27T10:16:56Z</time>
      </trkpt>
      <trkpt lat="45.46307" lon="3.45926">
        <ele>849.7</ele>
        <time>2015-09-27T10:17:02Z</time>
      </trkpt>
      <trkpt lat="45.46305" lon="3.45937">
        <ele>849.1</ele>
        <time>2015-09-27T10:17:08Z</time>
      </trkpt>
      <trkpt lat="45.46302" lon="3.45948">
        <ele>848.6</ele>
        <time>2015-09-27T10:17:14Z</time>
      </trkpt>
      <trkpt lat="45.46298" lon="3.45959">
        <ele>847.7</ele>
        <time>2015-09-27T10:17:20Z</time>
      </trkpt>
      <trkpt lat="45.46295" lon="3.45969">
        <ele>847.8</ele>
        <time>2015-09-27T10:17:26Z</time>
      </trkpt>
      <trkpt lat="45.46294" lon="3.45971">
        <ele>847.4</ele>
        <time>2015-09-27T10:17:27Z</time>
      </trkpt>
      <trkpt lat="45.46287" lon="3.4599">
        <ele>846.1</ele>
        <time>2015-09-27T10:17:38Z</time>
      </trkpt>
      <trkpt lat="45.46284" lon="3.46">
        <ele>845.7</ele>
        <time>2015-09-27T10:17:44Z</time>
      </trkpt>
      <trkpt lat="45.46281" lon="3.46011">
        <ele>844.6</ele>
        <time>2015-09-27T10:17:50Z</time>
      </trkpt>
      <trkpt lat="45.46277" lon="3.46022">
        <ele>845.3</ele>
        <time>2015-09-27T10:17:57Z</time>
      </trkpt>
      <trkpt lat="45.46273" lon="3.46032">
        <ele>844.4</ele>
        <time>2015-09-27T10:18:03Z</time>
      </trkpt>
      <trkpt lat="45.4627" lon="3.46042">
        <ele>845</ele>
        <time>2015-09-27T10:18:09Z</time>
      </trkpt>
      <trkpt lat="45.46267" lon="3.46053">
        <ele>843.1</ele>
        <time>2015-09-27T10:18:15Z</time>
      </trkpt>
      <trkpt lat="45.46263" lon="3.46063">
        <ele>843.1</ele>
        <time>2015-09-27T10:18:21Z</time>
      </trkpt>
      <trkpt lat="45.46259" lon="3.46074">
        <ele>842.7</ele>
        <time>2015-09-27T10:18:27Z</time>
      </trkpt>
      <trkpt lat="45.46256" lon="3.46085">
        <ele>842.4</ele>
        <time>2015-09-27T10:18:33Z</time>
      </trkpt>
      <trkpt lat="45.46255" lon="3.46087">
        <ele>842</ele>
        <time>2015-09-27T10:18:34Z</time>
      </trkpt>
      <trkpt lat="45.46249" lon="3.46106">
        <ele>841.1</ele>
        <time>2015-09-27T10:18:45Z</time>
      </trkpt>
      <trkpt lat="45.46245" lon="3.46117">
        <ele>841.2</ele>
        <time>2015-09-27T10:18:51Z</time>
      </trkpt>
      <trkpt lat="45.46241" lon="3.46127">
        <ele>840.8</ele>
        <time>2015-09-27T10:18:57Z</time>
      </trkpt>
      <trkpt lat="45.46237" lon="3.46137">
        <ele>840.2</ele>
        <time>2015-09-27T10:19:03Z</time>
      </trkpt>
      <trkpt lat="45.46233" lon="3.46147">
        <ele>839.5</ele>
        <time>2015-09-27T10:19:09Z</time>
      </trkpt>
      <trkpt lat="45.46228" lon="3.46156">
        <ele>839.2</ele>
        <time>2015-09-27T10:19:15Z</time>
      </trkpt>
      <trkpt lat="45.46224" lon="3.46166">
        <ele>838.7</ele>
        <time>2015-09-27T10:19:31Z</time>
      </trkpt>
      <trkpt lat="45.46218" lon="3.46176">
        <ele>838.7</ele>
        <time>2015-09-27T10:19:38Z</time>
      </trkpt>
      <trkpt lat="45.46217" lon="3.46178">
        <ele>838.6</ele>
        <time>2015-09-27T10:19:39Z</time>
      </trkpt>
      <trkpt lat="45.46208" lon="3.46196">
        <ele>838.7</ele>
        <time>2015-09-27T10:19:51Z</time>
      </trkpt>
      <trkpt lat="45.46205" lon="3.46206">
        <ele>838.5</ele>
        <time>2015-09-27T10:20:02Z</time>
      </trkpt>
      <trkpt lat="45.46203" lon="3.46219">
        <ele>838.1</ele>
        <time>2015-09-27T10:20:10Z</time>
      </trkpt>
      <trkpt lat="45.462" lon="3.4623">
        <ele>838.9</ele>
        <time>2015-09-27T10:20:18Z</time>
      </trkpt>
      <trkpt lat="45.46199" lon="3.46242">
        <ele>839.7</ele>
        <time>2015-09-27T10:20:25Z</time>
      </trkpt>
      <trkpt lat="45.46197" lon="3.46255">
        <ele>840.3</ele>
        <time>2015-09-27T10:20:32Z</time>
      </trkpt>
      <trkpt lat="45.46196" lon="3.46267">
        <ele>839.5</ele>
        <time>2015-09-27T10:20:39Z</time>
      </trkpt>
      <trkpt lat="45.46195" lon="3.4628">
        <ele>839.7</ele>
        <time>2015-09-27T10:20:46Z</time>
      </trkpt>
      <trkpt lat="45.46195" lon="3.46281">
        <ele>839.7</ele>
        <time>2015-09-27T10:20:47Z</time>
      </trkpt>
      <trkpt lat="45.46195" lon="3.46304">
        <ele>836.9</ele>
        <time>2015-09-27T10:21:02Z</time>
      </trkpt>
      <trkpt lat="45.46194" lon="3.46315">
        <ele>836</ele>
        <time>2015-09-27T10:21:09Z</time>
      </trkpt>
      <trkpt lat="45.46192" lon="3.46328">
        <ele>835.1</ele>
        <time>2015-09-27T10:21:17Z</time>
      </trkpt>
      <trkpt lat="45.4619" lon="3.46339">
        <ele>833.6</ele>
        <time>2015-09-27T10:21:25Z</time>
      </trkpt>
      <trkpt lat="45.46186" lon="3.46349">
        <ele>832</ele>
        <time>2015-09-27T10:21:31Z</time>
      </trkpt>
      <trkpt lat="45.46182" lon="3.46359">
        <ele>829.9</ele>
        <time>2015-09-27T10:21:37Z</time>
      </trkpt>
      <trkpt lat="45.46176" lon="3.46367">
        <ele>829</ele>
        <time>2015-09-27T10:21:43Z</time>
      </trkpt>
      <trkpt lat="45.46169" lon="3.46372">
        <ele>828.3</ele>
        <time>2015-09-27T10:21:50Z</time>
      </trkpt>
      <trkpt lat="45.46168" lon="3.46372">
        <ele>827.7</ele>
        <time>2015-09-27T10:21:51Z</time>
      </trkpt>
      <trkpt lat="45.46153" lon="3.46381">
        <ele>825.4</ele>
        <time>2015-09-27T10:22:04Z</time>
      </trkpt>
      <trkpt lat="45.46146" lon="3.46388">
        <ele>823.9</ele>
        <time>2015-09-27T10:22:10Z</time>
      </trkpt>
      <trkpt lat="45.46139" lon="3.46394">
        <ele>822.5</ele>
        <time>2015-09-27T10:22:16Z</time>
      </trkpt>
      <trkpt lat="45.46132" lon="3.46401">
        <ele>820.7</ele>
        <time>2015-09-27T10:22:22Z</time>
      </trkpt>
      <trkpt lat="45.46127" lon="3.46409">
        <ele>820.4</ele>
        <time>2015-09-27T10:22:28Z</time>
      </trkpt>
      <trkpt lat="45.46121" lon="3.46418">
        <ele>818.9</ele>
        <time>2015-09-27T10:22:34Z</time>
      </trkpt>
      <trkpt lat="45.46116" lon="3.46427">
        <ele>818</ele>
        <time>2015-09-27T10:22:40Z</time>
      </trkpt>
      <trkpt lat="45.4611" lon="3.46437">
        <ele>817.5</ele>
        <time>2015-09-27T10:22:47Z</time>
      </trkpt>
      <trkpt lat="45.46106" lon="3.46447">
        <ele>816.5</ele>
        <time>2015-09-27T10:22:53Z</time>
      </trkpt>
      <trkpt lat="45.46105" lon="3.46449">
        <ele>816.3</ele>
        <time>2015-09-27T10:22:54Z</time>
      </trkpt>
      <trkpt lat="45.46103" lon="3.46471">
        <ele>813.9</ele>
        <time>2015-09-27T10:23:20Z</time>
      </trkpt>
      <trkpt lat="45.46103" lon="3.46482">
        <ele>813.6</ele>
        <time>2015-09-27T10:23:29Z</time>
      </trkpt>
      <trkpt lat="45.46103" lon="3.46494">
        <ele>812.9</ele>
        <time>2015-09-27T10:23:38Z</time>
      </trkpt>
      <trkpt lat="45.46101" lon="3.46506">
        <ele>810.6</ele>
        <time>2015-09-27T10:23:52Z</time>
      </trkpt>
      <trkpt lat="45.46098" lon="3.46518">
        <ele>809.3</ele>
        <time>2015-09-27T10:24:01Z</time>
      </trkpt>
      <trkpt lat="45.46097" lon="3.46519">
        <ele>809</ele>
        <time>2015-09-27T10:24:02Z</time>
      </trkpt>
      <trkpt lat="45.46092" lon="3.46541">
        <ele>806.8</ele>
        <time>2015-09-27T10:24:17Z</time>
      </trkpt>
      <trkpt lat="45.4609" lon="3.46553">
        <ele>805.8</ele>
        <time>2015-09-27T10:24:25Z</time>
      </trkpt>
      <trkpt lat="45.46086" lon="3.46563">
        <ele>805</ele>
        <time>2015-09-27T10:24:33Z</time>
      </trkpt>
      <trkpt lat="45.46084" lon="3.46574">
        <ele>803.9</ele>
        <time>2015-09-27T10:24:40Z</time>
      </trkpt>
      <trkpt lat="45.46081" lon="3.46586">
        <ele>802.8</ele>
        <time>2015-09-27T10:24:47Z</time>
      </trkpt>
      <trkpt lat="45.46084" lon="3.46597">
        <ele>801.8</ele>
        <time>2015-09-27T10:25:10Z</time>
      </trkpt>
      <trkpt lat="45.46085" lon="3.46598">
        <ele>801.6</ele>
        <time>2015-09-27T10:25:11Z</time>
      </trkpt>
      <trkpt lat="45.46099" lon="3.4661">
        <ele>800</ele>
        <time>2015-09-27T10:25:25Z</time>
      </trkpt>
      <trkpt lat="45.46107" lon="3.4661">
        <ele>799.1</ele>
        <time>2015-09-27T10:25:31Z</time>
      </trkpt>
      <trkpt lat="45.46115" lon="3.46606">
        <ele>797.6</ele>
        <time>2015-09-27T10:25:39Z</time>
      </trkpt>
      <trkpt lat="45.46122" lon="3.46599">
        <ele>796.6</ele>
        <time>2015-09-27T10:25:48Z</time>
      </trkpt>
      <trkpt lat="45.46129" lon="3.46593">
        <ele>795.1</ele>
        <time>2015-09-27T10:25:56Z</time>
      </trkpt>
      <trkpt lat="45.46138" lon="3.46589">
        <ele>792.2</ele>
        <time>2015-09-27T10:26:06Z</time>
      </trkpt>
      <trkpt lat="45.46145" lon="3.46582">
        <ele>791.9</ele>
        <time>2015-09-27T10:26:30Z</time>
      </trkpt>
      <trkpt lat="45.46146" lon="3.46581">
        <ele>791.5</ele>
        <time>2015-09-27T10:26:31Z</time>
      </trkpt>
      <trkpt lat="45.46161" lon="3.46573">
        <ele>787.9</ele>
        <time>2015-09-27T10:26:50Z</time>
      </trkpt>
      <trkpt lat="45.46169" lon="3.46576">
        <ele>784.4</ele>
        <time>2015-09-27T10:26:59Z</time>
      </trkpt>
      <trkpt lat="45.46177" lon="3.46581">
        <ele>782.3</ele>
        <time>2015-09-27T10:27:10Z</time>
      </trkpt>
      <trkpt lat="45.46183" lon="3.46589">
        <ele>781.9</ele>
        <time>2015-09-27T10:27:17Z</time>
      </trkpt>
      <trkpt lat="45.46189" lon="3.46598">
        <ele>780</ele>
        <time>2015-09-27T10:27:25Z</time>
      </trkpt>
      <trkpt lat="45.46194" lon="3.46607">
        <ele>777.5</ele>
        <time>2015-09-27T10:27:32Z</time>
      </trkpt>
      <trkpt lat="45.46195" lon="3.46608">
        <ele>777.4</ele>
        <time>2015-09-27T10:27:33Z</time>
      </trkpt>
      <trkpt lat="45.46205" lon="3.46625">
        <ele>774.1</ele>
        <time>2015-09-27T10:27:48Z</time>
      </trkpt>
      <trkpt lat="45.4621" lon="3.46634">
        <ele>773.2</ele>
        <time>2015-09-27T10:27:55Z</time>
      </trkpt>
      <trkpt lat="45.46214" lon="3.46644">
        <ele>771.6</ele>
        <time>2015-09-27T10:28:01Z</time>
      </trkpt>
      <trkpt lat="45.46219" lon="3.46654">
        <ele>770</ele>
        <time>2015-09-27T10:28:07Z</time>
      </trkpt>
      <trkpt lat="45.46223" lon="3.46664">
        <ele>768.3</ele>
        <time>2015-09-27T10:28:14Z</time>
      </trkpt>
      <trkpt lat="45.46228" lon="3.46674">
        <ele>768.2</ele>
        <time>2015-09-27T10:28:20Z</time>
      </trkpt>
      <trkpt lat="45.46232" lon="3.46683">
        <ele>766.3</ele>
        <time>2015-09-27T10:28:26Z</time>
      </trkpt>
      <trkpt lat="45.46236" lon="3.46694">
        <ele>765</ele>
        <time>2015-09-27T10:28:32Z</time>
      </trkpt>
      <trkpt lat="45.46241" lon="3.46704">
        <ele>764.1</ele>
        <time>2015-09-27T10:28:39Z</time>
      </trkpt>
      <trkpt lat="45.46241" lon="3.46706">
        <ele>764.1</ele>
        <time>2015-09-27T10:28:40Z</time>
      </trkpt>
      <trkpt lat="45.4625" lon="3.46724">
        <ele>762.1</ele>
        <time>2015-09-27T10:28:59Z</time>
      </trkpt>
      <trkpt lat="45.46257" lon="3.46732">
        <ele>760.5</ele>
        <time>2015-09-27T10:29:12Z</time>
      </trkpt>
      <trkpt lat="45.46259" lon="3.46745">
        <ele>761.6</ele>
        <time>2015-09-27T10:29:45Z</time>
      </trkpt>
      <trkpt lat="45.46259" lon="3.46745">
        <ele>761.6</ele>
        <time>2015-09-27T10:29:46Z</time>
      </trkpt>
      <trkpt lat="45.46256" lon="3.46769">
        <ele>761.3</ele>
        <time>2015-09-27T10:30:36Z</time>
      </trkpt>
      <trkpt lat="45.4626" lon="3.46781">
        <ele>761.5</ele>
        <time>2015-09-27T10:31:24Z</time>
      </trkpt>
      <trkpt lat="45.4626" lon="3.46782">
        <ele>761.1</ele>
        <time>2015-09-27T10:31:25Z</time>
      </trkpt>
      <trkpt lat="45.46245" lon="3.46781">
        <ele>764.3</ele>
        <time>2015-09-27T10:32:06Z</time>
      </trkpt>
      <trkpt lat="45.46239" lon="3.46773">
        <ele>767</ele>
        <time>2015-09-27T10:32:14Z</time>
      </trkpt>
      <trkpt lat="45.46232" lon="3.46769">
        <ele>767.6</ele>
        <time>2015-09-27T10:32:18Z</time>
      </trkpt>
      <trkpt lat="45.46224" lon="3.46765">
        <ele>768.4</ele>
        <time>2015-09-27T10:32:22Z</time>
      </trkpt>
      <trkpt lat="45.46215" lon="3.46764">
        <ele>769.4</ele>
        <time>2015-09-27T10:32:27Z</time>
      </trkpt>
      <trkpt lat="45.46213" lon="3.46764">
        <ele>769.6</ele>
        <time>2015-09-27T10:32:28Z</time>
      </trkpt>
      <trkpt lat="45.46198" lon="3.46759">
        <ele>773.9</ele>
        <time>2015-09-27T10:32:35Z</time>
      </trkpt>
      <trkpt lat="45.46189" lon="3.46759">
        <ele>775.3</ele>
        <time>2015-09-27T10:32:39Z</time>
      </trkpt>
      <trkpt lat="45.46181" lon="3.46759">
        <ele>776.4</ele>
        <time>2015-09-27T10:32:43Z</time>
      </trkpt>
      <trkpt lat="45.46173" lon="3.46761">
        <ele>777.7</ele>
        <time>2015-09-27T10:32:46Z</time>
      </trkpt>
      <trkpt lat="45.46167" lon="3.46766">
        <ele>778.8</ele>
        <time>2015-09-27T10:32:50Z</time>
      </trkpt>
      <trkpt lat="45.46161" lon="3.46775">
        <ele>779.6</ele>
        <time>2015-09-27T10:32:55Z</time>
      </trkpt>
      <trkpt lat="45.46156" lon="3.46784">
        <ele>780</ele>
        <time>2015-09-27T10:33:02Z</time>
      </trkpt>
      <trkpt lat="45.46152" lon="3.46793">
        <ele>779.9</ele>
        <time>2015-09-27T10:33:10Z</time>
      </trkpt>
      <trkpt lat="45.46146" lon="3.46802">
        <ele>778</ele>
        <time>2015-09-27T10:33:18Z</time>
      </trkpt>
      <trkpt lat="45.46138" lon="3.46807">
        <ele>775.2</ele>
        <time>2015-09-27T10:33:27Z</time>
      </trkpt>
      <trkpt lat="45.46131" lon="3.46814">
        <ele>773.9</ele>
        <time>2015-09-27T10:33:38Z</time>
      </trkpt>
      <trkpt lat="45.4613" lon="3.46814">
        <ele>773.5</ele>
        <time>2015-09-27T10:33:39Z</time>
      </trkpt>
      <trkpt lat="45.46115" lon="3.46822">
        <ele>768.8</ele>
        <time>2015-09-27T10:33:54Z</time>
      </trkpt>
      <trkpt lat="45.46107" lon="3.46822">
        <ele>768</ele>
        <time>2015-09-27T10:34:00Z</time>
      </trkpt>
      <trkpt lat="45.46099" lon="3.46824">
        <ele>765.6</ele>
        <time>2015-09-27T10:34:07Z</time>
      </trkpt>
      <trkpt lat="45.46084" lon="3.46824">
        <ele>761</ele>
        <time>2015-09-27T10:34:16Z</time>
      </trkpt>
      <trkpt lat="45.46071" lon="3.46826">
        <ele>760</ele>
        <time>2015-09-27T10:34:24Z</time>
      </trkpt>
      <trkpt lat="45.46062" lon="3.46826">
        <ele>760.9</ele>
        <time>2015-09-27T10:34:30Z</time>
      </trkpt>
      <trkpt lat="45.46054" lon="3.46827">
        <ele>760.9</ele>
        <time>2015-09-27T10:34:36Z</time>
      </trkpt>
      <trkpt lat="45.46046" lon="3.46829">
        <ele>760.4</ele>
        <time>2015-09-27T10:34:43Z</time>
      </trkpt>
      <trkpt lat="45.46045" lon="3.4683">
        <ele>760.3</ele>
        <time>2015-09-27T10:34:44Z</time>
      </trkpt>
      <trkpt lat="45.46029" lon="3.46833">
        <ele>760.2</ele>
        <time>2015-09-27T10:34:54Z</time>
      </trkpt>
      <trkpt lat="45.46021" lon="3.46831">
        <ele>760.4</ele>
        <time>2015-09-27T10:34:59Z</time>
      </trkpt>
      <trkpt lat="45.46012" lon="3.46833">
        <ele>760.4</ele>
        <time>2015-09-27T10:35:07Z</time>
      </trkpt>
      <trkpt lat="45.46004" lon="3.46834">
        <ele>759</ele>
        <time>2015-09-27T10:35:13Z</time>
      </trkpt>
      <trkpt lat="45.45995" lon="3.46832">
        <ele>755.9</ele>
        <time>2015-09-27T10:35:21Z</time>
      </trkpt>
      <trkpt lat="45.45987" lon="3.46829">
        <ele>755.6</ele>
        <time>2015-09-27T10:35:29Z</time>
      </trkpt>
      <trkpt lat="45.45978" lon="3.46828">
        <ele>752.8</ele>
        <time>2015-09-27T10:35:39Z</time>
      </trkpt>
      <trkpt lat="45.4597" lon="3.46825">
        <ele>749.1</ele>
        <time>2015-09-27T10:35:47Z</time>
      </trkpt>
      <trkpt lat="45.45969" lon="3.46825">
        <ele>748.7</ele>
        <time>2015-09-27T10:35:48Z</time>
      </trkpt>
      <trkpt lat="45.45955" lon="3.46823">
        <ele>745.3</ele>
        <time>2015-09-27T10:36:00Z</time>
      </trkpt>
      <trkpt lat="45.45948" lon="3.46816">
        <ele>744.4</ele>
        <time>2015-09-27T10:36:07Z</time>
      </trkpt>
      <trkpt lat="45.45944" lon="3.46806">
        <ele>743.4</ele>
        <time>2015-09-27T10:36:14Z</time>
      </trkpt>
      <trkpt lat="45.45941" lon="3.46794">
        <ele>743.2</ele>
        <time>2015-09-27T10:36:19Z</time>
      </trkpt>
      <trkpt lat="45.45937" lon="3.46785">
        <ele>743.5</ele>
        <time>2015-09-27T10:36:23Z</time>
      </trkpt>
      <trkpt lat="45.45932" lon="3.46775">
        <ele>743.7</ele>
        <time>2015-09-27T10:36:27Z</time>
      </trkpt>
      <trkpt lat="45.45927" lon="3.46767">
        <ele>743.4</ele>
        <time>2015-09-27T10:36:31Z</time>
      </trkpt>
      <trkpt lat="45.45921" lon="3.4676">
        <ele>743.3</ele>
        <time>2015-09-27T10:36:35Z</time>
      </trkpt>
      <trkpt lat="45.45914" lon="3.46752">
        <ele>743</ele>
        <time>2015-09-27T10:36:42Z</time>
      </trkpt>
      <trkpt lat="45.45906" lon="3.46746">
        <ele>742.2</ele>
        <time>2015-09-27T10:36:52Z</time>
      </trkpt>
      <trkpt lat="45.45905" lon="3.46746">
        <ele>742.2</ele>
        <time>2015-09-27T10:36:53Z</time>
      </trkpt>
      <trkpt lat="45.45891" lon="3.46739">
        <ele>742.2</ele>
        <time>2015-09-27T10:37:06Z</time>
      </trkpt>
      <trkpt lat="45.45882" lon="3.46741">
        <ele>742.4</ele>
        <time>2015-09-27T10:37:12Z</time>
      </trkpt>
      <trkpt lat="45.45875" lon="3.46742">
        <ele>742.6</ele>
        <time>2015-09-27T10:37:16Z</time>
      </trkpt>
      <trkpt lat="45.45868" lon="3.46741">
        <ele>742.5</ele>
        <time>2015-09-27T10:37:20Z</time>
      </trkpt>
      <trkpt lat="45.4586" lon="3.4674">
        <ele>741.9</ele>
        <time>2015-09-27T10:37:24Z</time>
      </trkpt>
      <trkpt lat="45.45852" lon="3.46738">
        <ele>742.9</ele>
        <time>2015-09-27T10:37:28Z</time>
      </trkpt>
      <trkpt lat="45.45844" lon="3.46737">
        <ele>744</ele>
        <time>2015-09-27T10:37:33Z</time>
      </trkpt>
      <trkpt lat="45.45836" lon="3.46735">
        <ele>744.7</ele>
        <time>2015-09-27T10:37:39Z</time>
      </trkpt>
      <trkpt lat="45.45828" lon="3.46736">
        <ele>745.5</ele>
        <time>2015-09-27T10:37:47Z</time>
      </trkpt>
      <trkpt lat="45.4582" lon="3.46732">
        <ele>744.7</ele>
        <time>2015-09-27T10:38:00Z</time>
      </trkpt>
      <trkpt lat="45.45819" lon="3.46732">
        <ele>744.5</ele>
        <time>2015-09-27T10:38:01Z</time>
      </trkpt>
      <trkpt lat="45.45814" lon="3.4671">
        <ele>741.1</ele>
        <time>2015-09-27T10:38:24Z</time>
      </trkpt>
      <trkpt lat="45.45809" lon="3.46701">
        <ele>740.8</ele>
        <time>2015-09-27T10:38:34Z</time>
      </trkpt>
      <trkpt lat="45.45803" lon="3.46693">
        <ele>740.9</ele>
        <time>2015-09-27T10:38:40Z</time>
      </trkpt>
      <trkpt lat="45.45796" lon="3.46686">
        <ele>741.4</ele>
        <time>2015-09-27T10:38:48Z</time>
      </trkpt>
      <trkpt lat="45.45789" lon="3.46678">
        <ele>743.3</ele>
        <time>2015-09-27T10:38:56Z</time>
      </trkpt>
      <trkpt lat="45.45785" lon="3.46668">
        <ele>745.5</ele>
        <time>2015-09-27T10:39:03Z</time>
      </trkpt>
      <trkpt lat="45.45785" lon="3.46666">
        <ele>745.5</ele>
        <time>2015-09-27T10:39:04Z</time>
      </trkpt>
      <trkpt lat="45.45779" lon="3.46645">
        <ele>747.4</ele>
        <time>2015-09-27T10:39:14Z</time>
      </trkpt>
      <trkpt lat="45.45775" lon="3.46635">
        <ele>748.9</ele>
        <time>2015-09-27T10:39:18Z</time>
      </trkpt>
      <trkpt lat="45.4577" lon="3.46626">
        <ele>750.9</ele>
        <time>2015-09-27T10:39:24Z</time>
      </trkpt>
      <trkpt lat="45.45764" lon="3.46617">
        <ele>753.6</ele>
        <time>2015-09-27T10:39:30Z</time>
      </trkpt>
      <trkpt lat="45.45756" lon="3.46614">
        <ele>754.8</ele>
        <time>2015-09-27T10:39:35Z</time>
      </trkpt>
      <trkpt lat="45.45749" lon="3.46613">
        <ele>756.3</ele>
        <time>2015-09-27T10:39:39Z</time>
      </trkpt>
      <trkpt lat="45.45742" lon="3.46613">
        <ele>757.4</ele>
        <time>2015-09-27T10:39:43Z</time>
      </trkpt>
      <trkpt lat="45.45734" lon="3.46611">
        <ele>758.5</ele>
        <time>2015-09-27T10:39:47Z</time>
      </trkpt>
      <trkpt lat="45.45726" lon="3.4661">
        <ele>759.6</ele>
        <time>2015-09-27T10:39:51Z</time>
      </trkpt>
      <trkpt lat="45.45718" lon="3.46609">
        <ele>760.4</ele>
        <time>2015-09-27T10:39:55Z</time>
      </trkpt>
      <trkpt lat="45.4571" lon="3.46606">
        <ele>763</ele>
        <time>2015-09-27T10:40:00Z</time>
      </trkpt>
      <trkpt lat="45.45702" lon="3.46603">
        <ele>764.2</ele>
        <time>2015-09-27T10:40:06Z</time>
      </trkpt>
      <trkpt lat="45.45701" lon="3.46602">
        <ele>764.3</ele>
        <time>2015-09-27T10:40:07Z</time>
      </trkpt>
      <trkpt lat="45.45686" lon="3.46593">
        <ele>766.9</ele>
        <time>2015-09-27T10:40:18Z</time>
      </trkpt>
      <trkpt lat="45.45679" lon="3.46588">
        <ele>767.6</ele>
        <time>2015-09-27T10:40:23Z</time>
      </trkpt>
      <trkpt lat="45.45671" lon="3.46583">
        <ele>768.1</ele>
        <time>2015-09-27T10:40:29Z</time>
      </trkpt>
      <trkpt lat="45.45664" lon="3.46578">
        <ele>768.2</ele>
        <time>2015-09-27T10:40:35Z</time>
      </trkpt>
      <trkpt lat="45.45656" lon="3.46573">
        <ele>769</ele>
        <time>2015-09-27T10:40:41Z</time>
      </trkpt>
      <trkpt lat="45.45647" lon="3.46569">
        <ele>770.1</ele>
        <time>2015-09-27T10:40:48Z</time>
      </trkpt>
      <trkpt lat="45.45639" lon="3.46564">
        <ele>770.4</ele>
        <time>2015-09-27T10:40:54Z</time>
      </trkpt>
      <trkpt lat="45.45631" lon="3.46561">
        <ele>770.2</ele>
        <time>2015-09-27T10:41:00Z</time>
      </trkpt>
      <trkpt lat="45.45624" lon="3.46557">
        <ele>770.9</ele>
        <time>2015-09-27T10:41:05Z</time>
      </trkpt>
      <trkpt lat="45.45616" lon="3.46553">
        <ele>770.7</ele>
        <time>2015-09-27T10:41:10Z</time>
      </trkpt>
      <trkpt lat="45.45615" lon="3.46552">
        <ele>770.8</ele>
        <time>2015-09-27T10:41:11Z</time>
      </trkpt>
      <trkpt lat="45.456" lon="3.46548">
        <ele>771.9</ele>
        <time>2015-09-27T10:41:22Z</time>
      </trkpt>
      <trkpt lat="45.45592" lon="3.46547">
        <ele>771.5</ele>
        <time>2015-09-27T10:41:29Z</time>
      </trkpt>
      <trkpt lat="45.45584" lon="3.46546">
        <ele>770.6</ele>
        <time>2015-09-27T10:41:35Z</time>
      </trkpt>
      <trkpt lat="45.45575" lon="3.46547">
        <ele>769.7</ele>
        <time>2015-09-27T10:41:41Z</time>
      </trkpt>
      <trkpt lat="45.45567" lon="3.46548">
        <ele>769.8</ele>
        <time>2015-09-27T10:41:48Z</time>
      </trkpt>
      <trkpt lat="45.45558" lon="3.46548">
        <ele>768.8</ele>
        <time>2015-09-27T10:41:56Z</time>
      </trkpt>
      <trkpt lat="45.4555" lon="3.46542">
        <ele>768.9</ele>
        <time>2015-09-27T10:42:04Z</time>
      </trkpt>
      <trkpt lat="45.45543" lon="3.46538">
        <ele>769.2</ele>
        <time>2015-09-27T10:42:10Z</time>
      </trkpt>
      <trkpt lat="45.45536" lon="3.4653">
        <ele>770.7</ele>
        <time>2015-09-27T10:42:16Z</time>
      </trkpt>
      <trkpt lat="45.45535" lon="3.46529">
        <ele>771.1</ele>
        <time>2015-09-27T10:42:17Z</time>
      </trkpt>
      <trkpt lat="45.45526" lon="3.46512">
        <ele>770.2</ele>
        <time>2015-09-27T10:42:28Z</time>
      </trkpt>
      <trkpt lat="45.45523" lon="3.46501">
        <ele>770.6</ele>
        <time>2015-09-27T10:42:35Z</time>
      </trkpt>
      <trkpt lat="45.45521" lon="3.46489">
        <ele>772.5</ele>
        <time>2015-09-27T10:42:42Z</time>
      </trkpt>
      <trkpt lat="45.45519" lon="3.46477">
        <ele>773</ele>
        <time>2015-09-27T10:42:50Z</time>
      </trkpt>
      <trkpt lat="45.45516" lon="3.46466">
        <ele>774</ele>
        <time>2015-09-27T10:42:57Z</time>
      </trkpt>
      <trkpt lat="45.45513" lon="3.46455">
        <ele>775.1</ele>
        <time>2015-09-27T10:43:05Z</time>
      </trkpt>
      <trkpt lat="45.45509" lon="3.46444">
        <ele>775.9</ele>
        <time>2015-09-27T10:43:11Z</time>
      </trkpt>
      <trkpt lat="45.45505" lon="3.46434">
        <ele>776.5</ele>
        <time>2015-09-27T10:43:18Z</time>
      </trkpt>
      <trkpt lat="45.45504" lon="3.46433">
        <ele>776.3</ele>
        <time>2015-09-27T10:43:19Z</time>
      </trkpt>
      <trkpt lat="45.45492" lon="3.46419">
        <ele>779.5</ele>
        <time>2015-09-27T10:43:38Z</time>
      </trkpt>
      <trkpt lat="45.45485" lon="3.46411">
        <ele>779.6</ele>
        <time>2015-09-27T10:43:52Z</time>
      </trkpt>
      <trkpt lat="45.45477" lon="3.46407">
        <ele>780.1</ele>
        <time>2015-09-27T10:44:06Z</time>
      </trkpt>
      <trkpt lat="45.45469" lon="3.46403">
        <ele>780.3</ele>
        <time>2015-09-27T10:44:23Z</time>
      </trkpt>
      <trkpt lat="45.45468" lon="3.46403">
        <ele>780.4</ele>
        <time>2015-09-27T10:44:24Z</time>
      </trkpt>
      <trkpt lat="45.45461" lon="3.4638">
        <ele>779</ele>
        <time>2015-09-27T10:44:46Z</time>
      </trkpt>
      <trkpt lat="45.45468" lon="3.46388">
        <ele>779.7</ele>
        <time>2015-09-27T10:45:17Z</time>
      </trkpt>
      <trkpt lat="45.45472" lon="3.46398">
        <ele>779.7</ele>
        <time>2015-09-27T10:45:22Z</time>
      </trkpt>
      <trkpt lat="45.45475" lon="3.46408">
        <ele>780.5</ele>
        <time>2015-09-27T10:45:26Z</time>
      </trkpt>
      <trkpt lat="45.45475" lon="3.46411">
        <ele>780.7</ele>
        <time>2015-09-27T10:45:27Z</time>
      </trkpt>
      <trkpt lat="45.45479" lon="3.46429">
        <ele>782</ele>
        <time>2015-09-27T10:45:33Z</time>
      </trkpt>
      <trkpt lat="45.45481" lon="3.4644">
        <ele>785.2</ele>
        <time>2015-09-27T10:45:40Z</time>
      </trkpt>
      <trkpt lat="45.4548" lon="3.46452">
        <ele>786.4</ele>
        <time>2015-09-27T10:45:47Z</time>
      </trkpt>
      <trkpt lat="45.45481" lon="3.46463">
        <ele>787.6</ele>
        <time>2015-09-27T10:45:54Z</time>
      </trkpt>
      <trkpt lat="45.4548" lon="3.46476">
        <ele>788.3</ele>
        <time>2015-09-27T10:46:01Z</time>
      </trkpt>
      <trkpt lat="45.4548" lon="3.46488">
        <ele>790.4</ele>
        <time>2015-09-27T10:46:07Z</time>
      </trkpt>
      <trkpt lat="45.4548" lon="3.465">
        <ele>791.5</ele>
        <time>2015-09-27T10:46:14Z</time>
      </trkpt>
      <trkpt lat="45.45481" lon="3.46513">
        <ele>793.5</ele>
        <time>2015-09-27T10:46:21Z</time>
      </trkpt>
      <trkpt lat="45.45481" lon="3.46524">
        <ele>794.3</ele>
        <time>2015-09-27T10:46:26Z</time>
      </trkpt>
      <trkpt lat="45.45482" lon="3.46534">
        <ele>795.2</ele>
        <time>2015-09-27T10:46:29Z</time>
      </trkpt>
      <trkpt lat="45.45483" lon="3.46537">
        <ele>795.4</ele>
        <time>2015-09-27T10:46:30Z</time>
      </trkpt>
      <trkpt lat="45.45487" lon="3.46554">
        <ele>796.5</ele>
        <time>2015-09-27T10:46:34Z</time>
      </trkpt>
      <trkpt lat="45.45492" lon="3.46564">
        <ele>796.6</ele>
        <time>2015-09-27T10:46:36Z</time>
      </trkpt>
      <trkpt lat="45.45497" lon="3.46574">
        <ele>797.1</ele>
        <time>2015-09-27T10:46:38Z</time>
      </trkpt>
      <trkpt lat="45.45502" lon="3.46583">
        <ele>798.2</ele>
        <time>2015-09-27T10:46:40Z</time>
      </trkpt>
      <trkpt lat="45.45507" lon="3.46593">
        <ele>799</ele>
        <time>2015-09-27T10:46:42Z</time>
      </trkpt>
      <trkpt lat="45.45513" lon="3.46601">
        <ele>800.4</ele>
        <time>2015-09-27T10:46:44Z</time>
      </trkpt>
      <trkpt lat="45.45519" lon="3.46609">
        <ele>800.9</ele>
        <time>2015-09-27T10:46:46Z</time>
      </trkpt>
      <trkpt lat="45.45522" lon="3.46613">
        <ele>801.5</ele>
        <time>2015-09-27T10:46:47Z</time>
      </trkpt>
      <trkpt lat="45.45526" lon="3.46618">
        <ele>802</ele>
        <time>2015-09-27T10:46:48Z</time>
      </trkpt>
      <trkpt lat="45.45533" lon="3.46625">
        <ele>802.9</ele>
        <time>2015-09-27T10:46:50Z</time>
      </trkpt>
      <trkpt lat="45.45541" lon="3.46631">
        <ele>804.2</ele>
        <time>2015-09-27T10:46:52Z</time>
      </trkpt>
      <trkpt lat="45.45547" lon="3.4664">
        <ele>805.4</ele>
        <time>2015-09-27T10:46:54Z</time>
      </trkpt>
      <trkpt lat="45.45551" lon="3.46645">
        <ele>806.9</ele>
        <time>2015-09-27T10:46:55Z</time>
      </trkpt>
      <trkpt lat="45.45554" lon="3.4665">
        <ele>808</ele>
        <time>2015-09-27T10:46:56Z</time>
      </trkpt>
      <trkpt lat="45.45559" lon="3.46655">
        <ele>808.8</ele>
        <time>2015-09-27T10:46:57Z</time>
      </trkpt>
      <trkpt lat="45.45562" lon="3.46661">
        <ele>809.3</ele>
        <time>2015-09-27T10:46:58Z</time>
      </trkpt>
      <trkpt lat="45.45566" lon="3.46667">
        <ele>811.2</ele>
        <time>2015-09-27T10:46:59Z</time>
      </trkpt>
      <trkpt lat="45.45571" lon="3.46671">
        <ele>812.6</ele>
        <time>2015-09-27T10:47:00Z</time>
      </trkpt>
      <trkpt lat="45.45575" lon="3.46675">
        <ele>813.6</ele>
        <time>2015-09-27T10:47:01Z</time>
      </trkpt>
      <trkpt lat="45.4558" lon="3.4668">
        <ele>814.5</ele>
        <time>2015-09-27T10:47:02Z</time>
      </trkpt>
      <trkpt lat="45.45585" lon="3.46685">
        <ele>815.2</ele>
        <time>2015-09-27T10:47:03Z</time>
      </trkpt>
      <trkpt lat="45.45589" lon="3.46689">
        <ele>816.2</ele>
        <time>2015-09-27T10:47:04Z</time>
      </trkpt>
      <trkpt lat="45.45594" lon="3.46694">
        <ele>816.9</ele>
        <time>2015-09-27T10:47:05Z</time>
      </trkpt>
      <trkpt lat="45.45599" lon="3.46699">
        <ele>817.5</ele>
        <time>2015-09-27T10:47:06Z</time>
      </trkpt>
      <trkpt lat="45.45603" lon="3.46704">
        <ele>818.6</ele>
        <time>2015-09-27T10:47:07Z</time>
      </trkpt>
      <trkpt lat="45.45607" lon="3.46709">
        <ele>819.5</ele>
        <time>2015-09-27T10:47:08Z</time>
      </trkpt>
      <trkpt lat="45.45611" lon="3.46714">
        <ele>820.1</ele>
        <time>2015-09-27T10:47:09Z</time>
      </trkpt>
      <trkpt lat="45.45615" lon="3.46719">
        <ele>820.6</ele>
        <time>2015-09-27T10:47:10Z</time>
      </trkpt>
      <trkpt lat="45.45619" lon="3.46725">
        <ele>821.4</ele>
        <time>2015-09-27T10:47:11Z</time>
      </trkpt>
      <trkpt lat="45.45622" lon="3.46731">
        <ele>822.1</ele>
        <time>2015-09-27T10:47:12Z</time>
      </trkpt>
      <trkpt lat="45.45625" lon="3.46736">
        <ele>822.5</ele>
        <time>2015-09-27T10:47:13Z</time>
      </trkpt>
      <trkpt lat="45.4563" lon="3.46747">
        <ele>824.6</ele>
        <time>2015-09-27T10:47:15Z</time>
      </trkpt>
      <trkpt lat="45.45635" lon="3.46754">
        <ele>825.4</ele>
        <time>2015-09-27T10:47:17Z</time>
      </trkpt>
      <trkpt lat="45.45639" lon="3.46764">
        <ele>826</ele>
        <time>2015-09-27T10:47:20Z</time>
      </trkpt>
      <trkpt lat="45.4564" lon="3.46774">
        <ele>826.5</ele>
        <time>2015-09-27T10:47:23Z</time>
      </trkpt>
      <trkpt lat="45.45642" lon="3.46783">
        <ele>826.8</ele>
        <time>2015-09-27T10:47:25Z</time>
      </trkpt>
      <trkpt lat="45.45644" lon="3.46793">
        <ele>826.5</ele>
        <time>2015-09-27T10:47:27Z</time>
      </trkpt>
      <trkpt lat="45.45646" lon="3.46801">
        <ele>826.3</ele>
        <time>2015-09-27T10:47:29Z</time>
      </trkpt>
      <trkpt lat="45.4565" lon="3.46812">
        <ele>826.1</ele>
        <time>2015-09-27T10:47:31Z</time>
      </trkpt>
      <trkpt lat="45.45652" lon="3.46817">
        <ele>826.1</ele>
        <time>2015-09-27T10:47:32Z</time>
      </trkpt>
      <trkpt lat="45.45657" lon="3.46829">
        <ele>826.7</ele>
        <time>2015-09-27T10:47:35Z</time>
      </trkpt>
      <trkpt lat="45.45661" lon="3.46839">
        <ele>827.1</ele>
        <time>2015-09-27T10:47:37Z</time>
      </trkpt>
      <trkpt lat="45.45665" lon="3.46848">
        <ele>827.5</ele>
        <time>2015-09-27T10:47:39Z</time>
      </trkpt>
      <trkpt lat="45.45668" lon="3.46853">
        <ele>828.2</ele>
        <time>2015-09-27T10:47:40Z</time>
      </trkpt>
      <trkpt lat="45.45672" lon="3.46858">
        <ele>828.7</ele>
        <time>2015-09-27T10:47:41Z</time>
      </trkpt>
      <trkpt lat="45.45675" lon="3.46863">
        <ele>828.5</ele>
        <time>2015-09-27T10:47:42Z</time>
      </trkpt>
      <trkpt lat="45.45677" lon="3.46868">
        <ele>828.4</ele>
        <time>2015-09-27T10:47:43Z</time>
      </trkpt>
      <trkpt lat="45.45681" lon="3.46874">
        <ele>828.3</ele>
        <time>2015-09-27T10:47:44Z</time>
      </trkpt>
      <trkpt lat="45.45685" lon="3.46879">
        <ele>828.7</ele>
        <time>2015-09-27T10:47:45Z</time>
      </trkpt>
      <trkpt lat="45.45688" lon="3.46886">
        <ele>829.1</ele>
        <time>2015-09-27T10:47:46Z</time>
      </trkpt>
      <trkpt lat="45.45691" lon="3.46892">
        <ele>829.5</ele>
        <time>2015-09-27T10:47:47Z</time>
      </trkpt>
      <trkpt lat="45.45695" lon="3.46898">
        <ele>829.8</ele>
        <time>2015-09-27T10:47:48Z</time>
      </trkpt>
      <trkpt lat="45.45698" lon="3.46904">
        <ele>830.6</ele>
        <time>2015-09-27T10:47:49Z</time>
      </trkpt>
      <trkpt lat="45.457" lon="3.4691">
        <ele>831.2</ele>
        <time>2015-09-27T10:47:50Z</time>
      </trkpt>
      <trkpt lat="45.45703" lon="3.46916">
        <ele>831.7</ele>
        <time>2015-09-27T10:47:51Z</time>
      </trkpt>
      <trkpt lat="45.45705" lon="3.46928">
        <ele>833.7</ele>
        <time>2015-09-27T10:47:53Z</time>
      </trkpt>
      <trkpt lat="45.45707" lon="3.46939">
        <ele>836.4</ele>
        <time>2015-09-27T10:47:55Z</time>
      </trkpt>
      <trkpt lat="45.45708" lon="3.46952">
        <ele>838.6</ele>
        <time>2015-09-27T10:47:57Z</time>
      </trkpt>
      <trkpt lat="45.45709" lon="3.46963">
        <ele>840.2</ele>
        <time>2015-09-27T10:47:59Z</time>
      </trkpt>
      <trkpt lat="45.4571" lon="3.46974">
        <ele>843</ele>
        <time>2015-09-27T10:48:04Z</time>
      </trkpt>
      <trkpt lat="45.45713" lon="3.46985">
        <ele>843.7</ele>
        <time>2015-09-27T10:48:10Z</time>
      </trkpt>
      <trkpt lat="45.45715" lon="3.46996">
        <ele>846.1</ele>
        <time>2015-09-27T10:48:16Z</time>
      </trkpt>
      <trkpt lat="45.45718" lon="3.47007">
        <ele>846.9</ele>
        <time>2015-09-27T10:48:21Z</time>
      </trkpt>
      <trkpt lat="45.4572" lon="3.47017">
        <ele>848.7</ele>
        <time>2015-09-27T10:48:26Z</time>
      </trkpt>
      <trkpt lat="45.45721" lon="3.47029">
        <ele>849.7</ele>
        <time>2015-09-27T10:48:32Z</time>
      </trkpt>
      <trkpt lat="45.45721" lon="3.47031">
        <ele>850</ele>
        <time>2015-09-27T10:48:33Z</time>
      </trkpt>
      <trkpt lat="45.45728" lon="3.4705">
        <ele>851.8</ele>
        <time>2015-09-27T10:48:43Z</time>
      </trkpt>
      <trkpt lat="45.45733" lon="3.4706">
        <ele>853.3</ele>
        <time>2015-09-27T10:48:57Z</time>
      </trkpt>
      <trkpt lat="45.45741" lon="3.47066">
        <ele>853.6</ele>
        <time>2015-09-27T10:49:06Z</time>
      </trkpt>
      <trkpt lat="45.45748" lon="3.47069">
        <ele>855.2</ele>
        <time>2015-09-27T10:49:12Z</time>
      </trkpt>
      <trkpt lat="45.45757" lon="3.47073">
        <ele>855.7</ele>
        <time>2015-09-27T10:49:18Z</time>
      </trkpt>
      <trkpt lat="45.45764" lon="3.47079">
        <ele>857.1</ele>
        <time>2015-09-27T10:49:53Z</time>
      </trkpt>
      <trkpt lat="45.45765" lon="3.4708">
        <ele>857</ele>
        <time>2015-09-27T10:49:54Z</time>
      </trkpt>
      <trkpt lat="45.45771" lon="3.47094">
        <ele>859.6</ele>
        <time>2015-09-27T10:50:16Z</time>
      </trkpt>
      <trkpt lat="45.45767" lon="3.47105">
        <ele>861.5</ele>
        <time>2015-09-27T10:50:24Z</time>
      </trkpt>
      <trkpt lat="45.45768" lon="3.47117">
        <ele>862.9</ele>
        <time>2015-09-27T10:50:31Z</time>
      </trkpt>
      <trkpt lat="45.45768" lon="3.47129">
        <ele>864.2</ele>
        <time>2015-09-27T10:50:37Z</time>
      </trkpt>
      <trkpt lat="45.4577" lon="3.4714">
        <ele>865.4</ele>
        <time>2015-09-27T10:50:43Z</time>
      </trkpt>
      <trkpt lat="45.45771" lon="3.47152">
        <ele>866.9</ele>
        <time>2015-09-27T10:50:49Z</time>
      </trkpt>
      <trkpt lat="45.45773" lon="3.47164">
        <ele>868.2</ele>
        <time>2015-09-27T10:50:55Z</time>
      </trkpt>
      <trkpt lat="45.45773" lon="3.47166">
        <ele>868.6</ele>
        <time>2015-09-27T10:50:56Z</time>
      </trkpt>
      <trkpt lat="45.45774" lon="3.47188">
        <ele>870.3</ele>
        <time>2015-09-27T10:51:08Z</time>
      </trkpt>
      <trkpt lat="45.45776" lon="3.47199">
        <ele>871.4</ele>
        <time>2015-09-27T10:51:14Z</time>
      </trkpt>
      <trkpt lat="45.45777" lon="3.47211">
        <ele>871.6</ele>
        <time>2015-09-27T10:51:20Z</time>
      </trkpt>
      <trkpt lat="45.45774" lon="3.47221">
        <ele>873.4</ele>
        <time>2015-09-27T10:51:27Z</time>
      </trkpt>
      <trkpt lat="45.45771" lon="3.47233">
        <ele>875</ele>
        <time>2015-09-27T10:51:34Z</time>
      </trkpt>
      <trkpt lat="45.45766" lon="3.47243">
        <ele>875.3</ele>
        <time>2015-09-27T10:51:41Z</time>
      </trkpt>
      <trkpt lat="45.4576" lon="3.47251">
        <ele>876</ele>
        <time>2015-09-27T10:51:48Z</time>
      </trkpt>
      <trkpt lat="45.45755" lon="3.47259">
        <ele>877.1</ele>
        <time>2015-09-27T10:51:54Z</time>
      </trkpt>
      <trkpt lat="45.4575" lon="3.47268">
        <ele>877.7</ele>
        <time>2015-09-27T10:52:00Z</time>
      </trkpt>
      <trkpt lat="45.45749" lon="3.4727">
        <ele>877.9</ele>
        <time>2015-09-27T10:52:01Z</time>
      </trkpt>
      <trkpt lat="45.45739" lon="3.47287">
        <ele>878.2</ele>
        <time>2015-09-27T10:52:12Z</time>
      </trkpt>
      <trkpt lat="45.45734" lon="3.47296">
        <ele>878.6</ele>
        <time>2015-09-27T10:52:18Z</time>
      </trkpt>
      <trkpt lat="45.45729" lon="3.47304">
        <ele>878.8</ele>
        <time>2015-09-27T10:52:24Z</time>
      </trkpt>
      <trkpt lat="45.45724" lon="3.47312">
        <ele>880.6</ele>
        <time>2015-09-27T10:52:30Z</time>
      </trkpt>
      <trkpt lat="45.45718" lon="3.4732">
        <ele>881</ele>
        <time>2015-09-27T10:52:36Z</time>
      </trkpt>
      <trkpt lat="45.45713" lon="3.4733">
        <ele>881.3</ele>
        <time>2015-09-27T10:52:43Z</time>
      </trkpt>
      <trkpt lat="45.45708" lon="3.47339">
        <ele>881.7</ele>
        <time>2015-09-27T10:52:49Z</time>
      </trkpt>
      <trkpt lat="45.45704" lon="3.47348">
        <ele>881.5</ele>
        <time>2015-09-27T10:52:55Z</time>
      </trkpt>
      <trkpt lat="45.45699" lon="3.47357">
        <ele>882.6</ele>
        <time>2015-09-27T10:53:01Z</time>
      </trkpt>
      <trkpt lat="45.45698" lon="3.47358">
        <ele>882.9</ele>
        <time>2015-09-27T10:53:02Z</time>
      </trkpt>
      <trkpt lat="45.45686" lon="3.47371">
        <ele>883.4</ele>
        <time>2015-09-27T10:53:13Z</time>
      </trkpt>
      <trkpt lat="45.45679" lon="3.47378">
        <ele>883.5</ele>
        <time>2015-09-27T10:53:20Z</time>
      </trkpt>
      <trkpt lat="45.45673" lon="3.47385">
        <ele>883.2</ele>
        <time>2015-09-27T10:53:26Z</time>
      </trkpt>
      <trkpt lat="45.45666" lon="3.47392">
        <ele>883.7</ele>
        <time>2015-09-27T10:53:32Z</time>
      </trkpt>
      <trkpt lat="45.45659" lon="3.47399">
        <ele>884.6</ele>
        <time>2015-09-27T10:53:38Z</time>
      </trkpt>
      <trkpt lat="45.45652" lon="3.47406">
        <ele>885.1</ele>
        <time>2015-09-27T10:53:44Z</time>
      </trkpt>
      <trkpt lat="45.45645" lon="3.47413">
        <ele>885</ele>
        <time>2015-09-27T10:53:50Z</time>
      </trkpt>
      <trkpt lat="45.45638" lon="3.4742">
        <ele>886</ele>
        <time>2015-09-27T10:53:56Z</time>
      </trkpt>
      <trkpt lat="45.45631" lon="3.47426">
        <ele>886.9</ele>
        <time>2015-09-27T10:54:03Z</time>
      </trkpt>
      <trkpt lat="45.45629" lon="3.47427">
        <ele>887.1</ele>
        <time>2015-09-27T10:54:04Z</time>
      </trkpt>
      <trkpt lat="45.45614" lon="3.4743">
        <ele>887.2</ele>
        <time>2015-09-27T10:54:16Z</time>
      </trkpt>
      <trkpt lat="45.45607" lon="3.47431">
        <ele>886.6</ele>
        <time>2015-09-27T10:54:22Z</time>
      </trkpt>
      <trkpt lat="45.45598" lon="3.47434">
        <ele>886.6</ele>
        <time>2015-09-27T10:54:29Z</time>
      </trkpt>
      <trkpt lat="45.4559" lon="3.47437">
        <ele>887.3</ele>
        <time>2015-09-27T10:54:35Z</time>
      </trkpt>
      <trkpt lat="45.45582" lon="3.47441">
        <ele>887.1</ele>
        <time>2015-09-27T10:54:41Z</time>
      </trkpt>
      <trkpt lat="45.45575" lon="3.47444">
        <ele>886.7</ele>
        <time>2015-09-27T10:54:47Z</time>
      </trkpt>
      <trkpt lat="45.45567" lon="3.47446">
        <ele>886</ele>
        <time>2015-09-27T10:54:53Z</time>
      </trkpt>
      <trkpt lat="45.45559" lon="3.47449">
        <ele>886.4</ele>
        <time>2015-09-27T10:54:59Z</time>
      </trkpt>
      <trkpt lat="45.45551" lon="3.47454">
        <ele>885.9</ele>
        <time>2015-09-27T10:55:06Z</time>
      </trkpt>
      <trkpt lat="45.45549" lon="3.47454">
        <ele>886.1</ele>
        <time>2015-09-27T10:55:07Z</time>
      </trkpt>
      <trkpt lat="45.45536" lon="3.47464">
        <ele>885.2</ele>
        <time>2015-09-27T10:55:19Z</time>
      </trkpt>
      <trkpt lat="45.45528" lon="3.47471">
        <ele>884</ele>
        <time>2015-09-27T10:55:26Z</time>
      </trkpt>
      <trkpt lat="45.45522" lon="3.47478">
        <ele>884.6</ele>
        <time>2015-09-27T10:55:32Z</time>
      </trkpt>
      <trkpt lat="45.45515" lon="3.47486">
        <ele>882.2</ele>
        <time>2015-09-27T10:55:44Z</time>
      </trkpt>
      <trkpt lat="45.45509" lon="3.47493">
        <ele>882.4</ele>
        <time>2015-09-27T10:55:50Z</time>
      </trkpt>
      <trkpt lat="45.45502" lon="3.475">
        <ele>882</ele>
        <time>2015-09-27T10:55:56Z</time>
      </trkpt>
      <trkpt lat="45.45496" lon="3.47507">
        <ele>880.5</ele>
        <time>2015-09-27T10:56:02Z</time>
      </trkpt>
      <trkpt lat="45.45488" lon="3.47514">
        <ele>880.1</ele>
        <time>2015-09-27T10:56:08Z</time>
      </trkpt>
      <trkpt lat="45.45487" lon="3.47515">
        <ele>880.1</ele>
        <time>2015-09-27T10:56:09Z</time>
      </trkpt>
      <trkpt lat="45.45474" lon="3.47529">
        <ele>879</ele>
        <time>2015-09-27T10:56:20Z</time>
      </trkpt>
      <trkpt lat="45.45467" lon="3.47536">
        <ele>879.1</ele>
        <time>2015-09-27T10:56:26Z</time>
      </trkpt>
      <trkpt lat="45.4546" lon="3.47543">
        <ele>878.2</ele>
        <time>2015-09-27T10:56:32Z</time>
      </trkpt>
      <trkpt lat="45.45453" lon="3.4755">
        <ele>878.6</ele>
        <time>2015-09-27T10:56:38Z</time>
      </trkpt>
      <trkpt lat="45.45446" lon="3.47556">
        <ele>878.3</ele>
        <time>2015-09-27T10:56:44Z</time>
      </trkpt>
      <trkpt lat="45.45439" lon="3.47562">
        <ele>877.6</ele>
        <time>2015-09-27T10:56:50Z</time>
      </trkpt>
      <trkpt lat="45.45432" lon="3.47567">
        <ele>876.9</ele>
        <time>2015-09-27T10:56:56Z</time>
      </trkpt>
      <trkpt lat="45.45425" lon="3.47573">
        <ele>876.2</ele>
        <time>2015-09-27T10:57:02Z</time>
      </trkpt>
      <trkpt lat="45.45418" lon="3.47578">
        <ele>877.1</ele>
        <time>2015-09-27T10:57:08Z</time>
      </trkpt>
      <trkpt lat="45.4541" lon="3.47584">
        <ele>876.9</ele>
        <time>2015-09-27T10:57:15Z</time>
      </trkpt>
      <trkpt lat="45.45409" lon="3.47585">
        <ele>876.9</ele>
        <time>2015-09-27T10:57:16Z</time>
      </trkpt>
      <trkpt lat="45.45395" lon="3.47595">
        <ele>876</ele>
        <time>2015-09-27T10:57:29Z</time>
      </trkpt>
      <trkpt lat="45.45388" lon="3.476">
        <ele>875.8</ele>
        <time>2015-09-27T10:57:35Z</time>
      </trkpt>
      <trkpt lat="45.45381" lon="3.47606">
        <ele>875.4</ele>
        <time>2015-09-27T10:57:41Z</time>
      </trkpt>
      <trkpt lat="45.45374" lon="3.47611">
        <ele>875.8</ele>
        <time>2015-09-27T10:57:47Z</time>
      </trkpt>
      <trkpt lat="45.45367" lon="3.47617">
        <ele>875.2</ele>
        <time>2015-09-27T10:57:53Z</time>
      </trkpt>
      <trkpt lat="45.45359" lon="3.47624">
        <ele>875.1</ele>
        <time>2015-09-27T10:57:59Z</time>
      </trkpt>
      <trkpt lat="45.45352" lon="3.47631">
        <ele>875.6</ele>
        <time>2015-09-27T10:58:05Z</time>
      </trkpt>
      <trkpt lat="45.45345" lon="3.47638">
        <ele>874.7</ele>
        <time>2015-09-27T10:58:11Z</time>
      </trkpt>
      <trkpt lat="45.45339" lon="3.47647">
        <ele>875.1</ele>
        <time>2015-09-27T10:58:17Z</time>
      </trkpt>
      <trkpt lat="45.45338" lon="3.47648">
        <ele>875.2</ele>
        <time>2015-09-27T10:58:18Z</time>
      </trkpt>
      <trkpt lat="45.45327" lon="3.47664">
        <ele>873.9</ele>
        <time>2015-09-27T10:58:29Z</time>
      </trkpt>
      <trkpt lat="45.45321" lon="3.47673">
        <ele>874.7</ele>
        <time>2015-09-27T10:58:35Z</time>
      </trkpt>
      <trkpt lat="45.45315" lon="3.47681">
        <ele>874.4</ele>
        <time>2015-09-27T10:58:41Z</time>
      </trkpt>
      <trkpt lat="45.45309" lon="3.4769">
        <ele>874.5</ele>
        <time>2015-09-27T10:58:47Z</time>
      </trkpt>
      <trkpt lat="45.45302" lon="3.47698">
        <ele>874.3</ele>
        <time>2015-09-27T10:58:53Z</time>
      </trkpt>
      <trkpt lat="45.45295" lon="3.47705">
        <ele>873.6</ele>
        <time>2015-09-27T10:58:59Z</time>
      </trkpt>
      <trkpt lat="45.45286" lon="3.47709">
        <ele>874.6</ele>
        <time>2015-09-27T10:59:05Z</time>
      </trkpt>
      <trkpt lat="45.45277" lon="3.47707">
        <ele>874</ele>
        <time>2015-09-27T10:59:11Z</time>
      </trkpt>
      <trkpt lat="45.4527" lon="3.47703">
        <ele>873.5</ele>
        <time>2015-09-27T10:59:16Z</time>
      </trkpt>
      <trkpt lat="45.45263" lon="3.47696">
        <ele>873.1</ele>
        <time>2015-09-27T10:59:22Z</time>
      </trkpt>
      <trkpt lat="45.45262" lon="3.47695">
        <ele>873.3</ele>
        <time>2015-09-27T10:59:23Z</time>
      </trkpt>
      <trkpt lat="45.45251" lon="3.4768">
        <ele>873.5</ele>
        <time>2015-09-27T10:59:35Z</time>
      </trkpt>
      <trkpt lat="45.45248" lon="3.4767">
        <ele>873.6</ele>
        <time>2015-09-27T10:59:41Z</time>
      </trkpt>
      <trkpt lat="45.45244" lon="3.47659">
        <ele>874.6</ele>
        <time>2015-09-27T10:59:47Z</time>
      </trkpt>
      <trkpt lat="45.45239" lon="3.47648">
        <ele>874.3</ele>
        <time>2015-09-27T10:59:53Z</time>
      </trkpt>
      <trkpt lat="45.45235" lon="3.47637">
        <ele>873.4</ele>
        <time>2015-09-27T10:59:59Z</time>
      </trkpt>
      <trkpt lat="45.45232" lon="3.47627">
        <ele>873.2</ele>
        <time>2015-09-27T11:00:05Z</time>
      </trkpt>
      <trkpt lat="45.45229" lon="3.47617">
        <ele>872.5</ele>
        <time>2015-09-27T11:00:11Z</time>
      </trkpt>
      <trkpt lat="45.45226" lon="3.47606">
        <ele>873.2</ele>
        <time>2015-09-27T11:00:17Z</time>
      </trkpt>
      <trkpt lat="45.45223" lon="3.47594">
        <ele>873.2</ele>
        <time>2015-09-27T11:00:24Z</time>
      </trkpt>
      <trkpt lat="45.45222" lon="3.47593">
        <ele>873.2</ele>
        <time>2015-09-27T11:00:25Z</time>
      </trkpt>
      <trkpt lat="45.45217" lon="3.47573">
        <ele>873.7</ele>
        <time>2015-09-27T11:00:36Z</time>
      </trkpt>
      <trkpt lat="45.45215" lon="3.47562">
        <ele>874.5</ele>
        <time>2015-09-27T11:00:42Z</time>
      </trkpt>
      <trkpt lat="45.45212" lon="3.47552">
        <ele>874.3</ele>
        <time>2015-09-27T11:00:48Z</time>
      </trkpt>
      <trkpt lat="45.45209" lon="3.47539">
        <ele>874.5</ele>
        <time>2015-09-27T11:00:55Z</time>
      </trkpt>
      <trkpt lat="45.45207" lon="3.47527">
        <ele>875.2</ele>
        <time>2015-09-27T11:01:02Z</time>
      </trkpt>
      <trkpt lat="45.45203" lon="3.47516">
        <ele>875</ele>
        <time>2015-09-27T11:01:11Z</time>
      </trkpt>
      <trkpt lat="45.452" lon="3.47504">
        <ele>875.9</ele>
        <time>2015-09-27T11:01:21Z</time>
      </trkpt>
      <trkpt lat="45.45195" lon="3.47495">
        <ele>876.8</ele>
        <time>2015-09-27T11:01:27Z</time>
      </trkpt>
      <trkpt lat="45.45194" lon="3.47493">
        <ele>876.6</ele>
        <time>2015-09-27T11:01:28Z</time>
      </trkpt>
      <trkpt lat="45.45185" lon="3.47478">
        <ele>877.3</ele>
        <time>2015-09-27T11:01:39Z</time>
      </trkpt>
      <trkpt lat="45.4518" lon="3.47469">
        <ele>878.3</ele>
        <time>2015-09-27T11:01:45Z</time>
      </trkpt>
      <trkpt lat="45.45175" lon="3.47459">
        <ele>879</ele>
        <time>2015-09-27T11:01:51Z</time>
      </trkpt>
      <trkpt lat="45.4517" lon="3.47449">
        <ele>878.9</ele>
        <time>2015-09-27T11:01:56Z</time>
      </trkpt>
      <trkpt lat="45.45165" lon="3.4744">
        <ele>879.2</ele>
        <time>2015-09-27T11:02:02Z</time>
      </trkpt>
      <trkpt lat="45.4516" lon="3.4743">
        <ele>879.8</ele>
        <time>2015-09-27T11:02:09Z</time>
      </trkpt>
      <trkpt lat="45.45154" lon="3.47422">
        <ele>881.4</ele>
        <time>2015-09-27T11:02:16Z</time>
      </trkpt>
      <trkpt lat="45.45147" lon="3.47415">
        <ele>881.3</ele>
        <time>2015-09-27T11:02:23Z</time>
      </trkpt>
      <trkpt lat="45.4514" lon="3.47411">
        <ele>881.8</ele>
        <time>2015-09-27T11:02:29Z</time>
      </trkpt>
      <trkpt lat="45.45138" lon="3.4741">
        <ele>881.8</ele>
        <time>2015-09-27T11:02:30Z</time>
      </trkpt>
      <trkpt lat="45.45123" lon="3.47404">
        <ele>882.9</ele>
        <time>2015-09-27T11:02:42Z</time>
      </trkpt>
      <trkpt lat="45.45115" lon="3.474">
        <ele>883.6</ele>
        <time>2015-09-27T11:02:49Z</time>
      </trkpt>
      <trkpt lat="45.45108" lon="3.47393">
        <ele>883.3</ele>
        <time>2015-09-27T11:02:57Z</time>
      </trkpt>
      <trkpt lat="45.45102" lon="3.47386">
        <ele>883.1</ele>
        <time>2015-09-27T11:03:04Z</time>
      </trkpt>
      <trkpt lat="45.45095" lon="3.47379">
        <ele>881.5</ele>
        <time>2015-09-27T11:03:11Z</time>
      </trkpt>
      <trkpt lat="45.45089" lon="3.47372">
        <ele>881.5</ele>
        <time>2015-09-27T11:03:18Z</time>
      </trkpt>
      <trkpt lat="45.45081" lon="3.47367">
        <ele>881.7</ele>
        <time>2015-09-27T11:03:25Z</time>
      </trkpt>
      <trkpt lat="45.45074" lon="3.47361">
        <ele>880.8</ele>
        <time>2015-09-27T11:03:32Z</time>
      </trkpt>
      <trkpt lat="45.45074" lon="3.47359">
        <ele>880.9</ele>
        <time>2015-09-27T11:03:33Z</time>
      </trkpt>
      <trkpt lat="45.45072" lon="3.47337">
        <ele>879</ele>
        <time>2015-09-27T11:03:47Z</time>
      </trkpt>
      <trkpt lat="45.45071" lon="3.47324">
        <ele>878.8</ele>
        <time>2015-09-27T11:03:55Z</time>
      </trkpt>
      <trkpt lat="45.45069" lon="3.47312">
        <ele>877.5</ele>
        <time>2015-09-27T11:04:03Z</time>
      </trkpt>
      <trkpt lat="45.45067" lon="3.47301">
        <ele>876.7</ele>
        <time>2015-09-27T11:04:10Z</time>
      </trkpt>
      <trkpt lat="45.45065" lon="3.47289">
        <ele>876.3</ele>
        <time>2015-09-27T11:04:17Z</time>
      </trkpt>
      <trkpt lat="45.45063" lon="3.47278">
        <ele>876.1</ele>
        <time>2015-09-27T11:04:25Z</time>
      </trkpt>
      <trkpt lat="45.4506" lon="3.47266">
        <ele>874.8</ele>
        <time>2015-09-27T11:04:32Z</time>
      </trkpt>
      <trkpt lat="45.45058" lon="3.47254">
        <ele>875.1</ele>
        <time>2015-09-27T11:04:40Z</time>
      </trkpt>
      <trkpt lat="45.45058" lon="3.47253">
        <ele>874.9</ele>
        <time>2015-09-27T11:04:41Z</time>
      </trkpt>
      <trkpt lat="45.45055" lon="3.47229">
        <ele>873.6</ele>
        <time>2015-09-27T11:04:55Z</time>
      </trkpt>
      <trkpt lat="45.45053" lon="3.47218">
        <ele>874.5</ele>
        <time>2015-09-27T11:05:01Z</time>
      </trkpt>
      <trkpt lat="45.45051" lon="3.47207">
        <ele>873.4</ele>
        <time>2015-09-27T11:05:07Z</time>
      </trkpt>
      <trkpt lat="45.45049" lon="3.47195">
        <ele>873</ele>
        <time>2015-09-27T11:05:13Z</time>
      </trkpt>
      <trkpt lat="45.45047" lon="3.47184">
        <ele>873.2</ele>
        <time>2015-09-27T11:05:19Z</time>
      </trkpt>
      <trkpt lat="45.45045" lon="3.47173">
        <ele>873.1</ele>
        <time>2015-09-27T11:05:25Z</time>
      </trkpt>
      <trkpt lat="45.45043" lon="3.47162">
        <ele>872.7</ele>
        <time>2015-09-27T11:05:31Z</time>
      </trkpt>
      <trkpt lat="45.4504" lon="3.4715">
        <ele>871.9</ele>
        <time>2015-09-27T11:05:37Z</time>
      </trkpt>
      <trkpt lat="45.45036" lon="3.4714">
        <ele>872.1</ele>
        <time>2015-09-27T11:05:43Z</time>
      </trkpt>
      <trkpt lat="45.45036" lon="3.47138">
        <ele>872.1</ele>
        <time>2015-09-27T11:05:44Z</time>
      </trkpt>
      <trkpt lat="45.45027" lon="3.47119">
        <ele>874.5</ele>
        <time>2015-09-27T11:05:57Z</time>
      </trkpt>
      <trkpt lat="45.45022" lon="3.4711">
        <ele>873.7</ele>
        <time>2015-09-27T11:06:04Z</time>
      </trkpt>
      <trkpt lat="45.45016" lon="3.47102">
        <ele>873.9</ele>
        <time>2015-09-27T11:06:10Z</time>
      </trkpt>
      <trkpt lat="45.4501" lon="3.47094">
        <ele>874.1</ele>
        <time>2015-09-27T11:06:16Z</time>
      </trkpt>
      <trkpt lat="45.45003" lon="3.47086">
        <ele>874.7</ele>
        <time>2015-09-27T11:06:22Z</time>
      </trkpt>
      <trkpt lat="45.44997" lon="3.47078">
        <ele>874.9</ele>
        <time>2015-09-27T11:06:28Z</time>
      </trkpt>
      <trkpt lat="45.4499" lon="3.4707">
        <ele>875.3</ele>
        <time>2015-09-27T11:06:34Z</time>
      </trkpt>
      <trkpt lat="45.44984" lon="3.47062">
        <ele>875.1</ele>
        <time>2015-09-27T11:06:40Z</time>
      </trkpt>
      <trkpt lat="45.44978" lon="3.47055">
        <ele>875</ele>
        <time>2015-09-27T11:06:50Z</time>
      </trkpt>
      <trkpt lat="45.44977" lon="3.47054">
        <ele>875.2</ele>
        <time>2015-09-27T11:06:51Z</time>
      </trkpt>
      <trkpt lat="45.44968" lon="3.47036">
        <ele>874.6</ele>
        <time>2015-09-27T11:07:31Z</time>
      </trkpt>
      <trkpt lat="45.44961" lon="3.47027">
        <ele>874.2</ele>
        <time>2015-09-27T11:07:38Z</time>
      </trkpt>
      <trkpt lat="45.44955" lon="3.47018">
        <ele>874.6</ele>
        <time>2015-09-27T11:07:44Z</time>
      </trkpt>
      <trkpt lat="45.44949" lon="3.47009">
        <ele>874</ele>
        <time>2015-09-27T11:07:50Z</time>
      </trkpt>
      <trkpt lat="45.44944" lon="3.47001">
        <ele>874.5</ele>
        <time>2015-09-27T11:07:55Z</time>
      </trkpt>
      <trkpt lat="45.44943" lon="3.47">
        <ele>874.4</ele>
        <time>2015-09-27T11:07:56Z</time>
      </trkpt>
      <trkpt lat="45.44931" lon="3.46984">
        <ele>875.7</ele>
        <time>2015-09-27T11:08:18Z</time>
      </trkpt>
      <trkpt lat="45.44926" lon="3.46974">
        <ele>875.5</ele>
        <time>2015-09-27T11:08:24Z</time>
      </trkpt>
      <trkpt lat="45.44921" lon="3.46963">
        <ele>874.7</ele>
        <time>2015-09-27T11:08:30Z</time>
      </trkpt>
      <trkpt lat="45.44917" lon="3.46953">
        <ele>874.4</ele>
        <time>2015-09-27T11:08:36Z</time>
      </trkpt>
      <trkpt lat="45.44912" lon="3.46942">
        <ele>875</ele>
        <time>2015-09-27T11:08:42Z</time>
      </trkpt>
      <trkpt lat="45.44909" lon="3.46931">
        <ele>874</ele>
        <time>2015-09-27T11:08:48Z</time>
      </trkpt>
      <trkpt lat="45.44905" lon="3.4692">
        <ele>874.5</ele>
        <time>2015-09-27T11:08:54Z</time>
      </trkpt>
      <trkpt lat="45.44903" lon="3.4691">
        <ele>873.4</ele>
        <time>2015-09-27T11:09:00Z</time>
      </trkpt>
      <trkpt lat="45.44902" lon="3.46907">
        <ele>873.4</ele>
        <time>2015-09-27T11:09:01Z</time>
      </trkpt>
      <trkpt lat="45.44896" lon="3.46889">
        <ele>873.1</ele>
        <time>2015-09-27T11:09:10Z</time>
      </trkpt>
      <trkpt lat="45.44891" lon="3.46878">
        <ele>873.1</ele>
        <time>2015-09-27T11:09:22Z</time>
      </trkpt>
      <trkpt lat="45.44887" lon="3.46868">
        <ele>873.1</ele>
        <time>2015-09-27T11:09:28Z</time>
      </trkpt>
      <trkpt lat="45.44883" lon="3.46856">
        <ele>872.5</ele>
        <time>2015-09-27T11:09:34Z</time>
      </trkpt>
      <trkpt lat="45.4488" lon="3.46845">
        <ele>872.1</ele>
        <time>2015-09-27T11:09:41Z</time>
      </trkpt>
      <trkpt lat="45.44877" lon="3.46835">
        <ele>871.8</ele>
        <time>2015-09-27T11:09:50Z</time>
      </trkpt>
      <trkpt lat="45.44873" lon="3.46824">
        <ele>871.7</ele>
        <time>2015-09-27T11:09:55Z</time>
      </trkpt>
      <trkpt lat="45.44869" lon="3.46814">
        <ele>872.3</ele>
        <time>2015-09-27T11:10:00Z</time>
      </trkpt>
      <trkpt lat="45.44867" lon="3.46803">
        <ele>870.6</ele>
        <time>2015-09-27T11:10:10Z</time>
      </trkpt>
      <trkpt lat="45.44866" lon="3.46801">
        <ele>870.7</ele>
        <time>2015-09-27T11:10:11Z</time>
      </trkpt>
      <trkpt lat="45.4486" lon="3.4678">
        <ele>870.4</ele>
        <time>2015-09-27T11:10:22Z</time>
      </trkpt>
      <trkpt lat="45.44856" lon="3.46769">
        <ele>868.9</ele>
        <time>2015-09-27T11:10:28Z</time>
      </trkpt>
      <trkpt lat="45.44855" lon="3.46757">
        <ele>868.3</ele>
        <time>2015-09-27T11:11:47Z</time>
      </trkpt>
      <trkpt lat="45.44855" lon="3.46755">
        <ele>868.3</ele>
        <time>2015-09-27T11:11:48Z</time>
      </trkpt>
      <trkpt lat="45.44849" lon="3.46734">
        <ele>866.9</ele>
        <time>2015-09-27T11:11:58Z</time>
      </trkpt>
      <trkpt lat="45.44847" lon="3.46723">
        <ele>866.6</ele>
        <time>2015-09-27T11:12:03Z</time>
      </trkpt>
      <trkpt lat="45.44845" lon="3.46712">
        <ele>865.9</ele>
        <time>2015-09-27T11:12:08Z</time>
      </trkpt>
      <trkpt lat="45.44843" lon="3.46701">
        <ele>865.4</ele>
        <time>2015-09-27T11:12:13Z</time>
      </trkpt>
      <trkpt lat="45.44841" lon="3.4669">
        <ele>865.4</ele>
        <time>2015-09-27T11:12:18Z</time>
      </trkpt>
      <trkpt lat="45.44838" lon="3.46678">
        <ele>865.8</ele>
        <time>2015-09-27T11:12:24Z</time>
      </trkpt>
      <trkpt lat="45.44835" lon="3.46668">
        <ele>866.1</ele>
        <time>2015-09-27T11:12:29Z</time>
      </trkpt>
      <trkpt lat="45.44831" lon="3.46658">
        <ele>865</ele>
        <time>2015-09-27T11:12:35Z</time>
      </trkpt>
      <trkpt lat="45.44826" lon="3.46647">
        <ele>864.6</ele>
        <time>2015-09-27T11:12:41Z</time>
      </trkpt>
      <trkpt lat="45.44823" lon="3.46638">
        <ele>863.4</ele>
        <time>2015-09-27T11:12:47Z</time>
      </trkpt>
      <trkpt lat="45.44819" lon="3.46628">
        <ele>862.8</ele>
        <time>2015-09-27T11:12:53Z</time>
      </trkpt>
      <trkpt lat="45.44818" lon="3.46626">
        <ele>863.1</ele>
        <time>2015-09-27T11:12:54Z</time>
      </trkpt>
      <trkpt lat="45.44809" lon="3.46608">
        <ele>860.6</ele>
        <time>2015-09-27T11:13:06Z</time>
      </trkpt>
      <trkpt lat="45.44805" lon="3.46598">
        <ele>860.2</ele>
        <time>2015-09-27T11:13:13Z</time>
      </trkpt>
      <trkpt lat="45.44802" lon="3.46588">
        <ele>859.9</ele>
        <time>2015-09-27T11:13:18Z</time>
      </trkpt>
      <trkpt lat="45.44798" lon="3.46577">
        <ele>858.8</ele>
        <time>2015-09-27T11:13:24Z</time>
      </trkpt>
      <trkpt lat="45.44794" lon="3.46566">
        <ele>858.1</ele>
        <time>2015-09-27T11:14:19Z</time>
      </trkpt>
      <trkpt lat="45.44794" lon="3.46566">
        <ele>858.4</ele>
        <time>2015-09-27T11:14:20Z</time>
      </trkpt>
      <trkpt lat="45.44792" lon="3.46541">
        <ele>857.1</ele>
        <time>2015-09-27T11:14:50Z</time>
      </trkpt>
      <trkpt lat="45.44791" lon="3.4653">
        <ele>857.5</ele>
        <time>2015-09-27T11:14:59Z</time>
      </trkpt>
      <trkpt lat="45.44789" lon="3.46519">
        <ele>857.2</ele>
        <time>2015-09-27T11:15:08Z</time>
      </trkpt>
      <trkpt lat="45.44786" lon="3.46507">
        <ele>857.2</ele>
        <time>2015-09-27T11:15:15Z</time>
      </trkpt>
      <trkpt lat="45.44784" lon="3.46497">
        <ele>856</ele>
        <time>2015-09-27T11:15:23Z</time>
      </trkpt>
      <trkpt lat="45.44783" lon="3.46495">
        <ele>856</ele>
        <time>2015-09-27T11:15:24Z</time>
      </trkpt>
      <trkpt lat="45.44779" lon="3.46474">
        <ele>856</ele>
        <time>2015-09-27T11:15:39Z</time>
      </trkpt>
      <trkpt lat="45.44777" lon="3.46462">
        <ele>854.6</ele>
        <time>2015-09-27T11:15:47Z</time>
      </trkpt>
      <trkpt lat="45.44773" lon="3.46452">
        <ele>852.7</ele>
        <time>2015-09-27T11:15:55Z</time>
      </trkpt>
      <trkpt lat="45.44769" lon="3.4644">
        <ele>851.9</ele>
        <time>2015-09-27T11:16:04Z</time>
      </trkpt>
      <trkpt lat="45.44763" lon="3.46432">
        <ele>850.3</ele>
        <time>2015-09-27T11:16:12Z</time>
      </trkpt>
      <trkpt lat="45.44758" lon="3.46422">
        <ele>849.1</ele>
        <time>2015-09-27T11:16:20Z</time>
      </trkpt>
      <trkpt lat="45.44752" lon="3.46413">
        <ele>847.8</ele>
        <time>2015-09-27T11:16:27Z</time>
      </trkpt>
      <trkpt lat="45.44752" lon="3.46412">
        <ele>847.2</ele>
        <time>2015-09-27T11:16:28Z</time>
      </trkpt>
      <trkpt lat="45.44742" lon="3.46392">
        <ele>843.5</ele>
        <time>2015-09-27T11:16:47Z</time>
      </trkpt>
      <trkpt lat="45.44738" lon="3.46382">
        <ele>842.7</ele>
        <time>2015-09-27T11:16:54Z</time>
      </trkpt>
      <trkpt lat="45.44732" lon="3.46375">
        <ele>841.1</ele>
        <time>2015-09-27T11:17:00Z</time>
      </trkpt>
      <trkpt lat="45.44727" lon="3.46364">
        <ele>838.9</ele>
        <time>2015-09-27T11:17:10Z</time>
      </trkpt>
      <trkpt lat="45.44725" lon="3.46352">
        <ele>838.5</ele>
        <time>2015-09-27T11:17:17Z</time>
      </trkpt>
      <trkpt lat="45.44723" lon="3.4634">
        <ele>836.9</ele>
        <time>2015-09-27T11:17:26Z</time>
      </trkpt>
      <trkpt lat="45.44721" lon="3.46327">
        <ele>835.6</ele>
        <time>2015-09-27T11:17:35Z</time>
      </trkpt>
      <trkpt lat="45.44721" lon="3.46326">
        <ele>835.6</ele>
        <time>2015-09-27T11:17:36Z</time>
      </trkpt>
      <trkpt lat="45.44714" lon="3.46305">
        <ele>831.7</ele>
        <time>2015-09-27T11:17:55Z</time>
      </trkpt>
      <trkpt lat="45.44707" lon="3.46298">
        <ele>831.7</ele>
        <time>2015-09-27T11:18:05Z</time>
      </trkpt>
      <trkpt lat="45.447" lon="3.46292">
        <ele>830.4</ele>
        <time>2015-09-27T11:18:13Z</time>
      </trkpt>
      <trkpt lat="45.44692" lon="3.46288">
        <ele>829.6</ele>
        <time>2015-09-27T11:18:20Z</time>
      </trkpt>
      <trkpt lat="45.44684" lon="3.46283">
        <ele>828.9</ele>
        <time>2015-09-27T11:18:27Z</time>
      </trkpt>
      <trkpt lat="45.44676" lon="3.46283">
        <ele>827.1</ele>
        <time>2015-09-27T11:18:33Z</time>
      </trkpt>
      <trkpt lat="45.44668" lon="3.46281">
        <ele>826.4</ele>
        <time>2015-09-27T11:18:39Z</time>
      </trkpt>
      <trkpt lat="45.44667" lon="3.4628">
        <ele>826.4</ele>
        <time>2015-09-27T11:18:40Z</time>
      </trkpt>
      <trkpt lat="45.44652" lon="3.46274">
        <ele>824.6</ele>
        <time>2015-09-27T11:18:50Z</time>
      </trkpt>
      <trkpt lat="45.44644" lon="3.4627">
        <ele>824</ele>
        <time>2015-09-27T11:18:55Z</time>
      </trkpt>
      <trkpt lat="45.44637" lon="3.46265">
        <ele>822.5</ele>
        <time>2015-09-27T11:19:01Z</time>
      </trkpt>
      <trkpt lat="45.4463" lon="3.46256">
        <ele>820.8</ele>
        <time>2015-09-27T11:19:09Z</time>
      </trkpt>
      <trkpt lat="45.44627" lon="3.46246">
        <ele>820.5</ele>
        <time>2015-09-27T11:19:16Z</time>
      </trkpt>
      <trkpt lat="45.44627" lon="3.46235">
        <ele>819.6</ele>
        <time>2015-09-27T11:19:23Z</time>
      </trkpt>
      <trkpt lat="45.44629" lon="3.46224">
        <ele>817.2</ele>
        <time>2015-09-27T11:19:29Z</time>
      </trkpt>
      <trkpt lat="45.44633" lon="3.46214">
        <ele>815.6</ele>
        <time>2015-09-27T11:19:35Z</time>
      </trkpt>
      <trkpt lat="45.44636" lon="3.46203">
        <ele>814.1</ele>
        <time>2015-09-27T11:19:42Z</time>
      </trkpt>
      <trkpt lat="45.44636" lon="3.46202">
        <ele>814.4</ele>
        <time>2015-09-27T11:19:43Z</time>
      </trkpt>
      <trkpt lat="45.4464" lon="3.46181">
        <ele>812.9</ele>
        <time>2015-09-27T11:19:56Z</time>
      </trkpt>
      <trkpt lat="45.4464" lon="3.46169">
        <ele>810.4</ele>
        <time>2015-09-27T11:20:03Z</time>
      </trkpt>
      <trkpt lat="45.44639" lon="3.46157">
        <ele>807.1</ele>
        <time>2015-09-27T11:20:31Z</time>
      </trkpt>
      <trkpt lat="45.44638" lon="3.46144">
        <ele>804.2</ele>
        <time>2015-09-27T11:20:41Z</time>
      </trkpt>
      <trkpt lat="45.44637" lon="3.46132">
        <ele>801.7</ele>
        <time>2015-09-27T11:20:54Z</time>
      </trkpt>
      <trkpt lat="45.44637" lon="3.46131">
        <ele>801.4</ele>
        <time>2015-09-27T11:20:55Z</time>
      </trkpt>
      <trkpt lat="45.44635" lon="3.46108">
        <ele>798</ele>
        <time>2015-09-27T11:21:10Z</time>
      </trkpt>
      <trkpt lat="45.44636" lon="3.46097">
        <ele>795.4</ele>
        <time>2015-09-27T11:21:17Z</time>
      </trkpt>
      <trkpt lat="45.44638" lon="3.46087">
        <ele>793.6</ele>
        <time>2015-09-27T11:21:24Z</time>
      </trkpt>
      <trkpt lat="45.44641" lon="3.46074">
        <ele>792.5</ele>
        <time>2015-09-27T11:21:30Z</time>
      </trkpt>
      <trkpt lat="45.44641" lon="3.46063">
        <ele>790.5</ele>
        <time>2015-09-27T11:21:53Z</time>
      </trkpt>
      <trkpt lat="45.44641" lon="3.46051">
        <ele>787.2</ele>
        <time>2015-09-27T11:22:03Z</time>
      </trkpt>
      <trkpt lat="45.44641" lon="3.4605">
        <ele>787.1</ele>
        <time>2015-09-27T11:22:04Z</time>
      </trkpt>
      <trkpt lat="45.44642" lon="3.46028">
        <ele>783.6</ele>
        <time>2015-09-27T11:22:22Z</time>
      </trkpt>
      <trkpt lat="45.44636" lon="3.46019">
        <ele>781.8</ele>
        <time>2015-09-27T11:22:29Z</time>
      </trkpt>
      <trkpt lat="45.4463" lon="3.46012">
        <ele>780.7</ele>
        <time>2015-09-27T11:22:34Z</time>
      </trkpt>
      <trkpt lat="45.44625" lon="3.46001">
        <ele>778.5</ele>
        <time>2015-09-27T11:23:16Z</time>
      </trkpt>
      <trkpt lat="45.44624" lon="3.46001">
        <ele>778.3</ele>
        <time>2015-09-27T11:23:17Z</time>
      </trkpt>
      <trkpt lat="45.44611" lon="3.45989">
        <ele>774.5</ele>
        <time>2015-09-27T11:23:39Z</time>
      </trkpt>
      <trkpt lat="45.44606" lon="3.45978">
        <ele>771.5</ele>
        <time>2015-09-27T11:23:49Z</time>
      </trkpt>
      <trkpt lat="45.44607" lon="3.45966">
        <ele>769.8</ele>
        <time>2015-09-27T11:24:02Z</time>
      </trkpt>
      <trkpt lat="45.44607" lon="3.45954">
        <ele>768.7</ele>
        <time>2015-09-27T11:24:08Z</time>
      </trkpt>
      <trkpt lat="45.44607" lon="3.45942">
        <ele>766.9</ele>
        <time>2015-09-27T11:24:15Z</time>
      </trkpt>
      <trkpt lat="45.44607" lon="3.4593">
        <ele>763.5</ele>
        <time>2015-09-27T11:24:23Z</time>
      </trkpt>
      <trkpt lat="45.44607" lon="3.45929">
        <ele>763.1</ele>
        <time>2015-09-27T11:24:24Z</time>
      </trkpt>
      <trkpt lat="45.44603" lon="3.45906">
        <ele>759.6</ele>
        <time>2015-09-27T11:24:37Z</time>
      </trkpt>
      <trkpt lat="45.44602" lon="3.45895">
        <ele>757.3</ele>
        <time>2015-09-27T11:24:43Z</time>
      </trkpt>
      <trkpt lat="45.44599" lon="3.45883">
        <ele>754.4</ele>
        <time>2015-09-27T11:24:59Z</time>
      </trkpt>
      <trkpt lat="45.44591" lon="3.4588">
        <ele>752.7</ele>
        <time>2015-09-27T11:25:10Z</time>
      </trkpt>
      <trkpt lat="45.44582" lon="3.45884">
        <ele>751.7</ele>
        <time>2015-09-27T11:25:17Z</time>
      </trkpt>
      <trkpt lat="45.44576" lon="3.45891">
        <ele>750.5</ele>
        <time>2015-09-27T11:25:23Z</time>
      </trkpt>
      <trkpt lat="45.44571" lon="3.459">
        <ele>750.3</ele>
        <time>2015-09-27T11:25:29Z</time>
      </trkpt>
      <trkpt lat="45.4457" lon="3.45901">
        <ele>750.3</ele>
        <time>2015-09-27T11:25:30Z</time>
      </trkpt>
      <trkpt lat="45.44561" lon="3.45919">
        <ele>748.5</ele>
        <time>2015-09-27T11:25:42Z</time>
      </trkpt>
      <trkpt lat="45.44558" lon="3.45931">
        <ele>748</ele>
        <time>2015-09-27T11:25:49Z</time>
      </trkpt>
      <trkpt lat="45.44555" lon="3.45942">
        <ele>748.7</ele>
        <time>2015-09-27T11:25:55Z</time>
      </trkpt>
      <trkpt lat="45.44552" lon="3.45954">
        <ele>749</ele>
        <time>2015-09-27T11:26:03Z</time>
      </trkpt>
      <trkpt lat="45.44548" lon="3.45964">
        <ele>746.8</ele>
        <time>2015-09-27T11:26:12Z</time>
      </trkpt>
      <trkpt lat="45.44546" lon="3.45976">
        <ele>746</ele>
        <time>2015-09-27T11:26:20Z</time>
      </trkpt>
      <trkpt lat="45.44545" lon="3.45988">
        <ele>744.6</ele>
        <time>2015-09-27T11:26:27Z</time>
      </trkpt>
      <trkpt lat="45.4454" lon="3.45998">
        <ele>744.2</ele>
        <time>2015-09-27T11:26:35Z</time>
      </trkpt>
      <trkpt lat="45.44539" lon="3.45999">
        <ele>744.3</ele>
        <time>2015-09-27T11:26:36Z</time>
      </trkpt>
      <trkpt lat="45.44527" lon="3.46012">
        <ele>742.6</ele>
        <time>2015-09-27T11:26:47Z</time>
      </trkpt>
      <trkpt lat="45.4452" lon="3.46019">
        <ele>741.8</ele>
        <time>2015-09-27T11:26:53Z</time>
      </trkpt>
      <trkpt lat="45.44514" lon="3.46027">
        <ele>740.5</ele>
        <time>2015-09-27T11:26:59Z</time>
      </trkpt>
      <trkpt lat="45.44508" lon="3.46036">
        <ele>738.8</ele>
        <time>2015-09-27T11:27:06Z</time>
      </trkpt>
      <trkpt lat="45.44503" lon="3.46045">
        <ele>737.3</ele>
        <time>2015-09-27T11:27:12Z</time>
      </trkpt>
      <trkpt lat="45.44498" lon="3.46056">
        <ele>735.9</ele>
        <time>2015-09-27T11:27:18Z</time>
      </trkpt>
      <trkpt lat="45.44494" lon="3.46067">
        <ele>734</ele>
        <time>2015-09-27T11:27:24Z</time>
      </trkpt>
      <trkpt lat="45.4449" lon="3.46076">
        <ele>733.4</ele>
        <time>2015-09-27T11:27:30Z</time>
      </trkpt>
      <trkpt lat="45.44486" lon="3.46085">
        <ele>732.9</ele>
        <time>2015-09-27T11:27:35Z</time>
      </trkpt>
      <trkpt lat="45.44483" lon="3.46095">
        <ele>731.7</ele>
        <time>2015-09-27T11:27:40Z</time>
      </trkpt>
      <trkpt lat="45.44483" lon="3.46097">
        <ele>731.5</ele>
        <time>2015-09-27T11:27:41Z</time>
      </trkpt>
      <trkpt lat="45.44478" lon="3.46118">
        <ele>729.7</ele>
        <time>2015-09-27T11:27:53Z</time>
      </trkpt>
      <trkpt lat="45.44476" lon="3.46129">
        <ele>729.3</ele>
        <time>2015-09-27T11:28:00Z</time>
      </trkpt>
      <trkpt lat="45.44476" lon="3.46141">
        <ele>728.4</ele>
        <time>2015-09-27T11:28:08Z</time>
      </trkpt>
      <trkpt lat="45.44476" lon="3.46154">
        <ele>726.5</ele>
        <time>2015-09-27T11:28:15Z</time>
      </trkpt>
      <trkpt lat="45.44473" lon="3.46164">
        <ele>725.4</ele>
        <time>2015-09-27T11:28:20Z</time>
      </trkpt>
      <trkpt lat="45.4447" lon="3.46175">
        <ele>725.3</ele>
        <time>2015-09-27T11:28:26Z</time>
      </trkpt>
      <trkpt lat="45.44467" lon="3.46185">
        <ele>724.9</ele>
        <time>2015-09-27T11:28:32Z</time>
      </trkpt>
      <trkpt lat="45.44463" lon="3.46195">
        <ele>723</ele>
        <time>2015-09-27T11:28:38Z</time>
      </trkpt>
      <trkpt lat="45.44459" lon="3.46206">
        <ele>720.7</ele>
        <time>2015-09-27T11:28:49Z</time>
      </trkpt>
      <trkpt lat="45.44458" lon="3.46207">
        <ele>720.9</ele>
        <time>2015-09-27T11:28:50Z</time>
      </trkpt>
      <trkpt lat="45.44452" lon="3.46227">
        <ele>718.3</ele>
        <time>2015-09-27T11:29:05Z</time>
      </trkpt>
      <trkpt lat="45.44449" lon="3.46239">
        <ele>716.9</ele>
        <time>2015-09-27T11:29:12Z</time>
      </trkpt>
      <trkpt lat="45.44447" lon="3.4625">
        <ele>716.5</ele>
        <time>2015-09-27T11:29:18Z</time>
      </trkpt>
      <trkpt lat="45.44444" lon="3.46261">
        <ele>714.9</ele>
        <time>2015-09-27T11:29:23Z</time>
      </trkpt>
      <trkpt lat="45.44441" lon="3.46271">
        <ele>715.4</ele>
        <time>2015-09-27T11:29:29Z</time>
      </trkpt>
      <trkpt lat="45.44439" lon="3.46284">
        <ele>713.1</ele>
        <time>2015-09-27T11:29:37Z</time>
      </trkpt>
      <trkpt lat="45.44439" lon="3.46296">
        <ele>711</ele>
        <time>2015-09-27T11:29:44Z</time>
      </trkpt>
      <trkpt lat="45.44435" lon="3.46306">
        <ele>709.4</ele>
        <time>2015-09-27T11:29:52Z</time>
      </trkpt>
      <trkpt lat="45.44434" lon="3.46308">
        <ele>709</ele>
        <time>2015-09-27T11:29:53Z</time>
      </trkpt>
      <trkpt lat="45.44426" lon="3.46325">
        <ele>705.4</ele>
        <time>2015-09-27T11:30:07Z</time>
      </trkpt>
      <trkpt lat="45.44421" lon="3.46336">
        <ele>703.8</ele>
        <time>2015-09-27T11:30:15Z</time>
      </trkpt>
      <trkpt lat="45.44415" lon="3.46343">
        <ele>702</ele>
        <time>2015-09-27T11:30:22Z</time>
      </trkpt>
      <trkpt lat="45.4441" lon="3.46354">
        <ele>701.1</ele>
        <time>2015-09-27T11:30:30Z</time>
      </trkpt>
      <trkpt lat="45.44407" lon="3.46365">
        <ele>698.7</ele>
        <time>2015-09-27T11:30:36Z</time>
      </trkpt>
      <trkpt lat="45.44403" lon="3.46376">
        <ele>696.8</ele>
        <time>2015-09-27T11:30:43Z</time>
      </trkpt>
      <trkpt lat="45.44398" lon="3.46386">
        <ele>695.7</ele>
        <time>2015-09-27T11:30:50Z</time>
      </trkpt>
      <trkpt lat="45.44394" lon="3.46397">
        <ele>694.6</ele>
        <time>2015-09-27T11:30:57Z</time>
      </trkpt>
      <trkpt lat="45.44393" lon="3.46398">
        <ele>694.4</ele>
        <time>2015-09-27T11:30:58Z</time>
      </trkpt>
      <trkpt lat="45.4438" lon="3.4641">
        <ele>692.5</ele>
        <time>2015-09-27T11:31:12Z</time>
      </trkpt>
      <trkpt lat="45.44378" lon="3.46422">
        <ele>692.3</ele>
        <time>2015-09-27T11:31:40Z</time>
      </trkpt>
      <trkpt lat="45.44371" lon="3.46429">
        <ele>694.3</ele>
        <time>2015-09-27T11:33:43Z</time>
      </trkpt>
      <trkpt lat="45.4437" lon="3.46429">
        <ele>694.3</ele>
        <time>2015-09-27T11:33:44Z</time>
      </trkpt>
      <trkpt lat="45.44358" lon="3.46421">
        <ele>701.3</ele>
        <time>2015-09-27T11:34:03Z</time>
      </trkpt>
      <trkpt lat="45.44352" lon="3.4642">
        <ele>702.3</ele>
        <time>2015-09-27T11:34:07Z</time>
      </trkpt>
      <trkpt lat="45.44344" lon="3.46416">
        <ele>702.8</ele>
        <time>2015-09-27T11:34:10Z</time>
      </trkpt>
      <trkpt lat="45.44337" lon="3.46413">
        <ele>704.3</ele>
        <time>2015-09-27T11:34:14Z</time>
      </trkpt>
      <trkpt lat="45.44333" lon="3.46403">
        <ele>705.8</ele>
        <time>2015-09-27T11:34:20Z</time>
      </trkpt>
      <trkpt lat="45.44334" lon="3.4639">
        <ele>707.6</ele>
        <time>2015-09-27T11:34:30Z</time>
      </trkpt>
      <trkpt lat="45.44338" lon="3.4638">
        <ele>711.3</ele>
        <time>2015-09-27T11:34:37Z</time>
      </trkpt>
      <trkpt lat="45.44339" lon="3.46368">
        <ele>713.1</ele>
        <time>2015-09-27T11:34:44Z</time>
      </trkpt>
      <trkpt lat="45.44338" lon="3.46357">
        <ele>714.2</ele>
        <time>2015-09-27T11:34:51Z</time>
      </trkpt>
      <trkpt lat="45.44338" lon="3.46355">
        <ele>714.1</ele>
        <time>2015-09-27T11:34:52Z</time>
      </trkpt>
      <trkpt lat="45.44336" lon="3.46332">
        <ele>716.8</ele>
        <time>2015-09-27T11:35:07Z</time>
      </trkpt>
      <trkpt lat="45.44335" lon="3.46321">
        <ele>718.3</ele>
        <time>2015-09-27T11:35:14Z</time>
      </trkpt>
      <trkpt lat="45.44334" lon="3.46309">
        <ele>719.9</ele>
        <time>2015-09-27T11:35:21Z</time>
      </trkpt>
      <trkpt lat="45.44332" lon="3.46297">
        <ele>721</ele>
        <time>2015-09-27T11:35:28Z</time>
      </trkpt>
      <trkpt lat="45.44329" lon="3.46286">
        <ele>722</ele>
        <time>2015-09-27T11:35:34Z</time>
      </trkpt>
      <trkpt lat="45.44327" lon="3.46274">
        <ele>722.8</ele>
        <time>2015-09-27T11:35:40Z</time>
      </trkpt>
      <trkpt lat="45.44326" lon="3.46262">
        <ele>723.9</ele>
        <time>2015-09-27T11:35:45Z</time>
      </trkpt>
      <trkpt lat="45.44323" lon="3.46252">
        <ele>725</ele>
        <time>2015-09-27T11:35:50Z</time>
      </trkpt>
      <trkpt lat="45.44319" lon="3.46241">
        <ele>726.1</ele>
        <time>2015-09-27T11:35:56Z</time>
      </trkpt>
      <trkpt lat="45.44319" lon="3.46239">
        <ele>726.1</ele>
        <time>2015-09-27T11:35:57Z</time>
      </trkpt>
      <trkpt lat="45.44312" lon="3.46218">
        <ele>728</ele>
        <time>2015-09-27T11:36:08Z</time>
      </trkpt>
      <trkpt lat="45.44309" lon="3.46208">
        <ele>728.7</ele>
        <time>2015-09-27T11:36:13Z</time>
      </trkpt>
      <trkpt lat="45.44304" lon="3.46197">
        <ele>729.9</ele>
        <time>2015-09-27T11:36:19Z</time>
      </trkpt>
      <trkpt lat="45.443" lon="3.46186">
        <ele>730.5</ele>
        <time>2015-09-27T11:36:25Z</time>
      </trkpt>
      <trkpt lat="45.44297" lon="3.46175">
        <ele>732.6</ele>
        <time>2015-09-27T11:36:32Z</time>
      </trkpt>
      <trkpt lat="45.44293" lon="3.46165">
        <ele>733.1</ele>
        <time>2015-09-27T11:36:39Z</time>
      </trkpt>
      <trkpt lat="45.44287" lon="3.46156">
        <ele>735.2</ele>
        <time>2015-09-27T11:36:47Z</time>
      </trkpt>
      <trkpt lat="45.44283" lon="3.46145">
        <ele>736.9</ele>
        <time>2015-09-27T11:36:55Z</time>
      </trkpt>
      <trkpt lat="45.44278" lon="3.46135">
        <ele>736.8</ele>
        <time>2015-09-27T11:37:02Z</time>
      </trkpt>
      <trkpt lat="45.44278" lon="3.46134">
        <ele>737.4</ele>
        <time>2015-09-27T11:37:03Z</time>
      </trkpt>
      <trkpt lat="45.44269" lon="3.46116">
        <ele>739.6</ele>
        <time>2015-09-27T11:37:14Z</time>
      </trkpt>
      <trkpt lat="45.44265" lon="3.46107">
        <ele>740.4</ele>
        <time>2015-09-27T11:37:20Z</time>
      </trkpt>
      <trkpt lat="45.44261" lon="3.46097">
        <ele>741.8</ele>
        <time>2015-09-27T11:37:26Z</time>
      </trkpt>
      <trkpt lat="45.44257" lon="3.46085">
        <ele>743.6</ele>
        <time>2015-09-27T11:37:32Z</time>
      </trkpt>
      <trkpt lat="45.44256" lon="3.46074">
        <ele>744.9</ele>
        <time>2015-09-27T11:37:37Z</time>
      </trkpt>
      <trkpt lat="45.44252" lon="3.46064">
        <ele>746</ele>
        <time>2015-09-27T11:37:43Z</time>
      </trkpt>
      <trkpt lat="45.44246" lon="3.46055">
        <ele>748.5</ele>
        <time>2015-09-27T11:37:49Z</time>
      </trkpt>
      <trkpt lat="45.44239" lon="3.46049">
        <ele>748.8</ele>
        <time>2015-09-27T11:37:55Z</time>
      </trkpt>
      <trkpt lat="45.44232" lon="3.46044">
        <ele>749.8</ele>
        <time>2015-09-27T11:38:01Z</time>
      </trkpt>
      <trkpt lat="45.44226" lon="3.46036">
        <ele>751.3</ele>
        <time>2015-09-27T11:38:07Z</time>
      </trkpt>
      <trkpt lat="45.44225" lon="3.46035">
        <ele>751.4</ele>
        <time>2015-09-27T11:38:08Z</time>
      </trkpt>
      <trkpt lat="45.44212" lon="3.46023">
        <ele>754.6</ele>
        <time>2015-09-27T11:38:21Z</time>
      </trkpt>
      <trkpt lat="45.44204" lon="3.46018">
        <ele>756.1</ele>
        <time>2015-09-27T11:38:28Z</time>
      </trkpt>
      <trkpt lat="45.44196" lon="3.46014">
        <ele>756.9</ele>
        <time>2015-09-27T11:38:35Z</time>
      </trkpt>
      <trkpt lat="45.44188" lon="3.46012">
        <ele>758.4</ele>
        <time>2015-09-27T11:38:41Z</time>
      </trkpt>
      <trkpt lat="45.4418" lon="3.46011">
        <ele>760.5</ele>
        <time>2015-09-27T11:38:47Z</time>
      </trkpt>
      <trkpt lat="45.44172" lon="3.4601">
        <ele>761.3</ele>
        <time>2015-09-27T11:38:52Z</time>
      </trkpt>
      <trkpt lat="45.44164" lon="3.46009">
        <ele>763.4</ele>
        <time>2015-09-27T11:38:58Z</time>
      </trkpt>
      <trkpt lat="45.44156" lon="3.46007">
        <ele>764.4</ele>
        <time>2015-09-27T11:39:04Z</time>
      </trkpt>
      <trkpt lat="45.44148" lon="3.46004">
        <ele>766</ele>
        <time>2015-09-27T11:39:09Z</time>
      </trkpt>
      <trkpt lat="45.44147" lon="3.46003">
        <ele>766.3</ele>
        <time>2015-09-27T11:39:10Z</time>
      </trkpt>
      <trkpt lat="45.44136" lon="3.45989">
        <ele>768</ele>
        <time>2015-09-27T11:39:20Z</time>
      </trkpt>
      <trkpt lat="45.44131" lon="3.4598">
        <ele>769.4</ele>
        <time>2015-09-27T11:39:26Z</time>
      </trkpt>
      <trkpt lat="45.44125" lon="3.45971">
        <ele>771.2</ele>
        <time>2015-09-27T11:39:32Z</time>
      </trkpt>
      <trkpt lat="45.44118" lon="3.45964">
        <ele>773.3</ele>
        <time>2015-09-27T11:39:39Z</time>
      </trkpt>
      <trkpt lat="45.4411" lon="3.45958">
        <ele>774.9</ele>
        <time>2015-09-27T11:39:44Z</time>
      </trkpt>
      <trkpt lat="45.44103" lon="3.45952">
        <ele>777.3</ele>
        <time>2015-09-27T11:39:50Z</time>
      </trkpt>
      <trkpt lat="45.44095" lon="3.45948">
        <ele>778.2</ele>
        <time>2015-09-27T11:39:56Z</time>
      </trkpt>
      <trkpt lat="45.44087" lon="3.45946">
        <ele>780.5</ele>
        <time>2015-09-27T11:40:01Z</time>
      </trkpt>
      <trkpt lat="45.4408" lon="3.45941">
        <ele>783.1</ele>
        <time>2015-09-27T11:40:06Z</time>
      </trkpt>
      <trkpt lat="45.44073" lon="3.45935">
        <ele>784.7</ele>
        <time>2015-09-27T11:40:14Z</time>
      </trkpt>
      <trkpt lat="45.44072" lon="3.45934">
        <ele>784.9</ele>
        <time>2015-09-27T11:40:15Z</time>
      </trkpt>
      <trkpt lat="45.4406" lon="3.45918">
        <ele>789.4</ele>
        <time>2015-09-27T11:40:28Z</time>
      </trkpt>
      <trkpt lat="45.44057" lon="3.45907">
        <ele>791.3</ele>
        <time>2015-09-27T11:40:35Z</time>
      </trkpt>
      <trkpt lat="45.44056" lon="3.45894">
        <ele>793.5</ele>
        <time>2015-09-27T11:40:43Z</time>
      </trkpt>
      <trkpt lat="45.44051" lon="3.45885">
        <ele>795.2</ele>
        <time>2015-09-27T11:40:53Z</time>
      </trkpt>
      <trkpt lat="45.44043" lon="3.45881">
        <ele>795.7</ele>
        <time>2015-09-27T11:40:59Z</time>
      </trkpt>
      <trkpt lat="45.44035" lon="3.45879">
        <ele>797.3</ele>
        <time>2015-09-27T11:41:05Z</time>
      </trkpt>
      <trkpt lat="45.44027" lon="3.45877">
        <ele>799</ele>
        <time>2015-09-27T11:41:11Z</time>
      </trkpt>
      <trkpt lat="45.44018" lon="3.45874">
        <ele>800.5</ele>
        <time>2015-09-27T11:41:17Z</time>
      </trkpt>
      <trkpt lat="45.44017" lon="3.45874">
        <ele>800.8</ele>
        <time>2015-09-27T11:41:18Z</time>
      </trkpt>
      <trkpt lat="45.44001" lon="3.4587">
        <ele>803.5</ele>
        <time>2015-09-27T11:41:29Z</time>
      </trkpt>
      <trkpt lat="45.43992" lon="3.45869">
        <ele>804.4</ele>
        <time>2015-09-27T11:41:36Z</time>
      </trkpt>
      <trkpt lat="45.43984" lon="3.45868">
        <ele>805.7</ele>
        <time>2015-09-27T11:42:13Z</time>
      </trkpt>
      <trkpt lat="45.43976" lon="3.45867">
        <ele>805.7</ele>
        <time>2015-09-27T11:42:19Z</time>
      </trkpt>
      <trkpt lat="45.43975" lon="3.45867">
        <ele>805.8</ele>
        <time>2015-09-27T11:42:20Z</time>
      </trkpt>
      <trkpt lat="45.4396" lon="3.45866">
        <ele>806.3</ele>
        <time>2015-09-27T11:42:31Z</time>
      </trkpt>
      <trkpt lat="45.43951" lon="3.45867">
        <ele>806.5</ele>
        <time>2015-09-27T11:42:38Z</time>
      </trkpt>
      <trkpt lat="45.43943" lon="3.4587">
        <ele>807.3</ele>
        <time>2015-09-27T11:42:44Z</time>
      </trkpt>
      <trkpt lat="45.43935" lon="3.45875">
        <ele>806.4</ele>
        <time>2015-09-27T11:43:11Z</time>
      </trkpt>
      <trkpt lat="45.43927" lon="3.45877">
        <ele>805.9</ele>
        <time>2015-09-27T11:43:18Z</time>
      </trkpt>
      <trkpt lat="45.43919" lon="3.45877">
        <ele>806.4</ele>
        <time>2015-09-27T11:43:24Z</time>
      </trkpt>
      <trkpt lat="45.43917" lon="3.45877">
        <ele>806.2</ele>
        <time>2015-09-27T11:43:25Z</time>
      </trkpt>
      <trkpt lat="45.43908" lon="3.45864">
        <ele>805.2</ele>
        <time>2015-09-27T11:43:38Z</time>
      </trkpt>
      <trkpt lat="45.43908" lon="3.45853">
        <ele>804.9</ele>
        <time>2015-09-27T11:43:43Z</time>
      </trkpt>
      <trkpt lat="45.4391" lon="3.45842">
        <ele>805.5</ele>
        <time>2015-09-27T11:43:49Z</time>
      </trkpt>
      <trkpt lat="45.43912" lon="3.4583">
        <ele>805.5</ele>
        <time>2015-09-27T11:43:56Z</time>
      </trkpt>
      <trkpt lat="45.43914" lon="3.45819">
        <ele>805.3</ele>
        <time>2015-09-27T11:44:02Z</time>
      </trkpt>
      <trkpt lat="45.43916" lon="3.45806">
        <ele>805.1</ele>
        <time>2015-09-27T11:44:08Z</time>
      </trkpt>
      <trkpt lat="45.43914" lon="3.45794">
        <ele>805.3</ele>
        <time>2015-09-27T11:44:14Z</time>
      </trkpt>
      <trkpt lat="45.43912" lon="3.45782">
        <ele>805</ele>
        <time>2015-09-27T11:44:20Z</time>
      </trkpt>
      <trkpt lat="45.4391" lon="3.45772">
        <ele>805.1</ele>
        <time>2015-09-27T11:44:26Z</time>
      </trkpt>
      <trkpt lat="45.43909" lon="3.4577">
        <ele>805.2</ele>
        <time>2015-09-27T11:44:27Z</time>
      </trkpt>
      <trkpt lat="45.43904" lon="3.45749">
        <ele>803.8</ele>
        <time>2015-09-27T11:44:38Z</time>
      </trkpt>
      <trkpt lat="45.43902" lon="3.45737">
        <ele>802.5</ele>
        <time>2015-09-27T11:44:44Z</time>
      </trkpt>
      <trkpt lat="45.43901" lon="3.45725">
        <ele>802.3</ele>
        <time>2015-09-27T11:44:50Z</time>
      </trkpt>
      <trkpt lat="45.43901" lon="3.45713">
        <ele>802.3</ele>
        <time>2015-09-27T11:44:56Z</time>
      </trkpt>
      <trkpt lat="45.43901" lon="3.45702">
        <ele>801.8</ele>
        <time>2015-09-27T11:45:02Z</time>
      </trkpt>
      <trkpt lat="45.43902" lon="3.4569">
        <ele>801.2</ele>
        <time>2015-09-27T11:45:08Z</time>
      </trkpt>
      <trkpt lat="45.43903" lon="3.45678">
        <ele>800.5</ele>
        <time>2015-09-27T11:45:14Z</time>
      </trkpt>
      <trkpt lat="45.43902" lon="3.45666">
        <ele>800.3</ele>
        <time>2015-09-27T11:45:20Z</time>
      </trkpt>
      <trkpt lat="45.43901" lon="3.45654">
        <ele>800</ele>
        <time>2015-09-27T11:45:26Z</time>
      </trkpt>
      <trkpt lat="45.43902" lon="3.45642">
        <ele>798.8</ele>
        <time>2015-09-27T11:45:32Z</time>
      </trkpt>
      <trkpt lat="45.43902" lon="3.45641">
        <ele>798.7</ele>
        <time>2015-09-27T11:45:33Z</time>
      </trkpt>
      <trkpt lat="45.43904" lon="3.45618">
        <ele>797.6</ele>
        <time>2015-09-27T11:45:44Z</time>
      </trkpt>
      <trkpt lat="45.43905" lon="3.45606">
        <ele>797.1</ele>
        <time>2015-09-27T11:45:50Z</time>
      </trkpt>
      <trkpt lat="45.43906" lon="3.45594">
        <ele>798.6</ele>
        <time>2015-09-27T11:45:56Z</time>
      </trkpt>
      <trkpt lat="45.43908" lon="3.45582">
        <ele>796.9</ele>
        <time>2015-09-27T11:46:02Z</time>
      </trkpt>
      <trkpt lat="45.43909" lon="3.45569">
        <ele>796.4</ele>
        <time>2015-09-27T11:46:08Z</time>
      </trkpt>
      <trkpt lat="45.4391" lon="3.45557">
        <ele>795.9</ele>
        <time>2015-09-27T11:46:14Z</time>
      </trkpt>
      <trkpt lat="45.43911" lon="3.45545">
        <ele>797.7</ele>
        <time>2015-09-27T11:46:20Z</time>
      </trkpt>
      <trkpt lat="45.43911" lon="3.45533">
        <ele>796.1</ele>
        <time>2015-09-27T11:46:26Z</time>
      </trkpt>
      <trkpt lat="45.43912" lon="3.45521">
        <ele>796.5</ele>
        <time>2015-09-27T11:46:32Z</time>
      </trkpt>
      <trkpt lat="45.43912" lon="3.45509">
        <ele>796.5</ele>
        <time>2015-09-27T11:46:38Z</time>
      </trkpt>
      <trkpt lat="45.43912" lon="3.45507">
        <ele>796.4</ele>
        <time>2015-09-27T11:46:39Z</time>
      </trkpt>
      <trkpt lat="45.43913" lon="3.45487">
        <ele>796.5</ele>
        <time>2015-09-27T11:46:50Z</time>
      </trkpt>
      <trkpt lat="45.43914" lon="3.45477">
        <ele>795.7</ele>
        <time>2015-09-27T11:46:55Z</time>
      </trkpt>
      <trkpt lat="45.43917" lon="3.45467">
        <ele>795.4</ele>
        <time>2015-09-27T11:47:00Z</time>
      </trkpt>
      <trkpt lat="45.43919" lon="3.45456">
        <ele>796.1</ele>
        <time>2015-09-27T11:47:05Z</time>
      </trkpt>
      <trkpt lat="45.43921" lon="3.45446">
        <ele>795.8</ele>
        <time>2015-09-27T11:47:10Z</time>
      </trkpt>
      <trkpt lat="45.43923" lon="3.45433">
        <ele>795.5</ele>
        <time>2015-09-27T11:47:16Z</time>
      </trkpt>
      <trkpt lat="45.43924" lon="3.45422">
        <ele>795.7</ele>
        <time>2015-09-27T11:47:21Z</time>
      </trkpt>
      <trkpt lat="45.43926" lon="3.45411">
        <ele>795.1</ele>
        <time>2015-09-27T11:47:26Z</time>
      </trkpt>
      <trkpt lat="45.43926" lon="3.454">
        <ele>794.6</ele>
        <time>2015-09-27T11:47:32Z</time>
      </trkpt>
      <trkpt lat="45.43926" lon="3.45389">
        <ele>794.9</ele>
        <time>2015-09-27T11:47:37Z</time>
      </trkpt>
      <trkpt lat="45.43927" lon="3.45376">
        <ele>794.3</ele>
        <time>2015-09-27T11:47:43Z</time>
      </trkpt>
      <trkpt lat="45.43927" lon="3.45374">
        <ele>794.6</ele>
        <time>2015-09-27T11:47:44Z</time>
      </trkpt>
      <trkpt lat="45.43927" lon="3.45352">
        <ele>793.7</ele>
        <time>2015-09-27T11:47:55Z</time>
      </trkpt>
      <trkpt lat="45.43929" lon="3.4534">
        <ele>794</ele>
        <time>2015-09-27T11:48:01Z</time>
      </trkpt>
      <trkpt lat="45.4393" lon="3.45328">
        <ele>792.8</ele>
        <time>2015-09-27T11:48:07Z</time>
      </trkpt>
      <trkpt lat="45.43931" lon="3.45317">
        <ele>792.6</ele>
        <time>2015-09-27T11:48:13Z</time>
      </trkpt>
      <trkpt lat="45.43932" lon="3.45305">
        <ele>793</ele>
        <time>2015-09-27T11:48:19Z</time>
      </trkpt>
      <trkpt lat="45.43933" lon="3.45292">
        <ele>793.1</ele>
        <time>2015-09-27T11:48:25Z</time>
      </trkpt>
      <trkpt lat="45.43932" lon="3.45282">
        <ele>793.3</ele>
        <time>2015-09-27T11:48:30Z</time>
      </trkpt>
      <trkpt lat="45.4393" lon="3.45271">
        <ele>791.6</ele>
        <time>2015-09-27T11:48:35Z</time>
      </trkpt>
      <trkpt lat="45.43926" lon="3.4526">
        <ele>791.7</ele>
        <time>2015-09-27T11:48:41Z</time>
      </trkpt>
      <trkpt lat="45.43922" lon="3.45249">
        <ele>790.6</ele>
        <time>2015-09-27T11:48:47Z</time>
      </trkpt>
      <trkpt lat="45.43921" lon="3.45248">
        <ele>790.2</ele>
        <time>2015-09-27T11:48:48Z</time>
      </trkpt>
      <trkpt lat="45.4391" lon="3.45231">
        <ele>789.7</ele>
        <time>2015-09-27T11:48:59Z</time>
      </trkpt>
      <trkpt lat="45.43904" lon="3.45222">
        <ele>789.1</ele>
        <time>2015-09-27T11:49:05Z</time>
      </trkpt>
      <trkpt lat="45.439" lon="3.45213">
        <ele>788.2</ele>
        <time>2015-09-27T11:49:11Z</time>
      </trkpt>
      <trkpt lat="45.43896" lon="3.45202">
        <ele>787.6</ele>
        <time>2015-09-27T11:49:17Z</time>
      </trkpt>
      <trkpt lat="45.43894" lon="3.45191">
        <ele>786.7</ele>
        <time>2015-09-27T11:49:23Z</time>
      </trkpt>
      <trkpt lat="45.43892" lon="3.45179">
        <ele>787.1</ele>
        <time>2015-09-27T11:49:29Z</time>
      </trkpt>
      <trkpt lat="45.43892" lon="3.45168">
        <ele>786.8</ele>
        <time>2015-09-27T11:49:35Z</time>
      </trkpt>
      <trkpt lat="45.43892" lon="3.45156">
        <ele>785.8</ele>
        <time>2015-09-27T11:49:41Z</time>
      </trkpt>
      <trkpt lat="45.43891" lon="3.45144">
        <ele>784.9</ele>
        <time>2015-09-27T11:49:47Z</time>
      </trkpt>
      <trkpt lat="45.43891" lon="3.45132">
        <ele>784.1</ele>
        <time>2015-09-27T11:49:53Z</time>
      </trkpt>
      <trkpt lat="45.43891" lon="3.4513">
        <ele>784</ele>
        <time>2015-09-27T11:49:54Z</time>
      </trkpt>
      <trkpt lat="45.43889" lon="3.4511">
        <ele>783.6</ele>
        <time>2015-09-27T11:50:04Z</time>
      </trkpt>
      <trkpt lat="45.43886" lon="3.45098">
        <ele>782.3</ele>
        <time>2015-09-27T11:50:10Z</time>
      </trkpt>
      <trkpt lat="45.43882" lon="3.45089">
        <ele>782.7</ele>
        <time>2015-09-27T11:50:15Z</time>
      </trkpt>
      <trkpt lat="45.43877" lon="3.45079">
        <ele>782.1</ele>
        <time>2015-09-27T11:50:21Z</time>
      </trkpt>
      <trkpt lat="45.43871" lon="3.4507">
        <ele>781.8</ele>
        <time>2015-09-27T11:50:27Z</time>
      </trkpt>
      <trkpt lat="45.43865" lon="3.45062">
        <ele>780.7</ele>
        <time>2015-09-27T11:50:33Z</time>
      </trkpt>
      <trkpt lat="45.4386" lon="3.45052">
        <ele>780.9</ele>
        <time>2015-09-27T11:50:39Z</time>
      </trkpt>
      <trkpt lat="45.43856" lon="3.45042">
        <ele>780.5</ele>
        <time>2015-09-27T11:50:45Z</time>
      </trkpt>
      <trkpt lat="45.43852" lon="3.4503">
        <ele>779.9</ele>
        <time>2015-09-27T11:50:52Z</time>
      </trkpt>
      <trkpt lat="45.43849" lon="3.45018">
        <ele>779.5</ele>
        <time>2015-09-27T11:50:58Z</time>
      </trkpt>
      <trkpt lat="45.43848" lon="3.45016">
        <ele>779.5</ele>
        <time>2015-09-27T11:50:59Z</time>
      </trkpt>
      <trkpt lat="45.43845" lon="3.44995">
        <ele>779.2</ele>
        <time>2015-09-27T11:51:10Z</time>
      </trkpt>
      <trkpt lat="45.43843" lon="3.44983">
        <ele>778.6</ele>
        <time>2015-09-27T11:51:16Z</time>
      </trkpt>
      <trkpt lat="45.43842" lon="3.44972">
        <ele>778.5</ele>
        <time>2015-09-27T11:51:22Z</time>
      </trkpt>
      <trkpt lat="45.4384" lon="3.44961">
        <ele>778.4</ele>
        <time>2015-09-27T11:51:28Z</time>
      </trkpt>
      <trkpt lat="45.43839" lon="3.4495">
        <ele>778.8</ele>
        <time>2015-09-27T11:51:34Z</time>
      </trkpt>
      <trkpt lat="45.43837" lon="3.44938">
        <ele>778.6</ele>
        <time>2015-09-27T11:51:40Z</time>
      </trkpt>
      <trkpt lat="45.43834" lon="3.44926">
        <ele>777.6</ele>
        <time>2015-09-27T11:51:46Z</time>
      </trkpt>
      <trkpt lat="45.4383" lon="3.44915">
        <ele>777.9</ele>
        <time>2015-09-27T11:51:52Z</time>
      </trkpt>
      <trkpt lat="45.43825" lon="3.44905">
        <ele>779</ele>
        <time>2015-09-27T11:51:58Z</time>
      </trkpt>
      <trkpt lat="45.4382" lon="3.44896">
        <ele>779.6</ele>
        <time>2015-09-27T11:52:04Z</time>
      </trkpt>
      <trkpt lat="45.4382" lon="3.44895">
        <ele>779.4</ele>
        <time>2015-09-27T11:52:05Z</time>
      </trkpt>
      <trkpt lat="45.43809" lon="3.44879">
        <ele>780</ele>
        <time>2015-09-27T11:52:16Z</time>
      </trkpt>
      <trkpt lat="45.43803" lon="3.44871">
        <ele>780</ele>
        <time>2015-09-27T11:52:22Z</time>
      </trkpt>
      <trkpt lat="45.43798" lon="3.44862">
        <ele>781</ele>
        <time>2015-09-27T11:52:28Z</time>
      </trkpt>
      <trkpt lat="45.43794" lon="3.44852">
        <ele>781.1</ele>
        <time>2015-09-27T11:52:34Z</time>
      </trkpt>
      <trkpt lat="45.438" lon="3.44844">
        <ele>782.9</ele>
        <time>2015-09-27T11:52:43Z</time>
      </trkpt>
      <trkpt lat="45.43805" lon="3.44834">
        <ele>783.9</ele>
        <time>2015-09-27T11:52:51Z</time>
      </trkpt>
      <trkpt lat="45.43811" lon="3.44826">
        <ele>784</ele>
        <time>2015-09-27T11:52:57Z</time>
      </trkpt>
      <trkpt lat="45.43817" lon="3.44817">
        <ele>785</ele>
        <time>2015-09-27T11:53:04Z</time>
      </trkpt>
      <trkpt lat="45.43821" lon="3.44808">
        <ele>786.1</ele>
        <time>2015-09-27T11:53:20Z</time>
      </trkpt>
      <trkpt lat="45.43822" lon="3.44806">
        <ele>786</ele>
        <time>2015-09-27T11:53:21Z</time>
      </trkpt>
      <trkpt lat="45.43825" lon="3.44785">
        <ele>785.7</ele>
        <time>2015-09-27T11:53:34Z</time>
      </trkpt>
      <trkpt lat="45.43828" lon="3.44774">
        <ele>785.5</ele>
        <time>2015-09-27T11:53:41Z</time>
      </trkpt>
      <trkpt lat="45.43831" lon="3.44763">
        <ele>785</ele>
        <time>2015-09-27T11:53:48Z</time>
      </trkpt>
      <trkpt lat="45.43836" lon="3.44753">
        <ele>784.6</ele>
        <time>2015-09-27T11:53:55Z</time>
      </trkpt>
      <trkpt lat="45.43844" lon="3.44751">
        <ele>784.4</ele>
        <time>2015-09-27T11:54:02Z</time>
      </trkpt>
      <trkpt lat="45.43852" lon="3.44752">
        <ele>784.5</ele>
        <time>2015-09-27T11:54:08Z</time>
      </trkpt>
      <trkpt lat="45.4386" lon="3.44752">
        <ele>783.5</ele>
        <time>2015-09-27T11:54:14Z</time>
      </trkpt>
      <trkpt lat="45.43869" lon="3.44753">
        <ele>783.1</ele>
        <time>2015-09-27T11:54:20Z</time>
      </trkpt>
      <trkpt lat="45.43877" lon="3.44754">
        <ele>784</ele>
        <time>2015-09-27T11:54:26Z</time>
      </trkpt>
      <trkpt lat="45.43879" lon="3.44755">
        <ele>784.3</ele>
        <time>2015-09-27T11:54:27Z</time>
      </trkpt>
      <trkpt lat="45.43894" lon="3.44756">
        <ele>785.1</ele>
        <time>2015-09-27T11:54:38Z</time>
      </trkpt>
      <trkpt lat="45.43903" lon="3.44757">
        <ele>784.5</ele>
        <time>2015-09-27T11:54:44Z</time>
      </trkpt>
      <trkpt lat="45.4391" lon="3.44757">
        <ele>784.2</ele>
        <time>2015-09-27T11:54:49Z</time>
      </trkpt>
      <trkpt lat="45.43919" lon="3.44757">
        <ele>784.8</ele>
        <time>2015-09-27T11:54:55Z</time>
      </trkpt>
      <trkpt lat="45.43927" lon="3.44755">
        <ele>786.2</ele>
        <time>2015-09-27T11:55:01Z</time>
      </trkpt>
      <trkpt lat="45.43936" lon="3.44751">
        <ele>786</ele>
        <time>2015-09-27T11:55:07Z</time>
      </trkpt>
      <trkpt lat="45.43943" lon="3.44747">
        <ele>785.5</ele>
        <time>2015-09-27T11:55:13Z</time>
      </trkpt>
      <trkpt lat="45.43951" lon="3.44743">
        <ele>785.4</ele>
        <time>2015-09-27T11:55:20Z</time>
      </trkpt>
      <trkpt lat="45.43957" lon="3.44738">
        <ele>785.7</ele>
        <time>2015-09-27T11:55:26Z</time>
      </trkpt>
      <trkpt lat="45.43965" lon="3.44732">
        <ele>785</ele>
        <time>2015-09-27T11:55:32Z</time>
      </trkpt>
      <trkpt lat="45.43966" lon="3.44731">
        <ele>785.1</ele>
        <time>2015-09-27T11:55:33Z</time>
      </trkpt>
      <trkpt lat="45.43979" lon="3.4472">
        <ele>785.3</ele>
        <time>2015-09-27T11:55:45Z</time>
      </trkpt>
      <trkpt lat="45.43987" lon="3.44714">
        <ele>785</ele>
        <time>2015-09-27T11:55:52Z</time>
      </trkpt>
      <trkpt lat="45.43994" lon="3.44709">
        <ele>783.4</ele>
        <time>2015-09-27T11:55:58Z</time>
      </trkpt>
      <trkpt lat="45.44001" lon="3.44705">
        <ele>783.2</ele>
        <time>2015-09-27T11:56:04Z</time>
      </trkpt>
      <trkpt lat="45.4401" lon="3.447">
        <ele>783.8</ele>
        <time>2015-09-27T11:56:10Z</time>
      </trkpt>
      <trkpt lat="45.44017" lon="3.44695">
        <ele>783.2</ele>
        <time>2015-09-27T11:56:16Z</time>
      </trkpt>
      <trkpt lat="45.44025" lon="3.44691">
        <ele>782.7</ele>
        <time>2015-09-27T11:56:22Z</time>
      </trkpt>
      <trkpt lat="45.44033" lon="3.44685">
        <ele>781.7</ele>
        <time>2015-09-27T11:56:28Z</time>
      </trkpt>
      <trkpt lat="45.44041" lon="3.44679">
        <ele>780.2</ele>
        <time>2015-09-27T11:56:34Z</time>
      </trkpt>
      <trkpt lat="45.44043" lon="3.44679">
        <ele>780.2</ele>
        <time>2015-09-27T11:56:35Z</time>
      </trkpt>
      <trkpt lat="45.44055" lon="3.44669">
        <ele>779.6</ele>
        <time>2015-09-27T11:56:50Z</time>
      </trkpt>
      <trkpt lat="45.44063" lon="3.44664">
        <ele>779.3</ele>
        <time>2015-09-27T11:56:56Z</time>
      </trkpt>
      <trkpt lat="45.4407" lon="3.44658">
        <ele>778.4</ele>
        <time>2015-09-27T11:57:02Z</time>
      </trkpt>
      <trkpt lat="45.44078" lon="3.44653">
        <ele>778.3</ele>
        <time>2015-09-27T11:57:08Z</time>
      </trkpt>
      <trkpt lat="45.44085" lon="3.44648">
        <ele>776.5</ele>
        <time>2015-09-27T11:57:14Z</time>
      </trkpt>
      <trkpt lat="45.44094" lon="3.44645">
        <ele>775.9</ele>
        <time>2015-09-27T11:57:21Z</time>
      </trkpt>
      <trkpt lat="45.44102" lon="3.44643">
        <ele>775.9</ele>
        <time>2015-09-27T11:57:27Z</time>
      </trkpt>
      <trkpt lat="45.4411" lon="3.44643">
        <ele>774.3</ele>
        <time>2015-09-27T11:57:33Z</time>
      </trkpt>
      <trkpt lat="45.44118" lon="3.44643">
        <ele>773.2</ele>
        <time>2015-09-27T11:57:39Z</time>
      </trkpt>
      <trkpt lat="45.44119" lon="3.44643">
        <ele>773.4</ele>
        <time>2015-09-27T11:57:40Z</time>
      </trkpt>
      <trkpt lat="45.44134" lon="3.44644">
        <ele>771</ele>
        <time>2015-09-27T11:57:52Z</time>
      </trkpt>
      <trkpt lat="45.44143" lon="3.44642">
        <ele>768.8</ele>
        <time>2015-09-27T11:57:59Z</time>
      </trkpt>
      <trkpt lat="45.44149" lon="3.44634">
        <ele>767.3</ele>
        <time>2015-09-27T11:58:05Z</time>
      </trkpt>
      <trkpt lat="45.44151" lon="3.44624">
        <ele>766.9</ele>
        <time>2015-09-27T11:58:11Z</time>
      </trkpt>
      <trkpt lat="45.44152" lon="3.44612">
        <ele>765.7</ele>
        <time>2015-09-27T11:58:17Z</time>
      </trkpt>
      <trkpt lat="45.44152" lon="3.44604">
        <ele>763.9</ele>
        <time>2015-09-27T11:58:35Z</time>
      </trkpt>
      <trkpt lat="45.44152" lon="3.44604">
        <ele>764.1</ele>
        <time>2015-09-27T11:58:36Z</time>
      </trkpt>
      <trkpt lat="45.44154" lon="3.44586">
        <ele>763</ele>
        <time>2015-09-27T12:20:09Z</time>
      </trkpt>
      <trkpt lat="45.44154" lon="3.44574">
        <ele>761.6</ele>
        <time>2015-09-27T12:20:16Z</time>
      </trkpt>
      <trkpt lat="45.44153" lon="3.44562">
        <ele>760.2</ele>
        <time>2015-09-27T12:20:22Z</time>
      </trkpt>
      <trkpt lat="45.44152" lon="3.44551">
        <ele>760.2</ele>
        <time>2015-09-27T12:20:28Z</time>
      </trkpt>
      <trkpt lat="45.44152" lon="3.44549">
        <ele>760.1</ele>
        <time>2015-09-27T12:20:29Z</time>
      </trkpt>
      <trkpt lat="45.44151" lon="3.44527">
        <ele>758.7</ele>
        <time>2015-09-27T12:20:40Z</time>
      </trkpt>
      <trkpt lat="45.44149" lon="3.44516">
        <ele>757.9</ele>
        <time>2015-09-27T12:20:46Z</time>
      </trkpt>
      <trkpt lat="45.44149" lon="3.44504">
        <ele>757.8</ele>
        <time>2015-09-27T12:20:52Z</time>
      </trkpt>
      <trkpt lat="45.44148" lon="3.44494">
        <ele>757</ele>
        <time>2015-09-27T12:20:57Z</time>
      </trkpt>
      <trkpt lat="45.44146" lon="3.44482">
        <ele>756.7</ele>
        <time>2015-09-27T12:21:02Z</time>
      </trkpt>
      <trkpt lat="45.44146" lon="3.4447">
        <ele>756.3</ele>
        <time>2015-09-27T12:21:07Z</time>
      </trkpt>
      <trkpt lat="45.44146" lon="3.44458">
        <ele>756.3</ele>
        <time>2015-09-27T12:21:12Z</time>
      </trkpt>
      <trkpt lat="45.44147" lon="3.44446">
        <ele>756.4</ele>
        <time>2015-09-27T12:21:17Z</time>
      </trkpt>
      <trkpt lat="45.44148" lon="3.44434">
        <ele>756.3</ele>
        <time>2015-09-27T12:21:22Z</time>
      </trkpt>
      <trkpt lat="45.44149" lon="3.44423">
        <ele>756.1</ele>
        <time>2015-09-27T12:21:27Z</time>
      </trkpt>
      <trkpt lat="45.4415" lon="3.44412">
        <ele>756</ele>
        <time>2015-09-27T12:21:32Z</time>
      </trkpt>
      <trkpt lat="45.4415" lon="3.4441">
        <ele>756.1</ele>
        <time>2015-09-27T12:21:33Z</time>
      </trkpt>
      <trkpt lat="45.44152" lon="3.4439">
        <ele>754.4</ele>
        <time>2015-09-27T12:21:44Z</time>
      </trkpt>
      <trkpt lat="45.44152" lon="3.44378">
        <ele>754.2</ele>
        <time>2015-09-27T12:21:50Z</time>
      </trkpt>
      <trkpt lat="45.44154" lon="3.44366">
        <ele>753.6</ele>
        <time>2015-09-27T12:21:56Z</time>
      </trkpt>
      <trkpt lat="45.44155" lon="3.44353">
        <ele>752.7</ele>
        <time>2015-09-27T12:22:02Z</time>
      </trkpt>
      <trkpt lat="45.44156" lon="3.44342">
        <ele>750.7</ele>
        <time>2015-09-27T12:22:08Z</time>
      </trkpt>
      <trkpt lat="45.44158" lon="3.44331">
        <ele>748.9</ele>
        <time>2015-09-27T12:22:15Z</time>
      </trkpt>
      <trkpt lat="45.44158" lon="3.4432">
        <ele>747.7</ele>
        <time>2015-09-27T12:22:22Z</time>
      </trkpt>
      <trkpt lat="45.44158" lon="3.44308">
        <ele>747</ele>
        <time>2015-09-27T12:22:28Z</time>
      </trkpt>
      <trkpt lat="45.44156" lon="3.44295">
        <ele>746.5</ele>
        <time>2015-09-27T12:22:34Z</time>
      </trkpt>
      <trkpt lat="45.44155" lon="3.44293">
        <ele>746.4</ele>
        <time>2015-09-27T12:22:35Z</time>
      </trkpt>
      <trkpt lat="45.4415" lon="3.44273">
        <ele>743.6</ele>
        <time>2015-09-27T12:22:45Z</time>
      </trkpt>
      <trkpt lat="45.44148" lon="3.4426">
        <ele>742.2</ele>
        <time>2015-09-27T12:22:52Z</time>
      </trkpt>
      <trkpt lat="45.44147" lon="3.44249">
        <ele>741.8</ele>
        <time>2015-09-27T12:22:59Z</time>
      </trkpt>
      <trkpt lat="45.44147" lon="3.44237">
        <ele>741.4</ele>
        <time>2015-09-27T12:23:06Z</time>
      </trkpt>
      <trkpt lat="45.4415" lon="3.44226">
        <ele>740.7</ele>
        <time>2015-09-27T12:23:12Z</time>
      </trkpt>
      <trkpt lat="45.44152" lon="3.44215">
        <ele>740</ele>
        <time>2015-09-27T12:23:18Z</time>
      </trkpt>
      <trkpt lat="45.44156" lon="3.44205">
        <ele>738.7</ele>
        <time>2015-09-27T12:23:23Z</time>
      </trkpt>
      <trkpt lat="45.4416" lon="3.44195">
        <ele>737.3</ele>
        <time>2015-09-27T12:23:29Z</time>
      </trkpt>
      <trkpt lat="45.44163" lon="3.44183">
        <ele>735.8</ele>
        <time>2015-09-27T12:23:35Z</time>
      </trkpt>
      <trkpt lat="45.44159" lon="3.44173">
        <ele>735.7</ele>
        <time>2015-09-27T12:23:56Z</time>
      </trkpt>
      <trkpt lat="45.44158" lon="3.44173">
        <ele>735.4</ele>
        <time>2015-09-27T12:23:57Z</time>
      </trkpt>
      <trkpt lat="45.44154" lon="3.44151">
        <ele>735.8</ele>
        <time>2015-09-27T12:24:19Z</time>
      </trkpt>
      <trkpt lat="45.44157" lon="3.4414">
        <ele>733.7</ele>
        <time>2015-09-27T12:24:24Z</time>
      </trkpt>
      <trkpt lat="45.44158" lon="3.44128">
        <ele>733.8</ele>
        <time>2015-09-27T12:24:29Z</time>
      </trkpt>
      <trkpt lat="45.44161" lon="3.44117">
        <ele>733</ele>
        <time>2015-09-27T12:24:34Z</time>
      </trkpt>
      <trkpt lat="45.44167" lon="3.4411">
        <ele>731.5</ele>
        <time>2015-09-27T12:24:42Z</time>
      </trkpt>
      <trkpt lat="45.44169" lon="3.441">
        <ele>728.5</ele>
        <time>2015-09-27T12:24:49Z</time>
      </trkpt>
      <trkpt lat="45.44168" lon="3.44089">
        <ele>728.1</ele>
        <time>2015-09-27T12:24:54Z</time>
      </trkpt>
      <trkpt lat="45.4417" lon="3.44078">
        <ele>726.4</ele>
        <time>2015-09-27T12:24:59Z</time>
      </trkpt>
      <trkpt lat="45.4417" lon="3.44076">
        <ele>726</ele>
        <time>2015-09-27T12:25:00Z</time>
      </trkpt>
      <trkpt lat="45.44177" lon="3.44058">
        <ele>723.2</ele>
        <time>2015-09-27T12:25:10Z</time>
      </trkpt>
      <trkpt lat="45.44183" lon="3.44049">
        <ele>722.4</ele>
        <time>2015-09-27T12:25:14Z</time>
      </trkpt>
      <trkpt lat="45.44188" lon="3.4404">
        <ele>720.9</ele>
        <time>2015-09-27T12:25:18Z</time>
      </trkpt>
      <trkpt lat="45.44192" lon="3.44031">
        <ele>719.6</ele>
        <time>2015-09-27T12:25:22Z</time>
      </trkpt>
      <trkpt lat="45.44197" lon="3.44021">
        <ele>717.9</ele>
        <time>2015-09-27T12:25:26Z</time>
      </trkpt>
      <trkpt lat="45.44199" lon="3.44011">
        <ele>716.5</ele>
        <time>2015-09-27T12:25:29Z</time>
      </trkpt>
      <trkpt lat="45.44201" lon="3.44001">
        <ele>716.2</ele>
        <time>2015-09-27T12:25:33Z</time>
      </trkpt>
      <trkpt lat="45.44202" lon="3.4399">
        <ele>715.5</ele>
        <time>2015-09-27T12:25:37Z</time>
      </trkpt>
      <trkpt lat="45.44203" lon="3.43978">
        <ele>714.2</ele>
        <time>2015-09-27T12:25:42Z</time>
      </trkpt>
      <trkpt lat="45.44203" lon="3.43967">
        <ele>713.6</ele>
        <time>2015-09-27T12:25:46Z</time>
      </trkpt>
      <trkpt lat="45.44204" lon="3.43955">
        <ele>712.7</ele>
        <time>2015-09-27T12:25:50Z</time>
      </trkpt>
      <trkpt lat="45.44205" lon="3.43943">
        <ele>713.2</ele>
        <time>2015-09-27T12:25:54Z</time>
      </trkpt>
      <trkpt lat="45.44206" lon="3.43933">
        <ele>712.5</ele>
        <time>2015-09-27T12:25:58Z</time>
      </trkpt>
      <trkpt lat="45.44206" lon="3.43923">
        <ele>712.3</ele>
        <time>2015-09-27T12:26:02Z</time>
      </trkpt>
      <trkpt lat="45.44206" lon="3.4392">
        <ele>712</ele>
        <time>2015-09-27T12:26:03Z</time>
      </trkpt>
      <trkpt lat="45.44204" lon="3.439">
        <ele>711.4</ele>
        <time>2015-09-27T12:26:11Z</time>
      </trkpt>
      <trkpt lat="45.442" lon="3.43891">
        <ele>711.5</ele>
        <time>2015-09-27T12:26:15Z</time>
      </trkpt>
      <trkpt lat="45.44196" lon="3.43882">
        <ele>711.6</ele>
        <time>2015-09-27T12:26:19Z</time>
      </trkpt>
      <trkpt lat="45.44191" lon="3.43872">
        <ele>710.7</ele>
        <time>2015-09-27T12:26:24Z</time>
      </trkpt>
      <trkpt lat="45.44185" lon="3.43863">
        <ele>709.9</ele>
        <time>2015-09-27T12:26:31Z</time>
      </trkpt>
      <trkpt lat="45.44182" lon="3.43853">
        <ele>708.6</ele>
        <time>2015-09-27T12:26:37Z</time>
      </trkpt>
      <trkpt lat="45.4418" lon="3.43841">
        <ele>707.9</ele>
        <time>2015-09-27T12:26:43Z</time>
      </trkpt>
      <trkpt lat="45.44179" lon="3.43828">
        <ele>705.7</ele>
        <time>2015-09-27T12:26:48Z</time>
      </trkpt>
      <trkpt lat="45.44176" lon="3.43816">
        <ele>704.8</ele>
        <time>2015-09-27T12:26:53Z</time>
      </trkpt>
      <trkpt lat="45.44173" lon="3.43805">
        <ele>703.3</ele>
        <time>2015-09-27T12:26:58Z</time>
      </trkpt>
      <trkpt lat="45.44169" lon="3.43795">
        <ele>702.6</ele>
        <time>2015-09-27T12:27:03Z</time>
      </trkpt>
      <trkpt lat="45.44167" lon="3.43784">
        <ele>701.7</ele>
        <time>2015-09-27T12:27:08Z</time>
      </trkpt>
      <trkpt lat="45.44167" lon="3.43781">
        <ele>701.6</ele>
        <time>2015-09-27T12:27:09Z</time>
      </trkpt>
      <trkpt lat="45.44165" lon="3.4376">
        <ele>699</ele>
        <time>2015-09-27T12:27:19Z</time>
      </trkpt>
      <trkpt lat="45.44163" lon="3.43749">
        <ele>697.1</ele>
        <time>2015-09-27T12:27:26Z</time>
      </trkpt>
      <trkpt lat="45.44162" lon="3.43736">
        <ele>695.4</ele>
        <time>2015-09-27T12:27:33Z</time>
      </trkpt>
      <trkpt lat="45.44163" lon="3.43725">
        <ele>694</ele>
        <time>2015-09-27T12:27:39Z</time>
      </trkpt>
      <trkpt lat="45.44164" lon="3.43713">
        <ele>693.5</ele>
        <time>2015-09-27T12:27:45Z</time>
      </trkpt>
      <trkpt lat="45.44164" lon="3.43702">
        <ele>692.2</ele>
        <time>2015-09-27T12:27:52Z</time>
      </trkpt>
      <trkpt lat="45.44163" lon="3.4369">
        <ele>690.8</ele>
        <time>2015-09-27T12:27:58Z</time>
      </trkpt>
      <trkpt lat="45.44163" lon="3.43678">
        <ele>690.1</ele>
        <time>2015-09-27T12:28:04Z</time>
      </trkpt>
      <trkpt lat="45.44165" lon="3.43666">
        <ele>688</ele>
        <time>2015-09-27T12:28:11Z</time>
      </trkpt>
      <trkpt lat="45.44165" lon="3.43665">
        <ele>688.4</ele>
        <time>2015-09-27T12:28:12Z</time>
      </trkpt>
      <trkpt lat="45.44168" lon="3.43643">
        <ele>685.5</ele>
        <time>2015-09-27T12:28:23Z</time>
      </trkpt>
      <trkpt lat="45.44169" lon="3.4363">
        <ele>684.6</ele>
        <time>2015-09-27T12:28:29Z</time>
      </trkpt>
      <trkpt lat="45.44171" lon="3.43619">
        <ele>684</ele>
        <time>2015-09-27T12:28:35Z</time>
      </trkpt>
      <trkpt lat="45.44173" lon="3.43608">
        <ele>683.3</ele>
        <time>2015-09-27T12:28:41Z</time>
      </trkpt>
      <trkpt lat="45.44176" lon="3.43598">
        <ele>681.7</ele>
        <time>2015-09-27T12:28:46Z</time>
      </trkpt>
      <trkpt lat="45.44178" lon="3.43586">
        <ele>681.4</ele>
        <time>2015-09-27T12:28:51Z</time>
      </trkpt>
      <trkpt lat="45.4418" lon="3.43574">
        <ele>680.1</ele>
        <time>2015-09-27T12:28:57Z</time>
      </trkpt>
      <trkpt lat="45.44181" lon="3.43563">
        <ele>679.9</ele>
        <time>2015-09-27T12:29:02Z</time>
      </trkpt>
      <trkpt lat="45.44183" lon="3.43551">
        <ele>679.4</ele>
        <time>2015-09-27T12:29:06Z</time>
      </trkpt>
      <trkpt lat="45.44183" lon="3.4354">
        <ele>678.9</ele>
        <time>2015-09-27T12:29:10Z</time>
      </trkpt>
      <trkpt lat="45.44183" lon="3.43528">
        <ele>677.7</ele>
        <time>2015-09-27T12:29:15Z</time>
      </trkpt>
      <trkpt lat="45.44183" lon="3.43526">
        <ele>677.7</ele>
        <time>2015-09-27T12:29:16Z</time>
      </trkpt>
      <trkpt lat="45.44184" lon="3.43503">
        <ele>676.1</ele>
        <time>2015-09-27T12:29:26Z</time>
      </trkpt>
      <trkpt lat="45.44183" lon="3.43491">
        <ele>674.6</ele>
        <time>2015-09-27T12:29:31Z</time>
      </trkpt>
      <trkpt lat="45.44182" lon="3.43481">
        <ele>672.7</ele>
        <time>2015-09-27T12:29:36Z</time>
      </trkpt>
      <trkpt lat="45.44183" lon="3.43469">
        <ele>671.5</ele>
        <time>2015-09-27T12:29:42Z</time>
      </trkpt>
      <trkpt lat="45.44185" lon="3.43459">
        <ele>669.7</ele>
        <time>2015-09-27T12:29:48Z</time>
      </trkpt>
      <trkpt lat="45.44188" lon="3.43447">
        <ele>667.2</ele>
        <time>2015-09-27T12:29:56Z</time>
      </trkpt>
      <trkpt lat="45.4419" lon="3.43435">
        <ele>666.2</ele>
        <time>2015-09-27T12:30:03Z</time>
      </trkpt>
      <trkpt lat="45.44191" lon="3.43423">
        <ele>664.9</ele>
        <time>2015-09-27T12:30:08Z</time>
      </trkpt>
      <trkpt lat="45.44194" lon="3.43412">
        <ele>664</ele>
        <time>2015-09-27T12:30:14Z</time>
      </trkpt>
      <trkpt lat="45.44203" lon="3.43408">
        <ele>662.9</ele>
        <time>2015-09-27T12:30:20Z</time>
      </trkpt>
      <trkpt lat="45.44204" lon="3.43408">
        <ele>662.9</ele>
        <time>2015-09-27T12:30:21Z</time>
      </trkpt>
      <trkpt lat="45.44205" lon="3.43399">
        <ele>662</ele>
        <time>2015-09-27T12:30:46Z</time>
      </trkpt>
      <trkpt lat="45.44199" lon="3.43394">
        <ele>660.7</ele>
        <time>2015-09-27T12:30:50Z</time>
      </trkpt>
      <trkpt lat="45.44196" lon="3.43384">
        <ele>660</ele>
        <time>2015-09-27T12:30:53Z</time>
      </trkpt>
      <trkpt lat="45.44197" lon="3.43373">
        <ele>658.7</ele>
        <time>2015-09-27T12:30:57Z</time>
      </trkpt>
      <trkpt lat="45.44201" lon="3.43363">
        <ele>658.2</ele>
        <time>2015-09-27T12:31:01Z</time>
      </trkpt>
      <trkpt lat="45.44203" lon="3.43351">
        <ele>656.7</ele>
        <time>2015-09-27T12:31:05Z</time>
      </trkpt>
      <trkpt lat="45.44205" lon="3.43339">
        <ele>655.5</ele>
        <time>2015-09-27T12:31:11Z</time>
      </trkpt>
      <trkpt lat="45.44206" lon="3.43328">
        <ele>654.4</ele>
        <time>2015-09-27T12:31:16Z</time>
      </trkpt>
      <trkpt lat="45.44207" lon="3.43317">
        <ele>653.5</ele>
        <time>2015-09-27T12:31:21Z</time>
      </trkpt>
      <trkpt lat="45.44207" lon="3.43304">
        <ele>652.5</ele>
        <time>2015-09-27T12:31:27Z</time>
      </trkpt>
      <trkpt lat="45.44207" lon="3.43302">
        <ele>652.3</ele>
        <time>2015-09-27T12:31:28Z</time>
      </trkpt>
      <trkpt lat="45.44207" lon="3.43284">
        <ele>650.5</ele>
        <time>2015-09-27T12:31:34Z</time>
      </trkpt>
      <trkpt lat="45.44206" lon="3.43272">
        <ele>649.1</ele>
        <time>2015-09-27T12:31:39Z</time>
      </trkpt>
      <trkpt lat="45.44206" lon="3.43261">
        <ele>648</ele>
        <time>2015-09-27T12:31:44Z</time>
      </trkpt>
      <trkpt lat="45.44205" lon="3.43249">
        <ele>646.2</ele>
        <time>2015-09-27T12:31:49Z</time>
      </trkpt>
      <trkpt lat="45.44203" lon="3.43238">
        <ele>644.8</ele>
        <time>2015-09-27T12:31:54Z</time>
      </trkpt>
      <trkpt lat="45.44202" lon="3.43227">
        <ele>643.8</ele>
        <time>2015-09-27T12:31:59Z</time>
      </trkpt>
      <trkpt lat="45.44201" lon="3.43215">
        <ele>642.7</ele>
        <time>2015-09-27T12:32:03Z</time>
      </trkpt>
      <trkpt lat="45.44201" lon="3.43203">
        <ele>640.2</ele>
        <time>2015-09-27T12:32:09Z</time>
      </trkpt>
      <trkpt lat="45.44201" lon="3.43191">
        <ele>637.9</ele>
        <time>2015-09-27T12:32:16Z</time>
      </trkpt>
      <trkpt lat="45.442" lon="3.43179">
        <ele>636.2</ele>
        <time>2015-09-27T12:32:22Z</time>
      </trkpt>
      <trkpt lat="45.44199" lon="3.43168">
        <ele>634.4</ele>
        <time>2015-09-27T12:32:26Z</time>
      </trkpt>
      <trkpt lat="45.44198" lon="3.43157">
        <ele>633.6</ele>
        <time>2015-09-27T12:32:31Z</time>
      </trkpt>
      <trkpt lat="45.44197" lon="3.43154">
        <ele>633.2</ele>
        <time>2015-09-27T12:32:32Z</time>
      </trkpt>
      <trkpt lat="45.44194" lon="3.43135">
        <ele>630.9</ele>
        <time>2015-09-27T12:32:40Z</time>
      </trkpt>
      <trkpt lat="45.44192" lon="3.43126">
        <ele>629.4</ele>
        <time>2015-09-27T12:32:43Z</time>
      </trkpt>
      <trkpt lat="45.4419" lon="3.43117">
        <ele>629.2</ele>
        <time>2015-09-27T12:32:45Z</time>
      </trkpt>
      <trkpt lat="45.44188" lon="3.43107">
        <ele>628.7</ele>
        <time>2015-09-27T12:32:48Z</time>
      </trkpt>
      <trkpt lat="45.44186" lon="3.43096">
        <ele>626.5</ele>
        <time>2015-09-27T12:32:53Z</time>
      </trkpt>
      <trkpt lat="45.44185" lon="3.43085">
        <ele>625.9</ele>
        <time>2015-09-27T12:32:58Z</time>
      </trkpt>
      <trkpt lat="45.44184" lon="3.43073">
        <ele>623.8</ele>
        <time>2015-09-27T12:33:04Z</time>
      </trkpt>
      <trkpt lat="45.44182" lon="3.43061">
        <ele>622.6</ele>
        <time>2015-09-27T12:33:10Z</time>
      </trkpt>
      <trkpt lat="45.4418" lon="3.43051">
        <ele>621.5</ele>
        <time>2015-09-27T12:33:15Z</time>
      </trkpt>
      <trkpt lat="45.44176" lon="3.43039">
        <ele>620.9</ele>
        <time>2015-09-27T12:33:19Z</time>
      </trkpt>
      <trkpt lat="45.44173" lon="3.43027">
        <ele>619.4</ele>
        <time>2015-09-27T12:33:24Z</time>
      </trkpt>
      <trkpt lat="45.4417" lon="3.43018">
        <ele>618.9</ele>
        <time>2015-09-27T12:33:28Z</time>
      </trkpt>
      <trkpt lat="45.44165" lon="3.43008">
        <ele>617.8</ele>
        <time>2015-09-27T12:33:32Z</time>
      </trkpt>
      <trkpt lat="45.44161" lon="3.42998">
        <ele>617.3</ele>
        <time>2015-09-27T12:33:36Z</time>
      </trkpt>
      <trkpt lat="45.4416" lon="3.42997">
        <ele>616.7</ele>
        <time>2015-09-27T12:33:37Z</time>
      </trkpt>
      <trkpt lat="45.4415" lon="3.42982">
        <ele>615.3</ele>
        <time>2015-09-27T12:33:45Z</time>
      </trkpt>
      <trkpt lat="45.44144" lon="3.42975">
        <ele>614.3</ele>
        <time>2015-09-27T12:33:49Z</time>
      </trkpt>
      <trkpt lat="45.44143" lon="3.42964">
        <ele>614.3</ele>
        <time>2015-09-27T12:33:54Z</time>
      </trkpt>
      <trkpt lat="45.44147" lon="3.42954">
        <ele>612.5</ele>
        <time>2015-09-27T12:33:59Z</time>
      </trkpt>
      <trkpt lat="45.44155" lon="3.42953">
        <ele>610.2</ele>
        <time>2015-09-27T12:34:05Z</time>
      </trkpt>
      <trkpt lat="45.44163" lon="3.42959">
        <ele>609.2</ele>
        <time>2015-09-27T12:34:10Z</time>
      </trkpt>
      <trkpt lat="45.44169" lon="3.42967">
        <ele>606.8</ele>
        <time>2015-09-27T12:34:17Z</time>
      </trkpt>
      <trkpt lat="45.44175" lon="3.42976">
        <ele>605.7</ele>
        <time>2015-09-27T12:34:23Z</time>
      </trkpt>
      <trkpt lat="45.44181" lon="3.42985">
        <ele>604.4</ele>
        <time>2015-09-27T12:34:28Z</time>
      </trkpt>
      <trkpt lat="45.44188" lon="3.42992">
        <ele>603</ele>
        <time>2015-09-27T12:34:34Z</time>
      </trkpt>
      <trkpt lat="45.44194" lon="3.42998">
        <ele>603.2</ele>
        <time>2015-09-27T12:34:39Z</time>
      </trkpt>
      <trkpt lat="45.44196" lon="3.42999">
        <ele>603.3</ele>
        <time>2015-09-27T12:34:40Z</time>
      </trkpt>
      <trkpt lat="45.44207" lon="3.43012">
        <ele>601.9</ele>
        <time>2015-09-27T12:34:49Z</time>
      </trkpt>
      <trkpt lat="45.44211" lon="3.43022">
        <ele>600.7</ele>
        <time>2015-09-27T12:34:54Z</time>
      </trkpt>
      <trkpt lat="45.44217" lon="3.43031">
        <ele>599.2</ele>
        <time>2015-09-27T12:35:00Z</time>
      </trkpt>
      <trkpt lat="45.44222" lon="3.43041">
        <ele>597.5</ele>
        <time>2015-09-27T12:35:07Z</time>
      </trkpt>
      <trkpt lat="45.44227" lon="3.43052">
        <ele>597.3</ele>
        <time>2015-09-27T12:35:14Z</time>
      </trkpt>
      <trkpt lat="45.44232" lon="3.4306">
        <ele>596.5</ele>
        <time>2015-09-27T12:35:20Z</time>
      </trkpt>
      <trkpt lat="45.44238" lon="3.43067">
        <ele>596.6</ele>
        <time>2015-09-27T12:35:24Z</time>
      </trkpt>
      <trkpt lat="45.44242" lon="3.43079">
        <ele>596</ele>
        <time>2015-09-27T12:35:30Z</time>
      </trkpt>
      <trkpt lat="45.44245" lon="3.43089">
        <ele>594.6</ele>
        <time>2015-09-27T12:35:36Z</time>
      </trkpt>
      <trkpt lat="45.44252" lon="3.43096">
        <ele>594</ele>
        <time>2015-09-27T12:35:43Z</time>
      </trkpt>
      <trkpt lat="45.44253" lon="3.43096">
        <ele>593.7</ele>
        <time>2015-09-27T12:35:44Z</time>
      </trkpt>
      <trkpt lat="45.44268" lon="3.43106">
        <ele>592.8</ele>
        <time>2015-09-27T12:35:58Z</time>
      </trkpt>
      <trkpt lat="45.44277" lon="3.43106">
        <ele>592.8</ele>
        <time>2015-09-27T12:36:03Z</time>
      </trkpt>
      <trkpt lat="45.44286" lon="3.43107">
        <ele>593.9</ele>
        <time>2015-09-27T12:36:16Z</time>
      </trkpt>
      <trkpt lat="45.44291" lon="3.43117">
        <ele>593.8</ele>
        <time>2015-09-27T12:36:25Z</time>
      </trkpt>
      <trkpt lat="45.44295" lon="3.43126">
        <ele>594.6</ele>
        <time>2015-09-27T12:36:32Z</time>
      </trkpt>
      <trkpt lat="45.443" lon="3.43136">
        <ele>593.6</ele>
        <time>2015-09-27T12:36:39Z</time>
      </trkpt>
      <trkpt lat="45.44306" lon="3.43145">
        <ele>595</ele>
        <time>2015-09-27T12:36:47Z</time>
      </trkpt>
      <trkpt lat="45.44308" lon="3.43146">
        <ele>595.3</ele>
        <time>2015-09-27T12:36:48Z</time>
      </trkpt>
      <trkpt lat="45.44322" lon="3.43148">
        <ele>595.5</ele>
        <time>2015-09-27T12:36:57Z</time>
      </trkpt>
      <trkpt lat="45.44329" lon="3.43145">
        <ele>595.6</ele>
        <time>2015-09-27T12:37:02Z</time>
      </trkpt>
      <trkpt lat="45.44336" lon="3.43139">
        <ele>597.1</ele>
        <time>2015-09-27T12:37:07Z</time>
      </trkpt>
      <trkpt lat="45.44345" lon="3.43138">
        <ele>597.1</ele>
        <time>2015-09-27T12:37:15Z</time>
      </trkpt>
      <trkpt lat="45.44351" lon="3.43146">
        <ele>598.5</ele>
        <time>2015-09-27T12:37:24Z</time>
      </trkpt>
      <trkpt lat="45.44355" lon="3.43157">
        <ele>600.9</ele>
        <time>2015-09-27T12:37:31Z</time>
      </trkpt>
      <trkpt lat="45.44359" lon="3.43167">
        <ele>601.1</ele>
        <time>2015-09-27T12:37:38Z</time>
      </trkpt>
      <trkpt lat="45.44361" lon="3.43179">
        <ele>601.3</ele>
        <time>2015-09-27T12:37:46Z</time>
      </trkpt>
      <trkpt lat="45.44362" lon="3.43191">
        <ele>601</ele>
        <time>2015-09-27T12:37:53Z</time>
      </trkpt>
      <trkpt lat="45.44362" lon="3.43193">
        <ele>600.9</ele>
        <time>2015-09-27T12:37:54Z</time>
      </trkpt>
      <trkpt lat="45.4437" lon="3.43212">
        <ele>600.6</ele>
        <time>2015-09-27T12:38:04Z</time>
      </trkpt>
      <trkpt lat="45.44374" lon="3.43221">
        <ele>601.2</ele>
        <time>2015-09-27T12:38:09Z</time>
      </trkpt>
      <trkpt lat="45.44379" lon="3.43231">
        <ele>601.7</ele>
        <time>2015-09-27T12:38:14Z</time>
      </trkpt>
      <trkpt lat="45.44383" lon="3.43241">
        <ele>601.9</ele>
        <time>2015-09-27T12:38:19Z</time>
      </trkpt>
      <trkpt lat="45.44386" lon="3.43252">
        <ele>601.8</ele>
        <time>2015-09-27T12:38:24Z</time>
      </trkpt>
      <trkpt lat="45.4439" lon="3.43262">
        <ele>601.8</ele>
        <time>2015-09-27T12:38:29Z</time>
      </trkpt>
      <trkpt lat="45.44395" lon="3.43273">
        <ele>602.7</ele>
        <time>2015-09-27T12:38:34Z</time>
      </trkpt>
      <trkpt lat="45.44399" lon="3.43281">
        <ele>602.5</ele>
        <time>2015-09-27T12:38:38Z</time>
      </trkpt>
      <trkpt lat="45.44406" lon="3.43289">
        <ele>602.4</ele>
        <time>2015-09-27T12:38:42Z</time>
      </trkpt>
      <trkpt lat="45.44412" lon="3.43295">
        <ele>603.1</ele>
        <time>2015-09-27T12:38:46Z</time>
      </trkpt>
      <trkpt lat="45.44417" lon="3.43303">
        <ele>604.2</ele>
        <time>2015-09-27T12:38:50Z</time>
      </trkpt>
      <trkpt lat="45.44424" lon="3.4331">
        <ele>604.6</ele>
        <time>2015-09-27T12:38:54Z</time>
      </trkpt>
      <trkpt lat="45.44429" lon="3.43317">
        <ele>605.8</ele>
        <time>2015-09-27T12:38:58Z</time>
      </trkpt>
      <trkpt lat="45.4443" lon="3.43319">
        <ele>606.1</ele>
        <time>2015-09-27T12:38:59Z</time>
      </trkpt>
      <trkpt lat="45.4444" lon="3.43333">
        <ele>607.8</ele>
        <time>2015-09-27T12:39:07Z</time>
      </trkpt>
      <trkpt lat="45.44446" lon="3.43341">
        <ele>608.6</ele>
        <time>2015-09-27T12:39:12Z</time>
      </trkpt>
      <trkpt lat="45.44451" lon="3.43349">
        <ele>609.5</ele>
        <time>2015-09-27T12:39:17Z</time>
      </trkpt>
      <trkpt lat="45.44456" lon="3.43357">
        <ele>609.6</ele>
        <time>2015-09-27T12:39:22Z</time>
      </trkpt>
      <trkpt lat="45.44461" lon="3.43365">
        <ele>609.4</ele>
        <time>2015-09-27T12:39:27Z</time>
      </trkpt>
      <trkpt lat="45.44467" lon="3.43372">
        <ele>609.3</ele>
        <time>2015-09-27T12:39:32Z</time>
      </trkpt>
      <trkpt lat="45.44473" lon="3.43379">
        <ele>609.1</ele>
        <time>2015-09-27T12:39:36Z</time>
      </trkpt>
      <trkpt lat="45.44479" lon="3.43387">
        <ele>608.8</ele>
        <time>2015-09-27T12:39:40Z</time>
      </trkpt>
      <trkpt lat="45.44485" lon="3.43396">
        <ele>608.5</ele>
        <time>2015-09-27T12:39:45Z</time>
      </trkpt>
      <trkpt lat="45.44491" lon="3.43404">
        <ele>609.1</ele>
        <time>2015-09-27T12:39:49Z</time>
      </trkpt>
      <trkpt lat="45.44496" lon="3.43413">
        <ele>608.3</ele>
        <time>2015-09-27T12:39:53Z</time>
      </trkpt>
      <trkpt lat="45.44502" lon="3.43421">
        <ele>608.2</ele>
        <time>2015-09-27T12:39:57Z</time>
      </trkpt>
      <trkpt lat="45.44508" lon="3.4343">
        <ele>608.3</ele>
        <time>2015-09-27T12:40:02Z</time>
      </trkpt>
      <trkpt lat="45.44509" lon="3.43432">
        <ele>608.3</ele>
        <time>2015-09-27T12:40:03Z</time>
      </trkpt>
      <trkpt lat="45.44518" lon="3.43449">
        <ele>608.1</ele>
        <time>2015-09-27T12:40:11Z</time>
      </trkpt>
      <trkpt lat="45.44523" lon="3.43458">
        <ele>607.7</ele>
        <time>2015-09-27T12:40:15Z</time>
      </trkpt>
      <trkpt lat="45.44528" lon="3.43466">
        <ele>608.1</ele>
        <time>2015-09-27T12:40:19Z</time>
      </trkpt>
      <trkpt lat="45.44532" lon="3.43476">
        <ele>607.6</ele>
        <time>2015-09-27T12:40:23Z</time>
      </trkpt>
      <trkpt lat="45.44539" lon="3.43484">
        <ele>607.7</ele>
        <time>2015-09-27T12:40:28Z</time>
      </trkpt>
      <trkpt lat="45.44546" lon="3.43492">
        <ele>608</ele>
        <time>2015-09-27T12:40:32Z</time>
      </trkpt>
      <trkpt lat="45.44552" lon="3.43499">
        <ele>607.9</ele>
        <time>2015-09-27T12:40:35Z</time>
      </trkpt>
      <trkpt lat="45.44558" lon="3.43507">
        <ele>608.7</ele>
        <time>2015-09-27T12:40:38Z</time>
      </trkpt>
      <trkpt lat="45.44565" lon="3.43514">
        <ele>609.4</ele>
        <time>2015-09-27T12:40:41Z</time>
      </trkpt>
      <trkpt lat="45.44571" lon="3.43521">
        <ele>610.4</ele>
        <time>2015-09-27T12:40:44Z</time>
      </trkpt>
      <trkpt lat="45.44575" lon="3.43526">
        <ele>610.7</ele>
        <time>2015-09-27T12:40:46Z</time>
      </trkpt>
      <trkpt lat="45.44581" lon="3.43533">
        <ele>610.7</ele>
        <time>2015-09-27T12:40:48Z</time>
      </trkpt>
      <trkpt lat="45.44585" lon="3.43541">
        <ele>610.8</ele>
        <time>2015-09-27T12:40:50Z</time>
      </trkpt>
      <trkpt lat="45.44589" lon="3.43549">
        <ele>610.6</ele>
        <time>2015-09-27T12:40:52Z</time>
      </trkpt>
      <trkpt lat="45.44594" lon="3.43557">
        <ele>610.7</ele>
        <time>2015-09-27T12:40:54Z</time>
      </trkpt>
      <trkpt lat="45.44598" lon="3.43567">
        <ele>612</ele>
        <time>2015-09-27T12:40:57Z</time>
      </trkpt>
      <trkpt lat="45.44601" lon="3.43575">
        <ele>612.2</ele>
        <time>2015-09-27T12:40:59Z</time>
      </trkpt>
      <trkpt lat="45.44605" lon="3.43583">
        <ele>612</ele>
        <time>2015-09-27T12:41:01Z</time>
      </trkpt>
      <trkpt lat="45.44608" lon="3.43592">
        <ele>612</ele>
        <time>2015-09-27T12:41:03Z</time>
      </trkpt>
      <trkpt lat="45.44611" lon="3.436">
        <ele>612.2</ele>
        <time>2015-09-27T12:41:05Z</time>
      </trkpt>
      <trkpt lat="45.44613" lon="3.43604">
        <ele>612.3</ele>
        <time>2015-09-27T12:41:06Z</time>
      </trkpt>
      <trkpt lat="45.44615" lon="3.43617">
        <ele>612</ele>
        <time>2015-09-27T12:41:09Z</time>
      </trkpt>
      <trkpt lat="45.44617" lon="3.43627">
        <ele>611.9</ele>
        <time>2015-09-27T12:41:11Z</time>
      </trkpt>
      <trkpt lat="45.44619" lon="3.43637">
        <ele>611.9</ele>
        <time>2015-09-27T12:41:13Z</time>
      </trkpt>
      <trkpt lat="45.4462" lon="3.43646">
        <ele>612.2</ele>
        <time>2015-09-27T12:41:15Z</time>
      </trkpt>
      <trkpt lat="45.44621" lon="3.43655">
        <ele>612.3</ele>
        <time>2015-09-27T12:41:17Z</time>
      </trkpt>
      <trkpt lat="45.44623" lon="3.43665">
        <ele>612.3</ele>
        <time>2015-09-27T12:41:19Z</time>
      </trkpt>
      <trkpt lat="45.44626" lon="3.43673">
        <ele>612.2</ele>
        <time>2015-09-27T12:41:21Z</time>
      </trkpt>
      <trkpt lat="45.44628" lon="3.43682">
        <ele>612.2</ele>
        <time>2015-09-27T12:41:23Z</time>
      </trkpt>
      <trkpt lat="45.4463" lon="3.43693">
        <ele>612.3</ele>
        <time>2015-09-27T12:41:25Z</time>
      </trkpt>
      <trkpt lat="45.44632" lon="3.43703">
        <ele>612.6</ele>
        <time>2015-09-27T12:41:27Z</time>
      </trkpt>
      <trkpt lat="45.44634" lon="3.43712">
        <ele>612.8</ele>
        <time>2015-09-27T12:41:29Z</time>
      </trkpt>
      <trkpt lat="45.44637" lon="3.4372">
        <ele>613</ele>
        <time>2015-09-27T12:41:31Z</time>
      </trkpt>
      <trkpt lat="45.4464" lon="3.43728">
        <ele>613.4</ele>
        <time>2015-09-27T12:41:33Z</time>
      </trkpt>
      <trkpt lat="45.44643" lon="3.43736">
        <ele>613.4</ele>
        <time>2015-09-27T12:41:35Z</time>
      </trkpt>
      <trkpt lat="45.44646" lon="3.43744">
        <ele>613.3</ele>
        <time>2015-09-27T12:41:37Z</time>
      </trkpt>
      <trkpt lat="45.4465" lon="3.43751">
        <ele>613.1</ele>
        <time>2015-09-27T12:41:39Z</time>
      </trkpt>
      <trkpt lat="45.44653" lon="3.43763">
        <ele>612.4</ele>
        <time>2015-09-27T12:41:42Z</time>
      </trkpt>
      <trkpt lat="45.44653" lon="3.43772">
        <ele>611.9</ele>
        <time>2015-09-27T12:41:44Z</time>
      </trkpt>
      <trkpt lat="45.44653" lon="3.43782">
        <ele>611.5</ele>
        <time>2015-09-27T12:41:46Z</time>
      </trkpt>
      <trkpt lat="45.44652" lon="3.43791">
        <ele>611.3</ele>
        <time>2015-09-27T12:41:48Z</time>
      </trkpt>
      <trkpt lat="45.44653" lon="3.438">
        <ele>611.5</ele>
        <time>2015-09-27T12:41:50Z</time>
      </trkpt>
      <trkpt lat="45.44655" lon="3.43808">
        <ele>611.7</ele>
        <time>2015-09-27T12:41:52Z</time>
      </trkpt>
      <trkpt lat="45.44656" lon="3.43821">
        <ele>612.7</ele>
        <time>2015-09-27T12:41:55Z</time>
      </trkpt>
      <trkpt lat="45.44658" lon="3.43831">
        <ele>613.3</ele>
        <time>2015-09-27T12:41:58Z</time>
      </trkpt>
      <trkpt lat="45.44659" lon="3.43842">
        <ele>613.4</ele>
        <time>2015-09-27T12:42:01Z</time>
      </trkpt>
      <trkpt lat="45.44661" lon="3.43852">
        <ele>613</ele>
        <time>2015-09-27T12:42:04Z</time>
      </trkpt>
      <trkpt lat="45.44663" lon="3.43863">
        <ele>613.2</ele>
        <time>2015-09-27T12:42:07Z</time>
      </trkpt>
      <trkpt lat="45.44663" lon="3.43867">
        <ele>613.5</ele>
        <time>2015-09-27T12:42:08Z</time>
      </trkpt>
      <trkpt lat="45.44669" lon="3.43884">
        <ele>614.7</ele>
        <time>2015-09-27T12:42:13Z</time>
      </trkpt>
      <trkpt lat="45.44671" lon="3.43892">
        <ele>614.8</ele>
        <time>2015-09-27T12:42:16Z</time>
      </trkpt>
      <trkpt lat="45.44675" lon="3.43902">
        <ele>615.3</ele>
        <time>2015-09-27T12:42:19Z</time>
      </trkpt>
      <trkpt lat="45.44678" lon="3.43911">
        <ele>616.1</ele>
        <time>2015-09-27T12:42:22Z</time>
      </trkpt>
      <trkpt lat="45.4468" lon="3.43922">
        <ele>617.4</ele>
        <time>2015-09-27T12:42:26Z</time>
      </trkpt>
      <trkpt lat="45.44682" lon="3.43932">
        <ele>617.7</ele>
        <time>2015-09-27T12:42:30Z</time>
      </trkpt>
      <trkpt lat="45.44683" lon="3.43944">
        <ele>617.5</ele>
        <time>2015-09-27T12:42:34Z</time>
      </trkpt>
      <trkpt lat="45.44683" lon="3.43953">
        <ele>617.9</ele>
        <time>2015-09-27T12:42:37Z</time>
      </trkpt>
      <trkpt lat="45.44682" lon="3.43965">
        <ele>617.8</ele>
        <time>2015-09-27T12:42:41Z</time>
      </trkpt>
      <trkpt lat="45.44682" lon="3.43977">
        <ele>618</ele>
        <time>2015-09-27T12:42:45Z</time>
      </trkpt>
      <trkpt lat="45.44682" lon="3.43988">
        <ele>617.6</ele>
        <time>2015-09-27T12:42:49Z</time>
      </trkpt>
      <trkpt lat="45.44681" lon="3.44">
        <ele>618.2</ele>
        <time>2015-09-27T12:42:53Z</time>
      </trkpt>
      <trkpt lat="45.4468" lon="3.44012">
        <ele>618.1</ele>
        <time>2015-09-27T12:42:57Z</time>
      </trkpt>
      <trkpt lat="45.4468" lon="3.44024">
        <ele>618.6</ele>
        <time>2015-09-27T12:43:01Z</time>
      </trkpt>
      <trkpt lat="45.44679" lon="3.44035">
        <ele>618</ele>
        <time>2015-09-27T12:43:05Z</time>
      </trkpt>
      <trkpt lat="45.44681" lon="3.44046">
        <ele>618.2</ele>
        <time>2015-09-27T12:43:09Z</time>
      </trkpt>
      <trkpt lat="45.44681" lon="3.44048">
        <ele>618</ele>
        <time>2015-09-27T12:43:10Z</time>
      </trkpt>
      <trkpt lat="45.44687" lon="3.44069">
        <ele>617.9</ele>
        <time>2015-09-27T12:43:19Z</time>
      </trkpt>
      <trkpt lat="45.44691" lon="3.44079">
        <ele>619.2</ele>
        <time>2015-09-27T12:43:23Z</time>
      </trkpt>
      <trkpt lat="45.44697" lon="3.44087">
        <ele>619.7</ele>
        <time>2015-09-27T12:43:27Z</time>
      </trkpt>
      <trkpt lat="45.44703" lon="3.44094">
        <ele>620.3</ele>
        <time>2015-09-27T12:43:31Z</time>
      </trkpt>
      <trkpt lat="45.44709" lon="3.44102">
        <ele>620.9</ele>
        <time>2015-09-27T12:43:35Z</time>
      </trkpt>
      <trkpt lat="45.44714" lon="3.44112">
        <ele>621.9</ele>
        <time>2015-09-27T12:43:39Z</time>
      </trkpt>
      <trkpt lat="45.44719" lon="3.44121">
        <ele>622.6</ele>
        <time>2015-09-27T12:43:43Z</time>
      </trkpt>
      <trkpt lat="45.44724" lon="3.4413">
        <ele>623.2</ele>
        <time>2015-09-27T12:43:47Z</time>
      </trkpt>
      <trkpt lat="45.44729" lon="3.44137">
        <ele>624.1</ele>
        <time>2015-09-27T12:43:51Z</time>
      </trkpt>
      <trkpt lat="45.44735" lon="3.44144">
        <ele>625</ele>
        <time>2015-09-27T12:43:55Z</time>
      </trkpt>
      <trkpt lat="45.44741" lon="3.44152">
        <ele>625.7</ele>
        <time>2015-09-27T12:43:59Z</time>
      </trkpt>
      <trkpt lat="45.44746" lon="3.44159">
        <ele>626.5</ele>
        <time>2015-09-27T12:44:03Z</time>
      </trkpt>
      <trkpt lat="45.44751" lon="3.44168">
        <ele>626.3</ele>
        <time>2015-09-27T12:44:08Z</time>
      </trkpt>
      <trkpt lat="45.44756" lon="3.44176">
        <ele>627.6</ele>
        <time>2015-09-27T12:44:14Z</time>
      </trkpt>
      <trkpt lat="45.44757" lon="3.44177">
        <ele>627.9</ele>
        <time>2015-09-27T12:44:15Z</time>
      </trkpt>
      <trkpt lat="45.44773" lon="3.44183">
        <ele>628.9</ele>
        <time>2015-09-27T12:44:28Z</time>
      </trkpt>
      <trkpt lat="45.44782" lon="3.44185">
        <ele>629.8</ele>
        <time>2015-09-27T12:44:34Z</time>
      </trkpt>
      <trkpt lat="45.44789" lon="3.44187">
        <ele>630.8</ele>
        <time>2015-09-27T12:44:38Z</time>
      </trkpt>
      <trkpt lat="45.44796" lon="3.44192">
        <ele>631.2</ele>
        <time>2015-09-27T12:44:42Z</time>
      </trkpt>
      <trkpt lat="45.44804" lon="3.44196">
        <ele>632.4</ele>
        <time>2015-09-27T12:44:45Z</time>
      </trkpt>
      <trkpt lat="45.44811" lon="3.44201">
        <ele>633.3</ele>
        <time>2015-09-27T12:44:48Z</time>
      </trkpt>
      <trkpt lat="45.44818" lon="3.44206">
        <ele>635.3</ele>
        <time>2015-09-27T12:44:51Z</time>
      </trkpt>
      <trkpt lat="45.44827" lon="3.44209">
        <ele>637.4</ele>
        <time>2015-09-27T12:44:54Z</time>
      </trkpt>
      <trkpt lat="45.44833" lon="3.44213">
        <ele>638.8</ele>
        <time>2015-09-27T12:44:56Z</time>
      </trkpt>
      <trkpt lat="45.44841" lon="3.44218">
        <ele>640.4</ele>
        <time>2015-09-27T12:44:59Z</time>
      </trkpt>
      <trkpt lat="45.44847" lon="3.44222">
        <ele>640.6</ele>
        <time>2015-09-27T12:45:01Z</time>
      </trkpt>
      <trkpt lat="45.44854" lon="3.44227">
        <ele>640.9</ele>
        <time>2015-09-27T12:45:03Z</time>
      </trkpt>
      <trkpt lat="45.44859" lon="3.44234">
        <ele>641.4</ele>
        <time>2015-09-27T12:45:05Z</time>
      </trkpt>
      <trkpt lat="45.44866" lon="3.4424">
        <ele>641.4</ele>
        <time>2015-09-27T12:45:07Z</time>
      </trkpt>
      <trkpt lat="45.44872" lon="3.44245">
        <ele>641.3</ele>
        <time>2015-09-27T12:45:09Z</time>
      </trkpt>
      <trkpt lat="45.44878" lon="3.44251">
        <ele>641.5</ele>
        <time>2015-09-27T12:45:11Z</time>
      </trkpt>
      <trkpt lat="45.44884" lon="3.44257">
        <ele>641.7</ele>
        <time>2015-09-27T12:45:13Z</time>
      </trkpt>
      <trkpt lat="45.44891" lon="3.44264">
        <ele>642.5</ele>
        <time>2015-09-27T12:45:16Z</time>
      </trkpt>
      <trkpt lat="45.44891" lon="3.44266">
        <ele>643.5</ele>
        <time>2015-09-27T12:45:17Z</time>
      </trkpt>
      <trkpt lat="45.4488" lon="3.44248">
        <ele>646.8</ele>
        <time>2015-09-27T12:45:28Z</time>
      </trkpt>
      <trkpt lat="45.44876" lon="3.44245">
        <ele>647.3</ele>
        <time>2015-09-27T12:45:29Z</time>
      </trkpt>
      <trkpt lat="45.44872" lon="3.44242">
        <ele>647.7</ele>
        <time>2015-09-27T12:45:30Z</time>
      </trkpt>
      <trkpt lat="45.44869" lon="3.44236">
        <ele>647.9</ele>
        <time>2015-09-27T12:45:31Z</time>
      </trkpt>
      <trkpt lat="45.44865" lon="3.44231">
        <ele>648.6</ele>
        <time>2015-09-27T12:45:32Z</time>
      </trkpt>
      <trkpt lat="45.44862" lon="3.44226">
        <ele>649.1</ele>
        <time>2015-09-27T12:45:33Z</time>
      </trkpt>
      <trkpt lat="45.44858" lon="3.44221">
        <ele>650.1</ele>
        <time>2015-09-27T12:45:34Z</time>
      </trkpt>
      <trkpt lat="45.44854" lon="3.44211">
        <ele>651.6</ele>
        <time>2015-09-27T12:45:36Z</time>
      </trkpt>
      <trkpt lat="45.44852" lon="3.44201">
        <ele>652.5</ele>
        <time>2015-09-27T12:45:38Z</time>
      </trkpt>
      <trkpt lat="45.44851" lon="3.4419">
        <ele>653.9</ele>
        <time>2015-09-27T12:45:40Z</time>
      </trkpt>
      <trkpt lat="45.44851" lon="3.44184">
        <ele>655.1</ele>
        <time>2015-09-27T12:45:41Z</time>
      </trkpt>
      <trkpt lat="45.4485" lon="3.44177">
        <ele>655.9</ele>
        <time>2015-09-27T12:45:42Z</time>
      </trkpt>
      <trkpt lat="45.44845" lon="3.44166">
        <ele>657.5</ele>
        <time>2015-09-27T12:45:44Z</time>
      </trkpt>
      <trkpt lat="45.44842" lon="3.44162">
        <ele>658.3</ele>
        <time>2015-09-27T12:45:45Z</time>
      </trkpt>
      <trkpt lat="45.44838" lon="3.44156">
        <ele>659.3</ele>
        <time>2015-09-27T12:45:46Z</time>
      </trkpt>
      <trkpt lat="45.44834" lon="3.44152">
        <ele>660.1</ele>
        <time>2015-09-27T12:45:47Z</time>
      </trkpt>
      <trkpt lat="45.4483" lon="3.44146">
        <ele>661</ele>
        <time>2015-09-27T12:45:48Z</time>
      </trkpt>
      <trkpt lat="45.44826" lon="3.4414">
        <ele>661.6</ele>
        <time>2015-09-27T12:45:49Z</time>
      </trkpt>
      <trkpt lat="45.44822" lon="3.44136">
        <ele>662.1</ele>
        <time>2015-09-27T12:45:50Z</time>
      </trkpt>
      <trkpt lat="45.44817" lon="3.44131">
        <ele>662.9</ele>
        <time>2015-09-27T12:45:51Z</time>
      </trkpt>
      <trkpt lat="45.44813" lon="3.44125">
        <ele>663.5</ele>
        <time>2015-09-27T12:45:52Z</time>
      </trkpt>
      <trkpt lat="45.44809" lon="3.44118">
        <ele>664.6</ele>
        <time>2015-09-27T12:45:53Z</time>
      </trkpt>
      <trkpt lat="45.44806" lon="3.44111">
        <ele>665.4</ele>
        <time>2015-09-27T12:45:54Z</time>
      </trkpt>
      <trkpt lat="45.44804" lon="3.44104">
        <ele>666.3</ele>
        <time>2015-09-27T12:45:55Z</time>
      </trkpt>
      <trkpt lat="45.44801" lon="3.44097">
        <ele>666.9</ele>
        <time>2015-09-27T12:45:56Z</time>
      </trkpt>
      <trkpt lat="45.44799" lon="3.44091">
        <ele>667.4</ele>
        <time>2015-09-27T12:45:57Z</time>
      </trkpt>
      <trkpt lat="45.44797" lon="3.44084">
        <ele>667.6</ele>
        <time>2015-09-27T12:45:58Z</time>
      </trkpt>
      <trkpt lat="45.44794" lon="3.44078">
        <ele>667.8</ele>
        <time>2015-09-27T12:45:59Z</time>
      </trkpt>
      <trkpt lat="45.44791" lon="3.44072">
        <ele>668</ele>
        <time>2015-09-27T12:46:00Z</time>
      </trkpt>
      <trkpt lat="45.44788" lon="3.44065">
        <ele>668.2</ele>
        <time>2015-09-27T12:46:01Z</time>
      </trkpt>
      <trkpt lat="45.44786" lon="3.44058">
        <ele>668.3</ele>
        <time>2015-09-27T12:46:02Z</time>
      </trkpt>
      <trkpt lat="45.44785" lon="3.4405">
        <ele>668.3</ele>
        <time>2015-09-27T12:46:03Z</time>
      </trkpt>
      <trkpt lat="45.44783" lon="3.44042">
        <ele>668.3</ele>
        <time>2015-09-27T12:46:04Z</time>
      </trkpt>
      <trkpt lat="45.44781" lon="3.44034">
        <ele>668.9</ele>
        <time>2015-09-27T12:46:05Z</time>
      </trkpt>
      <trkpt lat="45.44779" lon="3.44026">
        <ele>669.4</ele>
        <time>2015-09-27T12:46:06Z</time>
      </trkpt>
      <trkpt lat="45.44778" lon="3.44018">
        <ele>669.6</ele>
        <time>2015-09-27T12:46:07Z</time>
      </trkpt>
      <trkpt lat="45.44777" lon="3.4401">
        <ele>669.7</ele>
        <time>2015-09-27T12:46:08Z</time>
      </trkpt>
      <trkpt lat="45.44776" lon="3.44002">
        <ele>669.9</ele>
        <time>2015-09-27T12:46:09Z</time>
      </trkpt>
      <trkpt lat="45.44776" lon="3.43994">
        <ele>670.6</ele>
        <time>2015-09-27T12:46:10Z</time>
      </trkpt>
      <trkpt lat="45.44775" lon="3.43986">
        <ele>671.2</ele>
        <time>2015-09-27T12:46:11Z</time>
      </trkpt>
      <trkpt lat="45.44775" lon="3.43978">
        <ele>672</ele>
        <time>2015-09-27T12:46:12Z</time>
      </trkpt>
      <trkpt lat="45.44775" lon="3.43969">
        <ele>672.5</ele>
        <time>2015-09-27T12:46:13Z</time>
      </trkpt>
      <trkpt lat="45.44775" lon="3.43961">
        <ele>673.2</ele>
        <time>2015-09-27T12:46:14Z</time>
      </trkpt>
      <trkpt lat="45.44776" lon="3.43953">
        <ele>673.6</ele>
        <time>2015-09-27T12:46:15Z</time>
      </trkpt>
      <trkpt lat="45.44778" lon="3.43946">
        <ele>674</ele>
        <time>2015-09-27T12:46:16Z</time>
      </trkpt>
      <trkpt lat="45.4478" lon="3.43939">
        <ele>675</ele>
        <time>2015-09-27T12:46:17Z</time>
      </trkpt>
      <trkpt lat="45.44782" lon="3.43932">
        <ele>675.8</ele>
        <time>2015-09-27T12:46:18Z</time>
      </trkpt>
      <trkpt lat="45.44784" lon="3.43925">
        <ele>676.5</ele>
        <time>2015-09-27T12:46:19Z</time>
      </trkpt>
      <trkpt lat="45.44787" lon="3.43919">
        <ele>677</ele>
        <time>2015-09-27T12:46:20Z</time>
      </trkpt>
      <trkpt lat="45.44792" lon="3.43909">
        <ele>678.1</ele>
        <time>2015-09-27T12:46:22Z</time>
      </trkpt>
      <trkpt lat="45.44794" lon="3.43903">
        <ele>678.6</ele>
        <time>2015-09-27T12:46:23Z</time>
      </trkpt>
      <trkpt lat="45.44796" lon="3.43897">
        <ele>679</ele>
        <time>2015-09-27T12:46:24Z</time>
      </trkpt>
      <trkpt lat="45.44799" lon="3.43891">
        <ele>679.3</ele>
        <time>2015-09-27T12:46:25Z</time>
      </trkpt>
      <trkpt lat="45.44803" lon="3.43885">
        <ele>679.8</ele>
        <time>2015-09-27T12:46:26Z</time>
      </trkpt>
      <trkpt lat="45.44806" lon="3.43878">
        <ele>680.1</ele>
        <time>2015-09-27T12:46:27Z</time>
      </trkpt>
      <trkpt lat="45.4481" lon="3.43871">
        <ele>680.4</ele>
        <time>2015-09-27T12:46:28Z</time>
      </trkpt>
      <trkpt lat="45.44813" lon="3.43864">
        <ele>680.6</ele>
        <time>2015-09-27T12:46:29Z</time>
      </trkpt>
      <trkpt lat="45.44816" lon="3.43857">
        <ele>680.7</ele>
        <time>2015-09-27T12:46:30Z</time>
      </trkpt>
      <trkpt lat="45.44817" lon="3.43849">
        <ele>681</ele>
        <time>2015-09-27T12:46:31Z</time>
      </trkpt>
      <trkpt lat="45.44819" lon="3.4384">
        <ele>681.3</ele>
        <time>2015-09-27T12:46:32Z</time>
      </trkpt>
      <trkpt lat="45.44819" lon="3.43832">
        <ele>681.9</ele>
        <time>2015-09-27T12:46:33Z</time>
      </trkpt>
      <trkpt lat="45.44818" lon="3.43824">
        <ele>682.4</ele>
        <time>2015-09-27T12:46:34Z</time>
      </trkpt>
      <trkpt lat="45.44816" lon="3.43817">
        <ele>682.8</ele>
        <time>2015-09-27T12:46:35Z</time>
      </trkpt>
      <trkpt lat="45.44814" lon="3.43811">
        <ele>683.3</ele>
        <time>2015-09-27T12:46:36Z</time>
      </trkpt>
      <trkpt lat="45.44812" lon="3.43804">
        <ele>683.6</ele>
        <time>2015-09-27T12:46:37Z</time>
      </trkpt>
      <trkpt lat="45.4481" lon="3.43797">
        <ele>684.7</ele>
        <time>2015-09-27T12:46:38Z</time>
      </trkpt>
      <trkpt lat="45.44807" lon="3.4379">
        <ele>685.5</ele>
        <time>2015-09-27T12:46:39Z</time>
      </trkpt>
      <trkpt lat="45.44805" lon="3.43783">
        <ele>686.1</ele>
        <time>2015-09-27T12:46:40Z</time>
      </trkpt>
      <trkpt lat="45.44804" lon="3.43776">
        <ele>687.2</ele>
        <time>2015-09-27T12:46:41Z</time>
      </trkpt>
      <trkpt lat="45.44803" lon="3.43769">
        <ele>688</ele>
        <time>2015-09-27T12:46:42Z</time>
      </trkpt>
      <trkpt lat="45.44802" lon="3.43761">
        <ele>688.5</ele>
        <time>2015-09-27T12:46:43Z</time>
      </trkpt>
      <trkpt lat="45.44801" lon="3.43753">
        <ele>688.8</ele>
        <time>2015-09-27T12:46:44Z</time>
      </trkpt>
      <trkpt lat="45.44801" lon="3.43745">
        <ele>689.6</ele>
        <time>2015-09-27T12:46:45Z</time>
      </trkpt>
      <trkpt lat="45.44801" lon="3.43737">
        <ele>690.1</ele>
        <time>2015-09-27T12:46:46Z</time>
      </trkpt>
      <trkpt lat="45.44801" lon="3.43729">
        <ele>690.6</ele>
        <time>2015-09-27T12:46:47Z</time>
      </trkpt>
      <trkpt lat="45.44801" lon="3.43721">
        <ele>691</ele>
        <time>2015-09-27T12:46:48Z</time>
      </trkpt>
      <trkpt lat="45.44802" lon="3.43713">
        <ele>691.3</ele>
        <time>2015-09-27T12:46:49Z</time>
      </trkpt>
      <trkpt lat="45.44802" lon="3.43705">
        <ele>691.9</ele>
        <time>2015-09-27T12:46:50Z</time>
      </trkpt>
      <trkpt lat="45.44802" lon="3.43697">
        <ele>692.4</ele>
        <time>2015-09-27T12:46:51Z</time>
      </trkpt>
      <trkpt lat="45.44803" lon="3.43689">
        <ele>692.8</ele>
        <time>2015-09-27T12:46:52Z</time>
      </trkpt>
      <trkpt lat="45.44803" lon="3.4368">
        <ele>693.1</ele>
        <time>2015-09-27T12:46:53Z</time>
      </trkpt>
      <trkpt lat="45.44802" lon="3.43671">
        <ele>693.3</ele>
        <time>2015-09-27T12:46:54Z</time>
      </trkpt>
      <trkpt lat="45.44802" lon="3.43662">
        <ele>693.7</ele>
        <time>2015-09-27T12:46:55Z</time>
      </trkpt>
      <trkpt lat="45.44801" lon="3.43653">
        <ele>694</ele>
        <time>2015-09-27T12:46:56Z</time>
      </trkpt>
      <trkpt lat="45.44801" lon="3.43644">
        <ele>694.5</ele>
        <time>2015-09-27T12:46:57Z</time>
      </trkpt>
      <trkpt lat="45.44802" lon="3.43635">
        <ele>694.9</ele>
        <time>2015-09-27T12:46:58Z</time>
      </trkpt>
      <trkpt lat="45.44802" lon="3.43627">
        <ele>695.2</ele>
        <time>2015-09-27T12:46:59Z</time>
      </trkpt>
      <trkpt lat="45.44802" lon="3.43619">
        <ele>696.4</ele>
        <time>2015-09-27T12:47:00Z</time>
      </trkpt>
      <trkpt lat="45.44802" lon="3.43611">
        <ele>697.3</ele>
        <time>2015-09-27T12:47:01Z</time>
      </trkpt>
      <trkpt lat="45.44803" lon="3.43604">
        <ele>698.3</ele>
        <time>2015-09-27T12:47:02Z</time>
      </trkpt>
      <trkpt lat="45.44806" lon="3.43598">
        <ele>699.1</ele>
        <time>2015-09-27T12:47:03Z</time>
      </trkpt>
      <trkpt lat="45.44809" lon="3.43591">
        <ele>700.1</ele>
        <time>2015-09-27T12:47:04Z</time>
      </trkpt>
      <trkpt lat="45.44811" lon="3.43585">
        <ele>700.9</ele>
        <time>2015-09-27T12:47:05Z</time>
      </trkpt>
      <trkpt lat="45.44817" lon="3.43577">
        <ele>702.5</ele>
        <time>2015-09-27T12:47:07Z</time>
      </trkpt>
      <trkpt lat="45.44824" lon="3.43572">
        <ele>704.2</ele>
        <time>2015-09-27T12:47:09Z</time>
      </trkpt>
      <trkpt lat="45.44831" lon="3.43572">
        <ele>705.3</ele>
        <time>2015-09-27T12:47:11Z</time>
      </trkpt>
      <trkpt lat="45.44839" lon="3.43573">
        <ele>705.9</ele>
        <time>2015-09-27T12:47:13Z</time>
      </trkpt>
      <trkpt lat="45.44846" lon="3.43573">
        <ele>707.6</ele>
        <time>2015-09-27T12:47:15Z</time>
      </trkpt>
      <trkpt lat="45.44855" lon="3.43571">
        <ele>709.5</ele>
        <time>2015-09-27T12:47:20Z</time>
      </trkpt>
      <trkpt lat="45.44855" lon="3.43572">
        <ele>709.9</ele>
        <time>2015-09-27T12:47:21Z</time>
      </trkpt>
      <trkpt lat="45.44867" lon="3.43585">
        <ele>711.4</ele>
        <time>2015-09-27T12:47:29Z</time>
      </trkpt>
      <trkpt lat="45.44874" lon="3.43589">
        <ele>713.1</ele>
        <time>2015-09-27T12:47:32Z</time>
      </trkpt>
      <trkpt lat="45.44881" lon="3.43593">
        <ele>714.2</ele>
        <time>2015-09-27T12:47:35Z</time>
      </trkpt>
      <trkpt lat="45.44888" lon="3.43596">
        <ele>715.7</ele>
        <time>2015-09-27T12:47:38Z</time>
      </trkpt>
      <trkpt lat="45.44896" lon="3.43599">
        <ele>716.8</ele>
        <time>2015-09-27T12:47:42Z</time>
      </trkpt>
      <trkpt lat="45.44901" lon="3.43603">
        <ele>717.5</ele>
        <time>2015-09-27T12:47:44Z</time>
      </trkpt>
      <trkpt lat="45.44909" lon="3.43609">
        <ele>718.6</ele>
        <time>2015-09-27T12:47:47Z</time>
      </trkpt>
      <trkpt lat="45.44915" lon="3.43616">
        <ele>720</ele>
        <time>2015-09-27T12:47:50Z</time>
      </trkpt>
      <trkpt lat="45.44921" lon="3.43622">
        <ele>721.7</ele>
        <time>2015-09-27T12:47:53Z</time>
      </trkpt>
      <trkpt lat="45.44928" lon="3.4363">
        <ele>723.5</ele>
        <time>2015-09-27T12:47:56Z</time>
      </trkpt>
      <trkpt lat="45.44934" lon="3.43638">
        <ele>724.4</ele>
        <time>2015-09-27T12:47:59Z</time>
      </trkpt>
      <trkpt lat="45.44941" lon="3.43646">
        <ele>725.3</ele>
        <time>2015-09-27T12:48:02Z</time>
      </trkpt>
      <trkpt lat="45.44948" lon="3.43655">
        <ele>726.6</ele>
        <time>2015-09-27T12:48:05Z</time>
      </trkpt>
      <trkpt lat="45.44953" lon="3.43664">
        <ele>728.6</ele>
        <time>2015-09-27T12:48:08Z</time>
      </trkpt>
      <trkpt lat="45.44958" lon="3.4367">
        <ele>729.3</ele>
        <time>2015-09-27T12:48:10Z</time>
      </trkpt>
      <trkpt lat="45.44963" lon="3.43676">
        <ele>730.2</ele>
        <time>2015-09-27T12:48:12Z</time>
      </trkpt>
      <trkpt lat="45.4497" lon="3.43685">
        <ele>730.7</ele>
        <time>2015-09-27T12:48:15Z</time>
      </trkpt>
      <trkpt lat="45.44975" lon="3.43694">
        <ele>731.4</ele>
        <time>2015-09-27T12:48:18Z</time>
      </trkpt>
      <trkpt lat="45.44979" lon="3.43701">
        <ele>732.1</ele>
        <time>2015-09-27T12:48:20Z</time>
      </trkpt>
      <trkpt lat="45.44983" lon="3.4371">
        <ele>732.7</ele>
        <time>2015-09-27T12:48:22Z</time>
      </trkpt>
      <trkpt lat="45.44984" lon="3.43714">
        <ele>733.3</ele>
        <time>2015-09-27T12:48:23Z</time>
      </trkpt>
      <trkpt lat="45.4499" lon="3.43728">
        <ele>735.3</ele>
        <time>2015-09-27T12:48:27Z</time>
      </trkpt>
      <trkpt lat="45.44992" lon="3.43736">
        <ele>736.1</ele>
        <time>2015-09-27T12:48:29Z</time>
      </trkpt>
      <trkpt lat="45.44995" lon="3.43748">
        <ele>736.9</ele>
        <time>2015-09-27T12:48:32Z</time>
      </trkpt>
      <trkpt lat="45.44996" lon="3.43758">
        <ele>737.4</ele>
        <time>2015-09-27T12:48:34Z</time>
      </trkpt>
      <trkpt lat="45.44997" lon="3.43767">
        <ele>738.6</ele>
        <time>2015-09-27T12:48:36Z</time>
      </trkpt>
      <trkpt lat="45.44997" lon="3.43779">
        <ele>739.8</ele>
        <time>2015-09-27T12:48:39Z</time>
      </trkpt>
      <trkpt lat="45.44998" lon="3.4379">
        <ele>741.4</ele>
        <time>2015-09-27T12:48:42Z</time>
      </trkpt>
      <trkpt lat="45.45001" lon="3.43801">
        <ele>742.6</ele>
        <time>2015-09-27T12:48:45Z</time>
      </trkpt>
      <trkpt lat="45.45005" lon="3.4381">
        <ele>744.3</ele>
        <time>2015-09-27T12:48:48Z</time>
      </trkpt>
      <trkpt lat="45.45009" lon="3.4382">
        <ele>745.9</ele>
        <time>2015-09-27T12:48:51Z</time>
      </trkpt>
      <trkpt lat="45.45012" lon="3.4383">
        <ele>747.7</ele>
        <time>2015-09-27T12:48:54Z</time>
      </trkpt>
      <trkpt lat="45.45015" lon="3.4384">
        <ele>749.2</ele>
        <time>2015-09-27T12:48:57Z</time>
      </trkpt>
      <trkpt lat="45.45018" lon="3.43851">
        <ele>750.5</ele>
        <time>2015-09-27T12:49:00Z</time>
      </trkpt>
      <trkpt lat="45.4502" lon="3.43862">
        <ele>752.1</ele>
        <time>2015-09-27T12:49:04Z</time>
      </trkpt>
      <trkpt lat="45.45023" lon="3.43874">
        <ele>752.9</ele>
        <time>2015-09-27T12:49:09Z</time>
      </trkpt>
      <trkpt lat="45.45026" lon="3.43886">
        <ele>754.7</ele>
        <time>2015-09-27T12:49:14Z</time>
      </trkpt>
      <trkpt lat="45.45029" lon="3.43897">
        <ele>754.3</ele>
        <time>2015-09-27T12:49:19Z</time>
      </trkpt>
      <trkpt lat="45.45032" lon="3.43907">
        <ele>755</ele>
        <time>2015-09-27T12:49:24Z</time>
      </trkpt>
      <trkpt lat="45.45032" lon="3.4391">
        <ele>754.9</ele>
        <time>2015-09-27T12:49:25Z</time>
      </trkpt>
      <trkpt lat="45.45037" lon="3.43929">
        <ele>756.6</ele>
        <time>2015-09-27T12:49:34Z</time>
      </trkpt>
      <trkpt lat="45.4504" lon="3.4394">
        <ele>757.3</ele>
        <time>2015-09-27T12:49:39Z</time>
      </trkpt>
      <trkpt lat="45.45044" lon="3.4395">
        <ele>756.5</ele>
        <time>2015-09-27T12:49:44Z</time>
      </trkpt>
      <trkpt lat="45.45049" lon="3.43959">
        <ele>756.3</ele>
        <time>2015-09-27T12:49:49Z</time>
      </trkpt>
      <trkpt lat="45.45054" lon="3.43967">
        <ele>755.9</ele>
        <time>2015-09-27T12:49:54Z</time>
      </trkpt>
      <trkpt lat="45.45059" lon="3.43975">
        <ele>756.1</ele>
        <time>2015-09-27T12:49:59Z</time>
      </trkpt>
      <trkpt lat="45.45065" lon="3.43984">
        <ele>755.8</ele>
        <time>2015-09-27T12:50:05Z</time>
      </trkpt>
      <trkpt lat="45.45071" lon="3.43991">
        <ele>755</ele>
        <time>2015-09-27T12:50:11Z</time>
      </trkpt>
      <trkpt lat="45.45077" lon="3.43997">
        <ele>756.8</ele>
        <time>2015-09-27T12:50:17Z</time>
      </trkpt>
      <trkpt lat="45.45084" lon="3.44002">
        <ele>756.3</ele>
        <time>2015-09-27T12:50:22Z</time>
      </trkpt>
      <trkpt lat="45.45091" lon="3.44008">
        <ele>756.8</ele>
        <time>2015-09-27T12:50:28Z</time>
      </trkpt>
      <trkpt lat="45.45092" lon="3.44009">
        <ele>756.7</ele>
        <time>2015-09-27T12:50:29Z</time>
      </trkpt>
      <trkpt lat="45.45105" lon="3.44021">
        <ele>757.7</ele>
        <time>2015-09-27T12:50:41Z</time>
      </trkpt>
      <trkpt lat="45.45111" lon="3.44027">
        <ele>758.3</ele>
        <time>2015-09-27T12:50:47Z</time>
      </trkpt>
      <trkpt lat="45.45117" lon="3.44034">
        <ele>758.7</ele>
        <time>2015-09-27T12:50:53Z</time>
      </trkpt>
      <trkpt lat="45.45124" lon="3.4404">
        <ele>760.1</ele>
        <time>2015-09-27T12:50:59Z</time>
      </trkpt>
      <trkpt lat="45.45132" lon="3.44045">
        <ele>760</ele>
        <time>2015-09-27T12:51:05Z</time>
      </trkpt>
      <trkpt lat="45.4514" lon="3.4405">
        <ele>762.8</ele>
        <time>2015-09-27T12:51:12Z</time>
      </trkpt>
      <trkpt lat="45.45147" lon="3.44053">
        <ele>763</ele>
        <time>2015-09-27T12:51:17Z</time>
      </trkpt>
      <trkpt lat="45.45155" lon="3.44057">
        <ele>763.4</ele>
        <time>2015-09-27T12:51:22Z</time>
      </trkpt>
      <trkpt lat="45.45164" lon="3.4406">
        <ele>763.6</ele>
        <time>2015-09-27T12:51:27Z</time>
      </trkpt>
      <trkpt lat="45.45172" lon="3.44063">
        <ele>763.2</ele>
        <time>2015-09-27T12:51:32Z</time>
      </trkpt>
      <trkpt lat="45.45174" lon="3.44064">
        <ele>763.3</ele>
        <time>2015-09-27T12:51:33Z</time>
      </trkpt>
      <trkpt lat="45.45186" lon="3.44074">
        <ele>765</ele>
        <time>2015-09-27T12:51:41Z</time>
      </trkpt>
      <trkpt lat="45.45194" lon="3.4408">
        <ele>765.1</ele>
        <time>2015-09-27T12:51:46Z</time>
      </trkpt>
      <trkpt lat="45.452" lon="3.44086">
        <ele>766.4</ele>
        <time>2015-09-27T12:51:50Z</time>
      </trkpt>
      <trkpt lat="45.45207" lon="3.44089">
        <ele>767.6</ele>
        <time>2015-09-27T12:51:54Z</time>
      </trkpt>
      <trkpt lat="45.45214" lon="3.44095">
        <ele>768.4</ele>
        <time>2015-09-27T12:52:00Z</time>
      </trkpt>
      <trkpt lat="45.4522" lon="3.44103">
        <ele>768.9</ele>
        <time>2015-09-27T12:52:07Z</time>
      </trkpt>
      <trkpt lat="45.45225" lon="3.44112">
        <ele>769.4</ele>
        <time>2015-09-27T12:52:16Z</time>
      </trkpt>
      <trkpt lat="45.4523" lon="3.44121">
        <ele>771.2</ele>
        <time>2015-09-27T12:52:22Z</time>
      </trkpt>
      <trkpt lat="45.45235" lon="3.44131">
        <ele>771.5</ele>
        <time>2015-09-27T12:52:30Z</time>
      </trkpt>
      <trkpt lat="45.45239" lon="3.44142">
        <ele>773.6</ele>
        <time>2015-09-27T12:52:38Z</time>
      </trkpt>
      <trkpt lat="45.45239" lon="3.44144">
        <ele>773.9</ele>
        <time>2015-09-27T12:52:39Z</time>
      </trkpt>
      <trkpt lat="45.45245" lon="3.44163">
        <ele>775.7</ele>
        <time>2015-09-27T12:52:51Z</time>
      </trkpt>
      <trkpt lat="45.45249" lon="3.44174">
        <ele>776.7</ele>
        <time>2015-09-27T12:52:57Z</time>
      </trkpt>
      <trkpt lat="45.45254" lon="3.44183">
        <ele>777.7</ele>
        <time>2015-09-27T12:53:02Z</time>
      </trkpt>
      <trkpt lat="45.4526" lon="3.44191">
        <ele>779.1</ele>
        <time>2015-09-27T12:53:08Z</time>
      </trkpt>
      <trkpt lat="45.45266" lon="3.44199">
        <ele>779</ele>
        <time>2015-09-27T12:53:14Z</time>
      </trkpt>
      <trkpt lat="45.45271" lon="3.44208">
        <ele>779.9</ele>
        <time>2015-09-27T12:53:19Z</time>
      </trkpt>
      <trkpt lat="45.45277" lon="3.44216">
        <ele>781.1</ele>
        <time>2015-09-27T12:53:25Z</time>
      </trkpt>
      <trkpt lat="45.45283" lon="3.44223">
        <ele>781.8</ele>
        <time>2015-09-27T12:53:31Z</time>
      </trkpt>
      <trkpt lat="45.45291" lon="3.44228">
        <ele>782.6</ele>
        <time>2015-09-27T12:53:43Z</time>
      </trkpt>
      <trkpt lat="45.45292" lon="3.44228">
        <ele>782.9</ele>
        <time>2015-09-27T12:53:44Z</time>
      </trkpt>
      <trkpt lat="45.45307" lon="3.44225">
        <ele>784.9</ele>
        <time>2015-09-27T12:53:57Z</time>
      </trkpt>
      <trkpt lat="45.45315" lon="3.44223">
        <ele>785.4</ele>
        <time>2015-09-27T12:54:04Z</time>
      </trkpt>
      <trkpt lat="45.45323" lon="3.4422">
        <ele>786</ele>
        <time>2015-09-27T12:54:10Z</time>
      </trkpt>
      <trkpt lat="45.4533" lon="3.44218">
        <ele>787.4</ele>
        <time>2015-09-27T12:54:16Z</time>
      </trkpt>
      <trkpt lat="45.45338" lon="3.44215">
        <ele>787.2</ele>
        <time>2015-09-27T12:54:23Z</time>
      </trkpt>
      <trkpt lat="45.45347" lon="3.44213">
        <ele>787.4</ele>
        <time>2015-09-27T12:54:30Z</time>
      </trkpt>
      <trkpt lat="45.45355" lon="3.44213">
        <ele>788.8</ele>
        <time>2015-09-27T12:54:36Z</time>
      </trkpt>
      <trkpt lat="45.45363" lon="3.44213">
        <ele>789.7</ele>
        <time>2015-09-27T12:54:42Z</time>
      </trkpt>
      <trkpt lat="45.45371" lon="3.44213">
        <ele>790</ele>
        <time>2015-09-27T12:54:48Z</time>
      </trkpt>
      <trkpt lat="45.45373" lon="3.44213">
        <ele>790.4</ele>
        <time>2015-09-27T12:54:49Z</time>
      </trkpt>
      <trkpt lat="45.45388" lon="3.44209">
        <ele>791.4</ele>
        <time>2015-09-27T12:55:03Z</time>
      </trkpt>
      <trkpt lat="45.45395" lon="3.44202">
        <ele>792.7</ele>
        <time>2015-09-27T12:55:10Z</time>
      </trkpt>
      <trkpt lat="45.45404" lon="3.44197">
        <ele>793.9</ele>
        <time>2015-09-27T12:55:17Z</time>
      </trkpt>
      <trkpt lat="45.45412" lon="3.44194">
        <ele>794.3</ele>
        <time>2015-09-27T12:55:23Z</time>
      </trkpt>
      <trkpt lat="45.4542" lon="3.44191">
        <ele>796.2</ele>
        <time>2015-09-27T12:55:30Z</time>
      </trkpt>
      <trkpt lat="45.45427" lon="3.44188">
        <ele>797</ele>
        <time>2015-09-27T12:55:34Z</time>
      </trkpt>
      <trkpt lat="45.45435" lon="3.44185">
        <ele>798.9</ele>
        <time>2015-09-27T12:55:40Z</time>
      </trkpt>
      <trkpt lat="45.45443" lon="3.44183">
        <ele>800.2</ele>
        <time>2015-09-27T12:55:45Z</time>
      </trkpt>
      <trkpt lat="45.45451" lon="3.44181">
        <ele>800.5</ele>
        <time>2015-09-27T12:55:50Z</time>
      </trkpt>
      <trkpt lat="45.45452" lon="3.44181">
        <ele>800.6</ele>
        <time>2015-09-27T12:55:51Z</time>
      </trkpt>
      <trkpt lat="45.45468" lon="3.44175">
        <ele>803.8</ele>
        <time>2015-09-27T12:56:05Z</time>
      </trkpt>
      <trkpt lat="45.45476" lon="3.44174">
        <ele>803</ele>
        <time>2015-09-27T12:56:21Z</time>
      </trkpt>
      <trkpt lat="45.45477" lon="3.44162">
        <ele>803.5</ele>
        <time>2015-09-27T12:56:48Z</time>
      </trkpt>
      <trkpt lat="45.45473" lon="3.44152">
        <ele>803.1</ele>
        <time>2015-09-27T12:56:55Z</time>
      </trkpt>
      <trkpt lat="45.45472" lon="3.4415">
        <ele>802.7</ele>
        <time>2015-09-27T12:56:56Z</time>
      </trkpt>
      <trkpt lat="45.45463" lon="3.44132">
        <ele>801.9</ele>
        <time>2015-09-27T12:57:11Z</time>
      </trkpt>
      <trkpt lat="45.45459" lon="3.44122">
        <ele>801.9</ele>
        <time>2015-09-27T12:57:18Z</time>
      </trkpt>
      <trkpt lat="45.45455" lon="3.44112">
        <ele>801.9</ele>
        <time>2015-09-27T12:57:24Z</time>
      </trkpt>
      <trkpt lat="45.4545" lon="3.44102">
        <ele>801.8</ele>
        <time>2015-09-27T12:57:30Z</time>
      </trkpt>
      <trkpt lat="45.45447" lon="3.44091">
        <ele>801.9</ele>
        <time>2015-09-27T12:57:36Z</time>
      </trkpt>
      <trkpt lat="45.45443" lon="3.4408">
        <ele>801</ele>
        <time>2015-09-27T12:57:42Z</time>
      </trkpt>
      <trkpt lat="45.4544" lon="3.4407">
        <ele>800.9</ele>
        <time>2015-09-27T12:57:49Z</time>
      </trkpt>
      <trkpt lat="45.45436" lon="3.44058">
        <ele>798.9</ele>
        <time>2015-09-27T12:57:56Z</time>
      </trkpt>
      <trkpt lat="45.45436" lon="3.44057">
        <ele>799.3</ele>
        <time>2015-09-27T12:57:57Z</time>
      </trkpt>
      <trkpt lat="45.45431" lon="3.44036">
        <ele>798.7</ele>
        <time>2015-09-27T12:58:09Z</time>
      </trkpt>
      <trkpt lat="45.45429" lon="3.44024">
        <ele>798.2</ele>
        <time>2015-09-27T12:58:16Z</time>
      </trkpt>
      <trkpt lat="45.45428" lon="3.44013">
        <ele>797.2</ele>
        <time>2015-09-27T12:58:22Z</time>
      </trkpt>
      <trkpt lat="45.45426" lon="3.44001">
        <ele>796</ele>
        <time>2015-09-27T12:58:28Z</time>
      </trkpt>
      <trkpt lat="45.45424" lon="3.43991">
        <ele>795.4</ele>
        <time>2015-09-27T12:58:33Z</time>
      </trkpt>
      <trkpt lat="45.45422" lon="3.4398">
        <ele>795.1</ele>
        <time>2015-09-27T12:58:38Z</time>
      </trkpt>
      <trkpt lat="45.45418" lon="3.43969">
        <ele>794.8</ele>
        <time>2015-09-27T12:58:44Z</time>
      </trkpt>
      <trkpt lat="45.45415" lon="3.43958">
        <ele>794.3</ele>
        <time>2015-09-27T12:58:51Z</time>
      </trkpt>
      <trkpt lat="45.45413" lon="3.43946">
        <ele>793.4</ele>
        <time>2015-09-27T12:58:59Z</time>
      </trkpt>
      <trkpt lat="45.45412" lon="3.43945">
        <ele>793.6</ele>
        <time>2015-09-27T12:59:00Z</time>
      </trkpt>
      <trkpt lat="45.45407" lon="3.43923">
        <ele>792.5</ele>
        <time>2015-09-27T12:59:15Z</time>
      </trkpt>
      <trkpt lat="45.45404" lon="3.43912">
        <ele>791.4</ele>
        <time>2015-09-27T12:59:21Z</time>
      </trkpt>
      <trkpt lat="45.45401" lon="3.439">
        <ele>791.8</ele>
        <time>2015-09-27T12:59:27Z</time>
      </trkpt>
      <trkpt lat="45.45399" lon="3.43889">
        <ele>791.1</ele>
        <time>2015-09-27T12:59:33Z</time>
      </trkpt>
      <trkpt lat="45.45395" lon="3.4388">
        <ele>790.1</ele>
        <time>2015-09-27T12:59:39Z</time>
      </trkpt>
      <trkpt lat="45.45392" lon="3.43869">
        <ele>789.4</ele>
        <time>2015-09-27T12:59:45Z</time>
      </trkpt>
      <trkpt lat="45.45387" lon="3.43859">
        <ele>789</ele>
        <time>2015-09-27T12:59:52Z</time>
      </trkpt>
      <trkpt lat="45.45383" lon="3.43848">
        <ele>788.4</ele>
        <time>2015-09-27T12:59:59Z</time>
      </trkpt>
      <trkpt lat="45.45378" lon="3.43838">
        <ele>786.7</ele>
        <time>2015-09-27T13:00:07Z</time>
      </trkpt>
      <trkpt lat="45.45377" lon="3.43837">
        <ele>786.5</ele>
        <time>2015-09-27T13:00:08Z</time>
      </trkpt>
      <trkpt lat="45.45368" lon="3.43818">
        <ele>786.8</ele>
        <time>2015-09-27T13:00:21Z</time>
      </trkpt>
      <trkpt lat="45.45362" lon="3.43808">
        <ele>786.2</ele>
        <time>2015-09-27T13:00:28Z</time>
      </trkpt>
      <trkpt lat="45.45359" lon="3.43799">
        <ele>785.9</ele>
        <time>2015-09-27T13:00:34Z</time>
      </trkpt>
      <trkpt lat="45.45356" lon="3.43788">
        <ele>785.1</ele>
        <time>2015-09-27T13:00:40Z</time>
      </trkpt>
      <trkpt lat="45.45353" lon="3.43777">
        <ele>785.1</ele>
        <time>2015-09-27T13:00:46Z</time>
      </trkpt>
      <trkpt lat="45.45352" lon="3.43766">
        <ele>784</ele>
        <time>2015-09-27T13:00:52Z</time>
      </trkpt>
      <trkpt lat="45.45351" lon="3.43753">
        <ele>782.8</ele>
        <time>2015-09-27T13:00:59Z</time>
      </trkpt>
      <trkpt lat="45.45351" lon="3.43741">
        <ele>781.5</ele>
        <time>2015-09-27T13:01:06Z</time>
      </trkpt>
      <trkpt lat="45.45352" lon="3.43728">
        <ele>781</ele>
        <time>2015-09-27T13:01:13Z</time>
      </trkpt>
      <trkpt lat="45.45352" lon="3.43726">
        <ele>781.3</ele>
        <time>2015-09-27T13:01:14Z</time>
      </trkpt>
      <trkpt lat="45.45353" lon="3.43704">
        <ele>781.4</ele>
        <time>2015-09-27T13:01:26Z</time>
      </trkpt>
      <trkpt lat="45.45352" lon="3.43693">
        <ele>780.1</ele>
        <time>2015-09-27T13:01:32Z</time>
      </trkpt>
      <trkpt lat="45.45353" lon="3.43681">
        <ele>781.3</ele>
        <time>2015-09-27T13:01:38Z</time>
      </trkpt>
      <trkpt lat="45.45353" lon="3.43668">
        <ele>781.2</ele>
        <time>2015-09-27T13:01:44Z</time>
      </trkpt>
      <trkpt lat="45.45353" lon="3.43657">
        <ele>782.4</ele>
        <time>2015-09-27T13:01:50Z</time>
      </trkpt>
      <trkpt lat="45.45354" lon="3.43644">
        <ele>781.6</ele>
        <time>2015-09-27T13:01:57Z</time>
      </trkpt>
      <trkpt lat="45.45355" lon="3.43632">
        <ele>780</ele>
        <time>2015-09-27T13:02:04Z</time>
      </trkpt>
      <trkpt lat="45.45355" lon="3.4362">
        <ele>779.2</ele>
        <time>2015-09-27T13:02:11Z</time>
      </trkpt>
      <trkpt lat="45.45355" lon="3.43609">
        <ele>777.9</ele>
        <time>2015-09-27T13:02:17Z</time>
      </trkpt>
      <trkpt lat="45.45355" lon="3.43607">
        <ele>777.5</ele>
        <time>2015-09-27T13:02:18Z</time>
      </trkpt>
      <trkpt lat="45.45354" lon="3.43585">
        <ele>774.7</ele>
        <time>2015-09-27T13:02:31Z</time>
      </trkpt>
      <trkpt lat="45.45354" lon="3.43572">
        <ele>773.4</ele>
        <time>2015-09-27T13:02:39Z</time>
      </trkpt>
      <trkpt lat="45.45352" lon="3.4356">
        <ele>772.2</ele>
        <time>2015-09-27T13:02:46Z</time>
      </trkpt>
      <trkpt lat="45.45349" lon="3.4355">
        <ele>771.2</ele>
        <time>2015-09-27T13:02:52Z</time>
      </trkpt>
      <trkpt lat="45.45347" lon="3.43539">
        <ele>769</ele>
        <time>2015-09-27T13:02:58Z</time>
      </trkpt>
      <trkpt lat="45.45343" lon="3.4353">
        <ele>767.6</ele>
        <time>2015-09-27T13:03:03Z</time>
      </trkpt>
      <trkpt lat="45.45339" lon="3.4352">
        <ele>767.2</ele>
        <time>2015-09-27T13:03:08Z</time>
      </trkpt>
      <trkpt lat="45.45335" lon="3.4351">
        <ele>766.8</ele>
        <time>2015-09-27T13:03:13Z</time>
      </trkpt>
      <trkpt lat="45.45332" lon="3.43499">
        <ele>766</ele>
        <time>2015-09-27T13:03:18Z</time>
      </trkpt>
      <trkpt lat="45.4533" lon="3.43488">
        <ele>765.9</ele>
        <time>2015-09-27T13:03:23Z</time>
      </trkpt>
      <trkpt lat="45.45329" lon="3.43486">
        <ele>765.9</ele>
        <time>2015-09-27T13:03:24Z</time>
      </trkpt>
      <trkpt lat="45.45322" lon="3.43467">
        <ele>765.1</ele>
        <time>2015-09-27T13:03:34Z</time>
      </trkpt>
      <trkpt lat="45.45316" lon="3.43458">
        <ele>763.7</ele>
        <time>2015-09-27T13:03:50Z</time>
      </trkpt>
      <trkpt lat="45.45315" lon="3.43447">
        <ele>763.7</ele>
        <time>2015-09-27T13:03:55Z</time>
      </trkpt>
      <trkpt lat="45.45312" lon="3.43437">
        <ele>762.9</ele>
        <time>2015-09-27T13:04:00Z</time>
      </trkpt>
      <trkpt lat="45.45309" lon="3.43427">
        <ele>762.6</ele>
        <time>2015-09-27T13:04:05Z</time>
      </trkpt>
      <trkpt lat="45.45308" lon="3.43414">
        <ele>762</ele>
        <time>2015-09-27T13:04:11Z</time>
      </trkpt>
      <trkpt lat="45.45307" lon="3.43403">
        <ele>761.7</ele>
        <time>2015-09-27T13:04:17Z</time>
      </trkpt>
      <trkpt lat="45.45308" lon="3.43391">
        <ele>761.5</ele>
        <time>2015-09-27T13:04:24Z</time>
      </trkpt>
      <trkpt lat="45.45308" lon="3.43389">
        <ele>761.2</ele>
        <time>2015-09-27T13:04:25Z</time>
      </trkpt>
      <trkpt lat="45.45309" lon="3.43368">
        <ele>760.6</ele>
        <time>2015-09-27T13:04:36Z</time>
      </trkpt>
      <trkpt lat="45.4531" lon="3.43357">
        <ele>759.6</ele>
        <time>2015-09-27T13:04:42Z</time>
      </trkpt>
      <trkpt lat="45.45312" lon="3.43346">
        <ele>759.1</ele>
        <time>2015-09-27T13:04:48Z</time>
      </trkpt>
      <trkpt lat="45.45315" lon="3.43334">
        <ele>758.8</ele>
        <time>2015-09-27T13:05:00Z</time>
      </trkpt>
      <trkpt lat="45.45318" lon="3.43323">
        <ele>757.8</ele>
        <time>2015-09-27T13:05:06Z</time>
      </trkpt>
      <trkpt lat="45.4532" lon="3.43311">
        <ele>757.4</ele>
        <time>2015-09-27T13:05:12Z</time>
      </trkpt>
      <trkpt lat="45.45322" lon="3.43299">
        <ele>757.5</ele>
        <time>2015-09-27T13:05:18Z</time>
      </trkpt>
      <trkpt lat="45.45325" lon="3.43288">
        <ele>757.3</ele>
        <time>2015-09-27T13:05:24Z</time>
      </trkpt>
      <trkpt lat="45.45329" lon="3.43277">
        <ele>755.3</ele>
        <time>2015-09-27T13:05:30Z</time>
      </trkpt>
      <trkpt lat="45.4533" lon="3.43275">
        <ele>755</ele>
        <time>2015-09-27T13:05:31Z</time>
      </trkpt>
      <trkpt lat="45.45333" lon="3.43255">
        <ele>754.8</ele>
        <time>2015-09-27T13:06:20Z</time>
      </trkpt>
      <trkpt lat="45.45334" lon="3.43253">
        <ele>755</ele>
        <time>2015-09-27T13:13:53Z</time>
      </trkpt>
      <trkpt lat="45.45334" lon="3.43253">
        <ele>755.3</ele>
        <time>2015-09-27T13:13:55Z</time>
      </trkpt>
    </trkseg>
  </trk>
</gpx>